[[{"header":{"parameterUnit":"m.s-1","parameterCategory":1,"la1":30.6,"la2":29.2853,"lo1":-89.7004,"lo2":-87.6739,"dy":0.0162,"dx":0.0183,"nx":112,"ny":82,"refTime":"2026-05-14T12:00:00:Z","depth":0,"parameterNumber":2,"parameterNumberName":"U-component_of_WINDS"},"data":[0.0,0.0,0.0,0.0,0.0,0.0,0.0,0.0,0.0,0.0,0.0,0.0,0.0,0.0,0.0,0.0,0.0,0.0,0.0,0.0,0.0,0.0,0.0,0.0,0.0,0.0,0.0,0.0,0.0,0.0,0.0,0.0,0.0,0.0,0.0,0.0,0.0,0.0,0.0,0.0,0.0,0.0,0.0,0.0,0.0,0.0,0.0,0.0,0.0,0.0,0.0,0.0,0.0,0.0,0.0,0.0,0.0,0.0,0.0,0.0,0.0,0.0,0.0,0.0,0.0,0.0,0.0,0.0,0.0,0.0,0.0,0.0,0.0,0.0,0.0,0.0,0.0,0.0,0.0,0.0,0.0,0.0,0.0,0.0,0.0,0.0,0.0,0.0,0.0,0.0,-2.5084,-2.6602,-2.7787,-2.833,-2.7834,-2.6839,-2.5769,-2.4784,0.0,0.0,0.0,0.0,0.0,0.0,0.0,0.0,0.0,0.0,0.0,0.0,0.0,0.0,0.0,0.0,0.0,0.0,0.0,0.0,0.0,0.0,0.0,0.0,0.0,0.0,0.0,0.0,0.0,0.0,0.0,0.0,0.0,0.0,0.0,0.0,0.0,0.0,0.0,0.0,0.0,0.0,0.0,0.0,0.0,0.0,0.0,0.0,0.0,0.0,0.0,0.0,0.0,0.0,0.0,0.0,0.0,0.0,0.0,0.0,0.0,0.0,0.0,0.0,0.0,0.0,0.0,0.0,0.0,0.0,0.0,0.0,0.0,0.0,0.0,0.0,0.0,0.0,0.0,0.0,0.0,0.0,0.0,0.0,0.0,0.0,0.0,0.0,0.0,0.0,0.0,0.0,0.0,0.0,0.0,0.0,0.0,0.0,0.0,0.0,0.0,0.0,0.0,0.0,-2.5274,-2.7324,-2.8089,-2.8474,-2.8402,-2.7378,-2.6476,-2.5744,0.0,0.0,0.0,0.0,0.0,0.0,0.0,0.0,0.0,0.0,0.0,0.0,0.0,0.0,0.0,0.0,0.0,0.0,0.0,0.0,0.0,0.0,0.0,0.0,0.0,0.0,0.0,0.0,0.0,0.0,0.0,0.0,0.0,0.0,0.0,0.0,0.0,0.0,0.0,0.0,0.0,0.0,0.0,0.0,0.0,0.0,0.0,0.0,0.0,0.0,0.0,0.0,0.0,0.0,0.0,0.0,0.0,0.0,0.0,0.0,0.0,0.0,0.0,0.0,0.0,0.0,0.0,0.0,0.0,0.0,0.0,0.0,0.0,0.0,0.0,0.0,0.0,0.0,0.0,0.0,0.0,0.0,0.0,0.0,0.0,0.0,0.0,0.0,0.0,0.0,0.0,0.0,0.0,0.0,0.0,0.0,0.0,0.0,0.0,0.0,0.0,0.0,0.0,-2.542,-2.6585,-2.7594,-2.8186,-2.8402,-2.8114,-2.733,-2.6417,-2.5218,-2.3895,0.0,0.0,0.0,0.0,0.0,0.0,0.0,0.0,0.0,0.0,0.0,0.0,0.0,0.0,0.0,0.0,0.0,0.0,0.0,0.0,0.0,0.0,0.0,0.0,0.0,0.0,0.0,0.0,0.0,0.0,0.0,0.0,0.0,0.0,0.0,0.0,0.0,0.0,0.0,0.0,0.0,0.0,0.0,0.0,0.0,0.0,0.0,0.0,0.0,0.0,0.0,0.0,0.0,0.0,0.0,0.0,0.0,0.0,0.0,0.0,0.0,0.0,0.0,0.0,0.0,0.0,0.0,0.0,0.0,0.0,0.0,0.0,0.0,0.0,0.0,0.0,0.0,0.0,0.0,0.0,0.0,0.0,0.0,0.0,0.0,0.0,0.0,0.0,0.0,0.0,0.0,0.0,0.0,0.0,0.0,0.0,0.0,0.0,0.0,0.0,0.0,0.0,-2.6911,-2.7882,-2.7882,-2.8258,-2.8306,-2.7738,-2.709,-2.6129,-2.4725,-2.3698,0.0,0.0,0.0,0.0,0.0,0.0,0.0,0.0,0.0,0.0,0.0,0.0,0.0,0.0,0.0,0.0,0.0,0.0,0.0,0.0,0.0,0.0,0.0,0.0,0.0,0.0,0.0,0.0,0.0,0.0,0.0,0.0,0.0,0.0,0.0,0.0,0.0,0.0,0.0,0.0,0.0,0.0,0.0,0.0,0.0,0.0,0.0,0.0,0.0,0.0,0.0,0.0,0.0,0.0,0.0,0.0,0.0,0.0,0.0,0.0,0.0,0.0,0.0,0.0,0.0,0.0,0.0,0.0,0.0,0.0,0.0,0.0,0.0,0.0,0.0,0.0,0.0,0.0,0.0,0.0,0.0,0.0,0.0,0.0,0.0,0.0,0.0,0.0,0.0,0.0,0.0,0.0,0.0,0.0,0.0,0.0,0.0,0.0,0.0,0.0,0.0,0.0,-2.7464,-2.845,-2.845,-2.8498,-2.8306,-2.7738,-2.6767,-2.5829,-2.5087,-2.3589,0.0,0.0,0.0,0.0,0.0,0.0,0.0,0.0,0.0,0.0,0.0,0.0,0.0,0.0,0.0,0.0,0.0,0.0,0.0,0.0,0.0,0.0,0.0,0.0,0.0,0.0,0.0,0.0,0.0,0.0,0.0,0.0,0.0,0.0,0.0,0.0,0.0,0.0,0.0,0.0,0.0,0.0,0.0,0.0,0.0,0.0,0.0,0.0,0.0,0.0,0.0,0.0,0.0,0.0,0.0,0.0,0.0,0.0,0.0,0.0,0.0,0.0,0.0,0.0,0.0,0.0,0.0,0.0,0.0,0.0,0.0,0.0,0.0,0.0,0.0,0.0,0.0,0.0,0.0,0.0,0.0,0.0,0.0,0.0,0.0,0.0,0.0,0.0,0.0,0.0,0.0,0.0,0.0,0.0,0.0,0.0,0.0,0.0,0.0,0.0,0.0,0.0,-2.8017,-2.8883,-2.8546,-2.8811,-2.8522,-2.7282,-2.6825,-2.5937,-2.439,0.0,0.0,0.0,0.0,0.0,0.0,0.0,0.0,0.0,0.0,0.0,0.0,0.0,0.0,0.0,0.0,0.0,0.0,0.0,0.0,0.0,0.0,0.0,0.0,0.0,0.0,0.0,0.0,0.0,0.0,0.0,0.0,0.0,0.0,0.0,0.0,0.0,0.0,0.0,0.0,0.0,0.0,0.0,0.0,0.0,0.0,0.0,0.0,0.0,0.0,0.0,0.0,0.0,0.0,0.0,0.0,0.0,0.0,0.0,0.0,0.0,0.0,0.0,0.0,0.0,0.0,0.0,0.0,0.0,0.0,0.0,0.0,0.0,0.0,0.0,0.0,0.0,0.0,0.0,0.0,0.0,0.0,0.0,0.0,0.0,0.0,0.0,0.0,0.0,0.0,0.0,0.0,0.0,0.0,0.0,0.0,0.0,0.0,0.0,0.0,0.0,0.0,-2.6729,-2.833,-2.91,-2.857,-2.8979,-2.8715,-2.7258,-2.6825,-2.5865,-2.4054,0.0,0.0,0.0,0.0,0.0,0.0,0.0,0.0,0.0,0.0,0.0,0.0,0.0,0.0,0.0,0.0,0.0,0.0,0.0,0.0,0.0,0.0,0.0,0.0,0.0,0.0,0.0,0.0,0.0,0.0,0.0,0.0,0.0,0.0,0.0,0.0,0.0,0.0,0.0,0.0,0.0,0.0,0.0,0.0,0.0,0.0,0.0,0.0,0.0,0.0,0.0,0.0,0.0,0.0,0.0,0.0,0.0,0.0,0.0,0.0,0.0,0.0,0.0,0.0,0.0,0.0,0.0,0.0,0.0,0.0,0.0,0.0,0.0,0.0,0.0,0.0,0.0,0.0,0.0,0.0,0.0,0.0,0.0,0.0,0.0,0.0,0.0,0.0,0.0,0.0,0.0,0.0,0.0,0.0,0.0,0.0,0.0,0.0,0.0,0.0,0.0,0.0,-2.6681,-2.829,-2.91,-2.857,-2.8979,-2.8883,-2.7762,-2.6719,-2.5589,0.0,0.0,0.0,0.0,0.0,0.0,0.0,0.0,0.0,0.0,0.0,0.0,0.0,0.0,0.0,0.0,0.0,0.0,0.0,0.0,0.0,0.0,0.0,0.0,0.0,0.0,0.0,0.0,0.0,0.0,0.0,0.0,0.0,0.0,0.0,0.0,0.0,0.0,0.0,0.0,0.0,0.0,0.0,0.0,0.0,0.0,0.0,0.0,0.0,0.0,0.0,0.0,0.0,0.0,0.0,0.0,0.0,0.0,0.0,0.0,0.0,0.0,0.0,0.0,0.0,0.0,0.0,0.0,0.0,0.0,0.0,0.0,0.0,0.0,0.0,0.0,0.0,0.0,0.0,0.0,0.0,0.0,0.0,0.0,0.0,0.0,0.0,0.0,0.0,0.0,0.0,0.0,0.0,0.0,0.0,0.0,0.0,0.0,0.0,0.0,0.0,0.0,0.0,-2.6056,-2.7772,-2.8612,-2.787,-2.8716,-2.8816,-2.738,-2.6623,-2.5607,-2.4177,0.0,0.0,0.0,0.0,0.0,0.0,0.0,0.0,0.0,0.0,0.0,0.0,0.0,0.0,0.0,0.0,0.0,0.0,0.0,0.0,0.0,0.0,0.0,0.0,0.0,0.0,0.0,0.0,0.0,0.0,0.0,0.0,0.0,0.0,0.0,0.0,0.0,0.0,0.0,0.0,0.0,0.0,0.0,0.0,0.0,0.0,0.0,0.0,0.0,0.0,0.0,0.0,0.0,0.0,0.0,0.0,0.0,0.0,0.0,0.0,0.0,0.0,0.0,0.0,0.0,0.0,0.0,0.0,0.0,0.0,0.0,0.0,0.0,0.0,0.0,0.0,0.0,0.0,0.0,0.0,0.0,0.0,0.0,0.0,0.0,0.0,0.0,0.0,0.0,0.0,0.0,0.0,0.0,0.0,0.0,0.0,0.0,0.0,0.0,0.0,0.0,0.0,-2.5402,-2.7107,-2.7951,-2.7428,-2.8407,-2.8621,-2.7528,-2.6574,-2.5494,-2.4166,0.0,0.0,0.0,0.0,0.0,0.0,0.0,0.0,0.0,0.0,0.0,0.0,0.0,0.0,0.0,0.0,0.0,0.0,0.0,0.0,0.0,0.0,0.0,0.0,0.0,0.0,0.0,0.0,0.0,0.0,0.0,0.0,0.0,0.0,0.0,0.0,0.0,0.0,0.0,0.0,0.0,0.0,0.0,0.0,0.0,0.0,0.0,0.0,0.0,0.0,0.0,0.0,0.0,0.0,0.0,0.0,0.0,0.0,0.0,0.0,0.0,0.0,0.0,0.0,0.0,0.0,0.0,0.0,0.0,0.0,0.0,0.0,0.0,0.0,0.0,0.0,0.0,0.0,0.0,0.0,0.0,0.0,0.0,0.0,0.0,0.0,0.0,0.0,0.0,0.0,0.0,0.0,0.0,0.0,0.0,0.0,0.0,0.0,0.0,0.0,0.0,0.0,-2.4664,-2.6207,-2.713,-2.7077,-2.7929,-2.83,-2.782,-2.6468,-2.5226,-2.4137,0.0,0.0,0.0,0.0,0.0,0.0,0.0,0.0,0.0,0.0,0.0,0.0,0.0,0.0,0.0,0.0,0.0,0.0,0.0,0.0,0.0,0.0,0.0,0.0,0.0,0.0,0.0,0.0,0.0,0.0,0.0,0.0,0.0,0.0,0.0,0.0,0.0,0.0,0.0,0.0,0.0,0.0,0.0,0.0,0.0,0.0,0.0,0.0,0.0,0.0,0.0,0.0,0.0,0.0,0.0,0.0,0.0,0.0,0.0,0.0,-2.8424,-2.7897,0.0,0.0,0.0,0.0,0.0,0.0,0.0,0.0,0.0,0.0,0.0,0.0,0.0,0.0,0.0,0.0,0.0,0.0,0.0,0.0,0.0,0.0,0.0,0.0,0.0,0.0,0.0,0.0,0.0,0.0,0.0,0.0,0.0,0.0,0.0,0.0,0.0,0.0,0.0,0.0,-2.3849,-2.5316,-2.618,-2.6152,-2.6955,-2.7326,-2.6907,-2.5848,-2.4657,-2.3349,-2.1532,0.0,0.0,0.0,0.0,0.0,0.0,0.0,0.0,0.0,0.0,0.0,0.0,0.0,0.0,0.0,0.0,0.0,0.0,0.0,0.0,0.0,0.0,0.0,0.0,0.0,0.0,0.0,0.0,0.0,0.0,0.0,0.0,0.0,0.0,0.0,0.0,0.0,0.0,0.0,0.0,0.0,0.0,0.0,0.0,0.0,0.0,0.0,0.0,0.0,0.0,0.0,0.0,0.0,0.0,0.0,0.0,0.0,0.0,0.0,-2.9014,-2.8521,0.0,0.0,0.0,0.0,0.0,0.0,0.0,0.0,0.0,0.0,0.0,0.0,0.0,0.0,0.0,0.0,0.0,0.0,0.0,0.0,0.0,0.0,0.0,0.0,0.0,0.0,0.0,0.0,0.0,0.0,0.0,0.0,0.0,0.0,0.0,0.0,0.0,0.0,0.0,0.0,-2.3246,-2.4445,-2.5376,-2.5809,-2.6259,-2.6487,-2.6275,-2.5168,-2.3977,-2.2807,-2.1012,0.0,0.0,0.0,0.0,0.0,0.0,0.0,0.0,0.0,0.0,0.0,0.0,0.0,0.0,0.0,0.0,0.0,0.0,0.0,0.0,0.0,0.0,0.0,0.0,0.0,0.0,0.0,0.0,0.0,0.0,0.0,0.0,0.0,0.0,0.0,0.0,0.0,0.0,0.0,0.0,0.0,0.0,0.0,0.0,0.0,0.0,0.0,0.0,0.0,0.0,0.0,0.0,0.0,-2.9842,-2.9949,-2.9949,-3.0034,-3.029,-3.0721,-3.0002,-2.9624,-2.9398,-2.8313,0.0,0.0,0.0,0.0,0.0,0.0,0.0,0.0,0.0,0.0,0.0,0.0,0.0,0.0,0.0,0.0,0.0,0.0,0.0,0.0,0.0,0.0,-2.5019,-2.4635,-2.4227,-2.3781,-2.3229,0.0,0.0,0.0,0.0,0.0,0.0,0.0,0.0,0.0,0.0,0.0,-2.2972,-2.3895,-2.4775,-2.5631,-2.5793,-2.5776,-2.5805,-2.4627,-2.3515,-2.2487,-2.07,-1.9483,0.0,0.0,0.0,0.0,0.0,0.0,0.0,0.0,0.0,0.0,0.0,0.0,0.0,0.0,0.0,0.0,0.0,0.0,0.0,0.0,0.0,0.0,0.0,0.0,0.0,0.0,0.0,0.0,0.0,0.0,0.0,0.0,-3.0206,-3.0281,0.0,0.0,0.0,0.0,0.0,0.0,0.0,0.0,0.0,0.0,0.0,0.0,0.0,-3.1258,-3.0936,-3.0637,-3.0354,-3.0118,-3.0713,-3.1,-3.1021,-3.136,-3.1567,-3.1664,-3.1183,0.0,-2.9676,-2.8718,0.0,0.0,0.0,0.0,0.0,0.0,0.0,0.0,0.0,0.0,0.0,0.0,0.0,0.0,0.0,0.0,0.0,0.0,0.0,0.0,0.0,0.0,-2.5515,-2.511,-2.4952,-2.492,-2.4815,-2.4155,-2.3412,-2.2875,-2.2069,-2.1201,0.0,0.0,0.0,0.0,0.0,0.0,-2.3179,-2.3983,-2.4683,-2.5464,-2.5678,-2.5684,-2.53,-2.4755,-2.3867,-2.2554,-2.1409,-2.0269,-1.9118,-1.8114,0.0,0.0,0.0,0.0,0.0,0.0,0.0,0.0,0.0,0.0,0.0,0.0,0.0,0.0,0.0,0.0,0.0,0.0,0.0,0.0,0.0,0.0,0.0,0.0,0.0,0.0,0.0,0.0,0.0,-3.0227,-3.1637,-3.1964,-3.219,-3.193,0.0,0.0,0.0,0.0,0.0,0.0,0.0,0.0,0.0,-3.0981,-3.1578,-3.1897,-3.1954,-3.2023,-3.2015,-3.1862,-3.2253,-3.2315,-3.2096,-3.2275,-3.2235,-3.2054,-3.1854,-3.1281,-3.0329,-2.9245,-2.8473,-2.771,0.0,0.0,0.0,0.0,-2.628,-2.6424,-2.6634,-2.6759,-2.6783,-2.6317,0.0,0.0,0.0,0.0,0.0,0.0,0.0,-2.4648,-2.4844,-2.584,-2.6699,-2.6269,-2.5977,-2.5801,-2.5801,-2.5303,-2.4541,-2.3647,-2.2707,-2.1909,-2.1291,-2.0312,0.0,0.0,0.0,-2.2101,-2.3496,-2.4349,-2.5008,-2.5554,-2.55,-2.5231,-2.4796,-2.436,-2.3648,-2.2599,-2.1864,-2.1036,-1.9989,-1.912,-1.8296,0.0,0.0,0.0,0.0,0.0,0.0,0.0,0.0,0.0,0.0,0.0,0.0,0.0,0.0,0.0,0.0,0.0,0.0,0.0,0.0,0.0,0.0,0.0,0.0,0.0,0.0,0.0,0.0,-3.1448,-3.2846,-3.3271,-3.3446,-3.3071,0.0,0.0,0.0,0.0,0.0,0.0,-3.0478,-3.073,-3.1145,-3.1841,-3.2448,-3.281,-3.3027,-3.3336,-3.3404,-3.328,-3.3442,-3.3418,-3.3125,-3.3125,-3.2891,-3.248,-3.2383,-3.1914,-3.1113,-2.9957,-2.9123,-2.8503,-2.7711,-2.7467,-2.7569,-2.7569,-2.765,-2.7751,-2.7751,-2.7885,-2.8075,-2.7821,-2.7112,-2.6123,-2.5067,0.0,0.0,0.0,0.0,-2.5898,-2.5898,-2.6777,-2.763,-2.7266,-2.6934,-2.6719,-2.6719,-2.6367,-2.5684,-2.4375,-2.3516,-2.2871,-2.2441,-2.1641,0.0,-2.1816,-2.2441,-2.3144,-2.4004,-2.4766,-2.5371,-2.5654,-2.543,-2.5019,-2.4473,-2.4141,-2.3574,-2.2734,-2.2285,-2.166,-2.0781,-2.0019,-1.9219,-1.8359,0.0,0.0,0.0,0.0,0.0,0.0,0.0,0.0,0.0,0.0,0.0,0.0,0.0,0.0,0.0,0.0,0.0,0.0,0.0,0.0,0.0,0.0,0.0,0.0,0.0,0.0,0.0,0.0,0.0,-3.397,-3.4367,0.0,0.0,0.0,0.0,-3.0762,-3.0515,-3.0641,-3.1374,-3.209,-3.2665,-3.3126,-3.4017,-3.4344,-3.4146,-3.4265,-3.4007,-3.3398,-3.3828,-3.4023,-3.4004,-3.4004,-3.3769,-3.334,-3.293,-3.2519,-3.2053,-3.0683,-2.9626,-2.8824,-2.8393,-2.8452,-2.8804,-2.8804,-2.9078,-2.9486,-2.9486,-2.9704,-2.9998,-2.9587,-2.8354,-2.6797,-2.5888,-2.5332,0.0,0.0,-2.5664,-2.6348,-2.6348,-2.7012,-2.7708,-2.7689,-2.7669,-2.765,-2.765,-2.7266,-2.6562,-2.5302,-2.4629,-2.418,-2.3769,0.0,-2.2695,-2.3535,-2.3691,-2.4043,-2.4949,-2.541,-2.5674,-2.5693,-2.5674,-2.5304,-2.4492,-2.4394,-2.4023,-2.312,-2.2672,-2.209,-2.119,-2.0742,-2.0136,-1.9238,-1.824,0.0,0.0,0.0,0.0,0.0,0.0,0.0,0.0,0.0,0.0,0.0,0.0,0.0,0.0,0.0,0.0,0.0,0.0,0.0,0.0,0.0,0.0,0.0,0.0,0.0,0.0,0.0,0.0,-3.3876,-3.4012,0.0,-3.2974,-3.154,-3.0909,-3.1374,-3.1196,-3.1423,-3.2243,-3.2818,-3.3437,-3.4232,-3.4893,-3.5376,-3.5575,-3.5706,-3.5653,-3.5389,-3.5367,-3.5176,-3.4922,-3.4922,-3.4531,-3.3828,-3.3691,-3.3223,-3.2539,-3.207,-3.1367,-3.0547,-3.0137,-3.0059,-3.0195,-3.0195,-3.0293,-3.0371,-3.0078,-3.0273,-3.0566,-3.0117,-2.918,-2.8184,-2.7818,-2.7305,-2.6847,-2.707,-2.7559,-2.7949,-2.7676,-2.8047,-2.8398,-2.8125,-2.8066,-2.7988,-2.7787,-2.7591,-2.7207,-2.6465,-2.5742,-2.5167,-2.5059,-2.4316,-2.3848,-2.4141,-2.4434,-2.4824,-2.543,-2.5596,-2.5791,-2.6133,-2.5898,-2.5488,-2.4883,-2.457,-2.418,-2.3594,-2.2891,-2.2246,-2.168,-2.123,-2.0586,-1.9707,-1.9085,-1.8407,0.0,0.0,0.0,0.0,0.0,0.0,0.0,0.0,0.0,0.0,0.0,0.0,0.0,0.0,0.0,0.0,0.0,0.0,0.0,0.0,0.0,0.0,0.0,0.0,0.0,-3.191,-3.2919,-3.3759,-3.3957,-3.3824,-3.3302,-3.203,-3.1555,-3.22,-3.1981,-3.223,-3.3141,-3.3596,-3.4258,-3.519,-3.5767,-3.619,-3.6587,-3.6643,-3.6586,-3.6336,-3.6084,-3.5879,-3.5586,-3.5293,-3.4844,-3.4258,-3.3984,-3.3535,-3.3008,-3.3008,-3.2676,-3.2109,-3.1699,-3.1523,-3.1543,-3.1699,-3.1738,-3.166,-3.1074,-3.0879,-3.084,-3.0527,-2.9941,-2.9355,-2.9355,-2.8867,-2.8432,-2.8633,-2.8926,-2.9082,-2.8789,-2.8828,-2.8848,-2.8574,-2.8398,-2.8223,-2.793,-2.7871,-2.7793,-2.75,-2.6758,-2.6122,-2.6122,-2.5566,-2.5078,-2.5078,-2.5332,-2.5566,-2.5674,-2.581,-2.6016,-2.6152,-2.5918,-2.5488,-2.4902,-2.459,-2.418,-2.3613,-2.291,-2.2282,-2.1792,-2.1343,-2.0721,-1.9927,-1.9274,-1.8526,-1.7632,0.0,0.0,0.0,0.0,0.0,0.0,0.0,0.0,0.0,0.0,0.0,0.0,0.0,0.0,0.0,0.0,0.0,0.0,0.0,0.0,0.0,0.0,0.0,-3.0948,-3.2264,-3.3228,-3.3741,-3.4231,-3.4203,-3.317,-3.2782,-3.2767,-3.3084,-3.2882,-3.3182,-3.4051,-3.4608,-3.5211,-3.6121,-3.6597,-3.6934,-3.7146,-3.7079,-3.6742,-3.6016,-3.6016,-3.6016,-3.5976,-3.5117,-3.4707,-3.4629,-3.3809,-3.3437,-3.3418,-3.3418,-3.3418,-3.3379,-3.2969,-3.2812,-3.2871,-3.3281,-3.3418,-3.3281,-3.248,-3.1621,-3.0918,-3.0918,-3.0586,-3.0215,-3.0215,-2.9941,-2.9665,-2.9665,-2.9665,-2.9665,-2.959,-2.9277,-2.8891,-2.8871,-2.854,-2.8301,-2.8301,-2.8301,-2.8301,-2.8301,-2.7565,-2.7,-2.7031,-2.668,-2.6406,-2.6387,-2.6387,0.0,-2.5771,-2.6113,-2.6211,-2.5752,-2.5693,-2.5343,-2.4512,-2.4414,-2.4043,-2.314,-2.2691,-2.2159,-2.1505,-2.1082,-2.0558,-1.9863,-1.8825,-1.7824,-1.691,0.0,0.0,0.0,0.0,0.0,0.0,0.0,0.0,0.0,0.0,0.0,0.0,0.0,0.0,0.0,0.0,0.0,0.0,0.0,0.0,0.0,-2.9937,-3.0558,-3.107,-3.1795,-3.248,-3.2966,-3.3705,-3.4149,-3.3849,-3.3712,-3.3701,-3.3796,-3.4069,-3.4445,-3.5024,-3.548,-3.6163,-3.7094,-3.6958,-3.7044,-3.7482,-3.6924,-3.6586,-3.6384,-3.6152,-3.5859,-3.5566,-3.5312,-3.4844,-3.4238,-3.3984,-3.3711,-3.3418,-3.3418,-3.3418,-3.3418,-3.3301,-3.3242,-3.3262,-3.3379,-3.3223,-3.293,-3.2695,-3.2051,-3.1348,-3.1348,-3.1055,-3.0703,-3.0703,-3.0625,-3.0527,-3.0527,-3.0527,-3.0392,-2.9909,-2.9389,-2.8928,-2.838,-2.7943,-2.7638,-2.7638,-2.7638,-2.7638,-2.7638,-2.7466,-2.7324,-2.7487,-2.7129,-2.6738,-2.6426,-2.6387,-2.6348,-2.623,-2.6035,-2.5996,-2.6191,-2.5869,-2.546,-2.4941,-2.4609,-2.4043,-2.314,-2.2461,-2.1773,-2.1063,-2.02,-1.9363,-1.8519,-1.7965,-1.7322,0.0,0.0,0.0,0.0,0.0,0.0,0.0,0.0,0.0,0.0,0.0,0.0,0.0,0.0,0.0,0.0,0.0,0.0,0.0,0.0,0.0,0.0,-3.0645,-3.1307,-3.1444,-3.1801,-3.2215,-3.2934,-3.3451,-3.3844,-3.4111,-3.4132,-3.4214,-3.4401,-3.4671,-3.5045,-3.5666,-3.6142,-3.6742,-3.7467,-3.7476,-3.7417,-3.7415,-3.6944,-3.6586,-3.6268,-3.6043,-3.5759,-3.5391,-3.5132,-3.4681,-3.4062,-3.3887,-3.3652,-3.3418,-3.3418,-3.3418,-3.3418,0.0,0.0,0.0,0.0,-3.3164,-3.2793,-3.2793,-3.2226,-3.1523,-3.1523,-3.123,-3.0898,-3.0898,-3.0898,-3.0898,-3.0898,-3.0898,-3.0762,-3.0219,-2.9279,-2.8427,-2.7846,-2.694,-2.6245,-2.6245,-2.6245,-2.6245,-2.6245,-2.6245,0.0,-2.6421,-2.6702,-2.6846,-2.6596,-2.6249,-2.6018,-2.6018,-2.5651,-2.5478,-2.5729,-2.5536,-2.5208,-2.4784,-2.4341,0.0,0.0,0.0,-2.1434,-2.0443,-1.9506,0.0,0.0,0.0,0.0,0.0,-1.6716,0.0,0.0,-1.5632,-1.5496,0.0,0.0,0.0,0.0,0.0,0.0,0.0,0.0,0.0,0.0,0.0,0.0,0.0,0.0,0.0,0.0,-3.1186,-3.1609,-3.2008,-3.207,-3.2437,-3.3265,-3.3472,-3.3699,-3.4173,-3.4196,-3.4383,-3.4857,-3.4899,-3.5231,-3.6142,-3.6577,0.0,0.0,0.0,-3.7837,-3.7146,-3.7079,-3.6722,-3.6005,-3.5969,-3.5732,-3.5348,-3.4823,-3.4428,-3.4048,-3.3594,-3.3418,-3.3418,-3.3418,-3.3418,-3.3418,-3.3418,-3.3418,-3.3418,-3.3418,-3.3184,-3.2871,-3.2871,0.0,0.0,-3.1522,-3.121,-3.084,-3.0762,-3.0782,-3.0782,-3.0782,-3.0782,-3.0704,-3.0274,-2.8932,-2.7614,-2.7158,-2.58,-2.4616,-2.4616,-2.4616,-2.4616,-2.4616,-2.4616,-2.4616,-2.4616,-2.5685,-2.6536,-2.6499,-2.5806,-2.5282,-2.5245,-2.4871,-2.4627,-2.4627,-2.4627,0.0,-2.4066,-2.3673,-2.3261,-2.2748,-2.1963,-2.09,-1.9581,-1.8904,-1.8413,-1.8094,-1.7893,-1.7663,-1.7334,-1.7184,-1.7017,-1.6848,-1.6067,-1.5767,0.0,0.0,0.0,0.0,0.0,0.0,0.0,0.0,0.0,0.0,0.0,0.0,0.0,0.0,0.0,-3.1025,-3.1622,-3.2008,-3.2483,-3.2545,-3.2789,-3.3306,-3.409,-3.4588,-3.4671,-3.4962,-3.519,-3.5293,-3.5293,-3.5687,-3.6618,-3.6763,-3.7177,-3.8026,-3.7863,-3.7616,-3.7482,-3.6924,-3.6542,-3.6336,-3.601,0.0,-3.5156,-3.4784,-3.4398,-3.3915,-3.3583,-3.3418,-3.3418,-3.3418,-3.3418,-3.3418,-3.3418,-3.3418,-3.3418,-3.3418,-3.3379,-3.3301,-3.3301,-3.2754,-3.2051,-3.1747,-3.1146,-3.045,-3.0157,-3.0098,0.0,-3.0098,-3.0098,-2.9922,-2.9076,-2.8002,-2.6871,-2.6007,-2.4912,-2.4039,-2.4039,-2.4039,-2.4039,-2.4039,-2.4039,-2.4039,-2.4039,-2.462,-2.5014,-2.4663,-2.428,-2.3861,-2.3512,-2.318,-2.2953,-2.2953,-2.2953,-2.2795,-2.2411,-2.2306,-2.1926,-2.109,-2.0165,-1.9278,-1.8532,-1.7966,-1.737,-1.68,-1.6712,-1.6817,-1.7026,-1.7144,-1.7287,-1.7287,-1.6652,-1.6577,0.0,0.0,0.0,0.0,0.0,0.0,0.0,0.0,0.0,0.0,0.0,-2.9132,-2.9711,0.0,-3.083,-3.1588,-3.2271,-3.2706,-3.2669,-3.2669,-3.2892,-3.3327,-3.3782,-3.4318,-3.4774,-3.4962,-3.519,-3.5397,-3.5418,-3.5728,-3.6411,-3.6453,-3.6784,-3.7467,-3.7291,-3.716,-3.6942,-3.6613,-3.6294,-3.6073,-3.5872,-3.5529,-3.5087,-3.4676,-3.4246,-3.3859,-3.3544,-3.3418,-3.3418,-3.3418,-3.3418,-3.3418,-3.3418,-3.3418,-3.3418,-3.3418,-3.3418,-3.3418,-3.3418,-3.2871,-3.2168,-3.1803,-3.0784,-2.9589,-2.9313,-2.8838,-2.8462,-2.8462,-2.8462,-2.8283,-2.7684,-2.6515,-2.5369,-2.4669,-2.3499,-2.2539,-2.2539,-2.2539,-2.2539,-2.2539,-2.2539,-2.2539,-2.2539,-2.2749,-2.3191,-2.39,-2.3657,-2.3305,-2.2936,-2.2567,-2.2265,-2.2131,-2.2114,-2.203,-2.1795,-2.161,-2.1226,-2.0579,-1.9868,-1.9252,-1.8832,-1.8318,-1.7807,-1.7387,-1.734,-1.7413,-1.7574,-1.7735,-1.78,-1.7862,-1.754,-1.7402,0.0,0.0,0.0,0.0,0.0,0.0,0.0,-3.0743,-2.9889,-3.0683,-3.0221,-2.9851,-3.0642,-3.1368,-3.1907,-3.2235,-3.2913,-3.3223,-3.2789,-3.2669,-3.2851,-3.3203,-3.3327,-3.3699,-3.4608,-3.4774,-3.4941,-3.5376,-3.5418,-3.5625,-3.608,-3.6121,-3.6328,-3.6784,-3.6804,-3.6676,-3.6418,-3.6354,-3.6099,-3.5804,-3.5651,-3.5428,-3.5136,-3.4647,-3.4235,-3.3985,-3.3544,-3.3418,-3.3418,-3.3418,-3.3418,-3.3418,-3.3418,-3.3418,-3.3418,-3.3418,-3.3418,-3.3355,-3.3355,-3.2809,-3.2046,-3.1497,-3.0162,-2.8623,-2.8224,-2.7504,-2.684,-2.684,-2.684,-2.6719,-2.6338,-2.5131,-2.3905,-2.3508,-2.2314,-2.1203,-2.1203,-2.1203,-2.1203,-2.1203,-2.1203,-2.1203,-2.1203,-2.1203,-2.1717,-2.3159,-2.3021,-2.2699,-2.2409,-2.2006,-2.1635,-2.1345,-2.1264,-2.1216,-2.1216,-2.0942,-2.0602,-2.0279,-1.984,-1.9514,-1.9269,-1.8844,-1.8503,-1.8306,-1.8306,-1.8335,-1.8394,-1.8394,-1.8423,-1.8496,-1.8496,-1.8267,-3.0934,-3.1705,-3.2965,-3.3551,-3.3493,-3.332,0.0,-3.2276,-3.144,-3.19,-3.1524,-3.1433,-3.228,-3.2483,-3.2711,-3.3161,-3.3306,-3.3223,-3.2789,-3.2669,-3.269,-3.2789,-3.3141,-3.3575,-3.4152,-3.4588,-3.4941,-3.5376,-3.5418,-3.5625,-3.608,-3.6121,-3.6328,-3.6784,-3.6804,-3.6804,-3.674,-3.6483,-3.6213,-3.6057,-3.5763,-3.5517,-3.5376,-3.4693,-3.436,-3.4298,-3.367,-3.3418,-3.3418,-3.3418,-3.3418,-3.3418,-3.3418,-3.3418,-3.3418,-3.3418,-3.3418,-3.3355,-3.3038,-3.2435,-3.1558,-3.0309,-2.913,-2.7924,-2.6978,-2.6493,-2.6189,-2.6189,-2.6189,-2.6067,-2.5439,-2.4443,-2.3508,-2.293,-2.1964,-2.1203,-2.1203,-2.1203,-2.1203,-2.1203,-2.1203,-2.1203,-2.1203,-2.1203,-2.1261,-2.1489,-2.1207,-2.0985,-2.094,-2.0407,-2.0059,-2.003,-1.9762,-1.9583,-1.9583,-1.9554,-1.9457,-1.9428,-1.9095,-1.8882,-1.8882,-1.8502,-1.8355,-1.8306,-1.8306,-1.8438,-1.873,-1.873,-1.8877,-1.9169,-1.9169,-1.9008,-3.3008,-3.342,-3.4123,-3.4511,-3.4384,-3.4073,-3.3931,-3.2881,-3.2046,-3.2651,-3.242,-3.235,-3.3012,-3.3555,-3.3803,-3.343,-3.3596,-3.3534,-3.283,-3.2669,-3.2669,-3.2669,-3.2892,-3.3182,-3.3617,-3.4152,-3.4608,-3.5004,-3.5273,-3.55,-3.5707,-3.5707,-3.579,-3.5997,-3.5997,-3.5997,-3.5997,-3.5871,-3.5768,-3.5707,-3.552,-3.5355,-3.5108,-3.461,-3.4173,-3.3796,-3.3544,-3.3418,-3.3418,-3.3418,-3.3418,-3.3418,-3.3418,-3.3418,-3.3418,-3.3418,-3.3418,-3.3355,-3.3038,-3.1979,-3.0642,-2.9733,-2.8008,-2.6233,-2.5578,-2.4903,-2.4348,-2.4348,-2.4348,-2.4286,-2.4023,-2.3369,-2.2707,-2.2468,-2.1788,-2.1203,-2.1203,-2.1203,-2.1203,-2.1203,-2.1203,-2.1203,-2.1203,-2.1203,-2.1203,-2.1203,-2.1086,-2.094,-2.075,-2.0486,-2.0179,-1.9852,-1.9529,-1.9272,-1.9272,-1.9272,-1.9272,-1.9272,-1.914,-1.9067,-1.9067,-1.895,-1.8877,-1.8877,-1.8877,-1.8935,-1.9067,-1.9067,-1.914,-1.9272,-1.9272,-1.9199,-3.464,-3.4795,-3.5014,-3.5165,-3.5021,-3.466,-3.426,-3.3281,-3.2566,-3.3078,-3.2931,-3.2851,-3.3306,-3.3986,-3.4214,-3.3492,-3.3658,-3.3617,-3.283,-3.2669,-3.2669,-3.2669,-3.2669,-3.2851,-3.3161,-3.3617,-3.4194,-3.4774,-3.5045,-3.5293,-3.5418,-3.5418,-3.5418,-3.5418,-3.5418,-3.5418,-3.5418,-3.5418,-3.5418,-3.5418,-3.5294,-3.5108,-3.4859,-3.4485,-3.3922,-3.3418,-3.3418,-3.3418,-3.3418,-3.3418,-3.3418,-3.3418,-3.3418,-3.3418,-3.3418,-3.3418,-3.3418,-3.3335,-3.2777,-3.149,-2.9927,-2.8968,-2.6996,-2.4903,-2.4471,-2.3728,-2.3106,-2.3106,-2.3106,-2.3106,-2.3106,-2.2652,-2.2184,-2.2184,-2.1686,-2.1203,-2.1203,-2.1203,-2.1203,-2.1203,-2.1203,-2.1203,-2.1203,-2.1203,-2.1203,-2.1203,-2.1203,-2.113,-2.0896,-2.0706,-2.034,-1.9749,-1.9418,-1.9272,-1.9272,-1.9272,-1.9272,-1.9272,-1.9272,-1.9272,-1.9272,-1.9272,-1.9272,-1.9272,-1.9272,-1.9272,-1.9272,-1.9272,-1.9272,-1.9272,-1.9272,-1.9272,-3.5271,-3.5697,-3.5789,-3.5604,-3.555,-3.5207,-3.4324,-3.3617,-3.3197,-3.317,-3.2955,-3.2851,-3.3306,-3.341,-3.341,-3.3389,-3.3389,-3.3244,-3.2789,-3.2669,-3.2669,-3.2669,-3.2669,-3.2747,-3.269,-3.3141,-3.3782,-3.4754,-3.4837,-3.4962,-3.5397,-3.5418,-3.5418,-3.5418,-3.5418,-3.5418,-3.5418,-3.5418,-3.5418,-3.5418,-3.5046,-3.4922,-3.4859,-3.4235,-3.3733,-3.3418,-3.3418,-3.3418,-3.3418,-3.3418,-3.3418,-3.3418,-3.3418,-3.3418,-3.3418,-3.3418,-3.3418,-3.3233,-3.218,-3.0872,-2.9457,-2.7803,-2.6072,-2.4487,-2.3852,-2.3355,-2.3106,-2.3106,-2.3106,-2.3106,-2.3106,-2.2652,-2.2184,-2.2184,-2.1686,-2.1203,-2.1203,-2.1203,-2.1203,-2.1203,-2.1203,-2.1203,-2.1203,-2.1203,-2.1203,-2.1203,-2.1203,-2.1203,-2.1203,-2.0647,-2.0003,-1.936,-1.9338,-1.9272,-1.9272,-1.9272,-1.9272,-1.9272,-1.9272,-1.9272,-1.9272,-1.9272,-1.9272,-1.9272,-1.9272,-1.9272,-1.9272,-1.9272,-1.9272,-1.9272,-1.9272,-1.9272,-3.5707,-3.6015,-3.6141,-3.6048,-3.5451,-3.4692,-3.4173,-3.3415,-3.2859,-3.2877,-3.2784,-3.2851,-3.3306,-3.3368,-3.3368,-3.3368,-3.3368,-3.3223,-3.2789,-3.2669,-3.2669,-3.2669,-3.2669,-3.2669,-3.2669,-3.312,-3.3637,-3.4318,-3.465,-3.4962,-3.5397,-3.5418,-3.5418,-3.5418,-3.5418,-3.5418,-3.5418,-3.5418,-3.5294,-3.5046,-3.4485,-3.4235,-3.4235,-3.3796,-3.3481,-3.3418,-3.3418,-3.3418,-3.3418,-3.3418,-3.3418,-3.3418,-3.3418,-3.3418,-3.3335,-3.2855,-3.2695,-3.2614,-3.2022,-3.0233,-2.8174,-2.7204,-2.5357,-2.3542,-2.3355,-2.3168,-2.3106,-2.3106,-2.3106,-2.3106,-2.3106,-2.2652,-2.2184,-2.2184,-2.1686,-2.1203,-2.1203,-2.1203,-2.1203,-2.1203,-2.1203,-2.1203,-2.1203,-2.1203,-2.1203,-2.1203,-2.1203,-2.1203,-2.1203,-2.0823,-2.0398,-1.9959,-1.9725,-1.9558,-1.9301,-1.9272,-1.9272,-1.9272,-1.9272,-1.9272,-1.9272,-1.9272,-1.9272,-1.9272,-1.9272,-1.9272,-1.9272,-1.9272,-1.9272,-1.9272,-1.9272,-1.9272,-3.6673,-3.6873,-3.6898,-3.6777,-3.5925,-3.4969,-3.4469,-3.3649,-3.297,-3.269,-3.241,-3.2333,-3.2602,-3.2664,-3.2706,-3.2871,-3.3037,-3.3037,-3.2711,-3.2669,-3.2669,-3.2669,-3.2669,-3.2669,-3.2669,-3.2975,-3.341,-3.4031,-3.4401,-3.4776,-3.5397,-3.5418,-3.5418,-3.5418,-3.5418,-3.5418,-3.5418,-3.5294,-3.4984,-3.4548,-3.411,-3.3859,-3.3733,-3.3481,-3.3418,-3.3418,-3.3418,-3.3418,-3.3418,-3.3418,-3.3418,-3.3418,-3.3418,-3.332,-3.3101,-3.2517,-3.1918,-3.1342,-3.1219,-2.9737,-2.7675,-2.6879,-2.52,-2.3417,-2.3293,-2.3168,-2.3106,-2.3106,-2.3106,-2.3106,-2.3106,-2.2652,-2.2184,-2.2184,-2.1686,-2.1203,-2.1203,-2.1203,-2.1203,-2.1203,-2.1203,-2.1203,-2.1203,-2.1203,-2.1203,-2.1203,-2.1203,-2.1174,-2.1057,-2.0852,-2.0559,-2.012,-1.9886,-1.9676,-1.9301,-1.9272,-1.9272,-1.9272,-1.9272,-1.9272,-1.9272,-1.9272,-1.9272,-1.9272,-1.9272,-1.9272,-1.9272,-1.9272,-1.9272,-1.9272,-1.9272,-1.9272,-3.8091,-3.8259,-3.8072,-3.7748,-3.6989,-3.6068,-3.519,-3.4302,-3.3409,-3.2664,-3.1829,-3.1278,-3.1298,-3.1298,-3.1443,-3.1919,-3.2339,-3.2649,-3.2727,-3.2669,-3.2747,-3.2711,-3.2768,-3.2768,-3.2789,-3.2768,-3.3141,-3.409,-3.4132,-3.4465,-3.5376,-3.5418,-3.5418,-3.5418,-3.5418,-3.5418,-3.5418,-3.5046,-3.4548,-3.3922,-3.3859,-3.3733,-3.3418,-3.3418,-3.3418,-3.3418,-3.3418,-3.3418,-3.3418,-3.3418,-3.3418,-3.3418,-3.3398,-3.3144,-3.2731,-3.2382,-3.1087,-2.9586,-2.9925,-2.9179,-2.7948,-2.6854,-2.5456,-2.41,-2.3728,-2.3417,-2.3106,-2.3106,-2.3106,-2.3106,-2.3106,-2.2652,-2.2184,-2.2184,-2.1686,-2.1203,-2.1203,-2.1203,-2.1203,-2.1203,-2.1203,-2.1203,-2.1203,-2.1203,-2.1203,-2.1203,-2.1203,-2.1101,-2.0794,-2.075,-2.0501,-1.994,-1.9867,-1.972,-1.9382,-1.9316,-1.9316,-1.9353,-1.9316,-1.933,-1.933,-1.9301,-1.9353,-1.9353,-1.9286,-1.9272,-1.9272,-1.9338,-1.9353,-1.9353,-1.9316,-1.933,-3.8693,-3.9317,-3.971,-3.9019,-3.8185,-3.7311,-3.6696,-3.5119,-3.354,-3.2792,-3.1148,-2.9932,-3.0284,-3.0056,-3.0201,-3.136,-3.1919,-3.2277,-3.2628,-3.2669,-3.2851,-3.3182,-3.3223,-3.3348,-3.3699,-3.341,-3.3596,-3.4567,-3.4318,-3.4465,-3.5376,-3.5418,-3.5418,-3.5418,-3.5418,-3.5418,-3.5418,-3.4797,-3.4298,-3.3922,-3.367,-3.3481,-3.3418,-3.3418,-3.3418,-3.3418,-3.3418,-3.3418,-3.3418,-3.3418,-3.3418,-3.3398,-3.3086,-3.2891,-3.2653,-3.1462,-3.0293,-2.9143,-2.8691,-2.7963,-2.7263,-2.6995,-2.5928,-2.4764,-2.4487,-2.3728,-2.3106,-2.3106,-2.3106,-2.3106,-2.3106,-2.2652,-2.2184,-2.2184,-2.1686,-2.1203,-2.1203,-2.1203,-2.1203,-2.1203,-2.1203,-2.1203,-2.1203,-2.1203,-2.1203,-2.1203,-2.1203,-2.1174,-2.1101,-2.1086,-2.0925,-2.0516,-2.0472,-2.0252,-1.9735,-1.9857,-1.9886,-1.9705,-1.9857,-1.9989,-1.9989,-1.9769,-1.9691,-1.9691,-1.9456,-1.9272,-1.9272,-1.9573,-1.9691,-1.9705,-1.9886,-1.9989,-3.9521,-4.0049,-4.0345,-3.981,-3.896,-3.806,-3.7186,-3.539,-3.3501,-3.2232,-3.0215,-2.8773,-2.9042,-2.8876,-2.9145,-3.0553,-3.1319,-3.1899,-3.2297,-3.2768,-3.3099,-3.3348,-3.3555,-3.3782,-3.4051,-3.3844,-3.4049,-3.4754,-3.4401,-3.4465,-3.5376,-3.5418,-3.5418,-3.5418,-3.5418,-3.5232,-3.4984,-3.461,-3.4173,-3.367,-3.3481,-3.3418,-3.3418,-3.3418,-3.3418,-3.3418,-3.3418,-3.332,-3.3144,-3.3144,-3.3047,-3.2851,-3.2617,-3.2402,-3.2107,-3.1019,-2.9573,-2.8104,-2.7712,-2.6961,-2.6233,-2.6476,-2.5989,-2.5194,-2.4595,-2.379,-2.3106,-2.3106,-2.3106,-2.3106,-2.3106,-2.274,-2.2374,-2.2374,-2.1993,-2.1598,-2.1452,-2.1423,-2.1379,-2.1233,-2.1203,-2.1203,-2.1203,-2.1203,-2.1203,-2.1203,-2.1203,-2.1203,-2.1203,-2.1203,-2.1086,-2.0764,-2.072,-2.0457,-1.9867,-2.0062,-2.0106,-1.9837,-2.0062,-2.0183,-2.0183,-2.0062,-1.9901,-1.9823,-1.9725,-1.9623,-1.9544,-1.9813,-1.9974,-1.9974,-2.015,-2.0183,-4.0526,-4.0626,-4.0548,-4.0209,-3.9501,-3.8491,-3.7152,-3.5294,-3.3234,-3.1318,-2.9174,-2.7655,-2.7655,-2.7696,-2.8173,-2.9497,-3.0553,-3.1381,-3.1822,-3.2727,-3.3327,-3.3451,-3.3945,-3.4235,-3.4238,-3.4196,-3.4401,-3.4817,-3.4484,-3.4527,-3.5376,-3.5418,-3.5418,-3.5418,-3.5418,-3.5108,-3.4423,-3.4423,-3.4047,-3.3418,-3.3418,-3.3418,-3.3418,-3.3418,-3.3418,-3.3418,-3.3418,-3.3184,-3.2793,-3.2793,-3.2559,-3.2168,-3.2109,-3.1855,-3.1385,-3.073,-2.907,-2.7142,-2.7021,-2.6172,-2.5256,-2.5823,-2.5823,-2.5394,-2.4409,-2.3666,-2.3106,-2.3106,-2.3106,-2.3106,-2.3106,-2.2871,-2.2623,-2.2623,-2.2403,-2.2111,-2.1818,-2.173,-2.1598,-2.1276,-2.1203,-2.1203,-2.1203,-2.1203,-2.1203,-2.1203,-2.1203,-2.1203,-2.1203,-2.1203,-2.1101,-2.0823,-2.0794,-2.0545,-1.9945,-2.0179,-2.0237,-1.9969,-2.0194,-2.0314,-2.0314,-2.027,-2.0164,-1.9901,-2.012,-2.0106,-1.9828,-2.015,-2.0241,-2.0241,-2.0285,-2.0314,-4.1304,-4.115,-4.1025,-4.0573,-3.9644,-3.8615,-3.7489,-3.4954,0.0,-3.0839,-2.8244,-2.6227,-2.6227,-2.6537,-2.7138,-2.8131,-2.9373,-3.0532,-3.1381,-3.2271,-3.312,0.0,-3.4422,-3.4776,-3.5148,-3.4859,-3.4817,-3.5273,-3.49,-3.4879,-3.5397,-3.5418,-3.5418,-3.5418,-3.5418,-3.5108,-3.4423,-3.4423,-3.4047,-3.3418,-3.3418,-3.3418,-3.3418,-3.3418,-3.3418,-3.3418,-3.3418,-3.3184,-3.2793,-3.2793,-3.2559,-3.2129,-3.1777,-3.1582,-3.1346,-3.0405,-2.9071,-2.7744,-2.7159,-2.6371,-2.5517,-2.5639,-2.5456,-2.5071,-2.4656,-2.3852,-2.3106,-2.3106,-2.3106,-2.3106,-2.3106,-2.2871,-2.2623,-2.2623,-2.2403,-2.2169,-2.2111,-2.1891,-2.1598,-2.1276,-2.1203,-2.1203,-2.1203,-2.1203,-2.1203,-2.1203,-2.1203,-2.1203,-2.1203,-2.1203,-2.1189,-2.113,-2.113,-2.0969,-2.0589,-2.0852,-2.0896,-2.0574,-2.0867,-2.1042,-2.1042,-2.0779,-2.0618,-2.0559,-2.034,-2.0154,-2.015,-2.0486,-2.0633,-2.0647,-2.0911,-2.1042,-4.1831,-4.1555,-4.1225,-4.0949,-3.9898,-3.8542,-3.7196,0.0,0.0,-3.001,-2.7232,-2.5254,-2.5502,-2.5523,-2.5958,-2.7345,-2.8524,-2.9684,-3.0864,-3.2209,-3.3306,-3.4049,-3.4672,-3.519,-3.5397,-3.5231,-3.519,-3.5397,-3.5231,-3.519,-3.5418,-3.5418,-3.5418,-3.5418,-3.5418,-3.5108,-3.4423,-3.4423,-3.4047,-3.3418,-3.3418,-3.3418,-3.3418,-3.3418,-3.3418,-3.3418,-3.3418,-3.3066,-3.248,-3.248,-3.209,-3.1484,-3.1269,-3.1191,-3.1093,-3.041,-2.9431,-2.8385,-2.7744,-2.6537,-2.5317,-2.5149,-2.4964,-2.4718,-2.4224,-2.3604,-2.3106,-2.3106,-2.3106,-2.3106,-2.3106,-2.2988,-2.2871,-2.2871,-2.2637,-2.2374,-2.2213,-2.1935,-2.1598,-2.1276,-2.1203,-2.1203,-2.1203,-2.1203,-2.1203,-2.1203,-2.1203,-2.1203,-2.1203,-2.1203,-2.1203,-2.1203,-2.1203,-2.1072,-2.075,-2.1028,-2.1072,-2.075,-2.1028,-2.1203,-2.1203,-2.1057,-2.0896,-2.072,-2.0735,-2.0662,-2.0431,-2.0823,-2.0969,-2.0984,-2.113,-2.1203,-4.2238,-4.1756,-4.1225,-4.1,-3.9747,-3.8091,-3.6356,-3.3576,0.0,-2.8788,-2.6195,-2.4321,-2.4693,-2.4528,-2.4902,-2.6434,-2.7531,-2.8669,-3.0036,-3.1795,-3.3182,-3.3844,-3.4734,-3.5314,-3.5418,-3.5418,-3.5418,-3.5418,-3.5418,-3.5418,-3.5418,-3.5418,-3.5418,-3.5418,-3.5418,-3.5108,-3.4423,-3.4423,-3.4047,-3.3418,-3.3418,-3.3418,-3.3418,-3.3418,-3.3418,-3.3418,-3.3418,-3.2949,-3.2229,-3.2229,-3.166,-3.0898,-3.0898,-3.0898,-3.084,-3.0509,-2.9844,-2.8998,-2.8343,-2.6961,-2.5439,-2.4964,-2.4548,-2.4177,-2.3666,-2.3293,-2.3106,-2.3106,-2.3106,-2.3106,-2.3106,-2.3106,-2.3091,-2.3018,-2.2813,-2.252,-2.2154,-2.1876,-2.1598,-2.1276,-2.1203,-2.1203,-2.1203,-2.1203,-2.1203,-2.1203,-2.1203,-2.1203,-2.1203,-2.1203,-2.1203,-2.1203,-2.1203,-2.1101,-2.0852,-2.1057,-2.1101,-2.0837,-2.1072,-2.1203,-2.1203,-2.1203,-2.1086,-2.0837,-2.1086,-2.1086,-2.0823,-2.1086,-2.1203,-2.1203,-2.1203,-2.1203,-4.2338,-4.1756,-4.105,-4.0099,-3.8592,-3.6814,-3.4749,0.0,-2.8737,-2.7118,-2.4945,-2.3329,-2.337,-2.3681,-2.4136,-2.4652,-2.5896,-2.7241,-2.8607,-3.0387,-3.2023,-3.3285,0.0,-3.4983,-3.5376,-3.5418,-3.5418,-3.5418,-3.5418,-3.5418,-3.5418,-3.5418,-3.5418,-3.5418,-3.5418,-3.5108,-3.4423,-3.4423,-3.4047,-3.3418,-3.3418,-3.3418,-3.3418,-3.3418,-3.3418,-3.3418,-3.3418,-3.2949,-3.2229,-3.2229,-3.166,-3.0898,-3.0898,-3.0898,-3.084,-3.0509,-3.0157,-2.9686,-2.8778,-2.7744,-2.6658,-2.5806,-2.4471,-2.323,-2.3168,-2.3106,-2.3106,-2.3106,-2.3106,-2.3106,-2.3106,-2.3106,-2.3032,-2.274,-2.2637,-2.2462,-2.1876,-2.1715,-2.1598,-2.1276,-2.1203,-2.1203,-2.1203,-2.1203,-2.1203,-2.1203,-2.1203,-2.1203,-2.1203,-2.1203,-2.1203,-2.1203,-2.1203,-2.1203,-2.1174,-2.1189,-2.1203,-2.1159,-2.1189,-2.1203,-2.1203,-2.1203,-2.1203,-2.1159,-2.1189,-2.1189,-2.1159,-2.1189,-2.1203,-2.1203,-2.1203,-2.1203,-4.1731,-4.1505,-4.1025,-3.9973,-3.8442,-3.6664,-3.4552,-3.142,-2.8484,-2.6915,-2.4535,-2.2853,-2.3143,-2.3101,-2.337,-2.4342,-2.544,-2.6641,-2.8007,-2.9787,-3.1257,-3.2085,-3.3261,-3.3989,-3.4176,-3.4693,-3.5128,-3.5397,-3.5418,-3.5418,-3.5418,-3.5418,-3.5418,-3.5418,-3.5418,-3.5108,-3.4423,-3.4423,-3.4047,-3.3418,-3.3418,-3.3281,-3.3047,-3.3047,-3.291,-3.2676,-3.2676,-3.2324,-3.1777,-3.1777,-3.1426,-3.0898,-3.0898,-3.0898,-3.0898,-3.0762,-3.0645,-3.0411,-2.9863,-2.8998,-2.8026,-2.7246,-2.5806,-2.4209,-2.3604,-2.323,-2.3106,-2.3106,-2.3106,-2.3106,-2.3106,-2.3106,-2.3076,-2.2945,-2.2915,-2.274,-2.2125,-2.1993,-2.1832,-2.1306,-2.1203,-2.1203,-2.1203,-2.1203,-2.1203,-2.1203,-2.1203,-2.1203,-2.1203,-2.1203,-2.1203,-2.1203,-2.1203,-2.1203,-2.1203,-2.1203,-2.1203,-2.1203,-2.1203,-2.1203,-2.1203,-2.1203,-2.1203,-2.1203,-2.1203,-2.1203,-2.1203,-2.1203,-2.1203,-2.1203,-2.1203,-2.1203,-4.0902,-4.105,-4.0949,-3.9546,-3.8065,-3.6363,-3.4107,-3.0922,-2.8045,-2.6486,-2.4122,-2.2397,-2.2729,-2.2522,-2.2708,-2.3908,-2.4778,-2.5771,-2.7138,-2.8794,-3.0098,-3.0698,-3.1961,-3.2892,-3.3161,-3.4134,-3.4941,-3.5376,-3.5418,-3.5418,-3.5418,-3.5418,-3.5418,-3.5418,-3.5418,-3.5108,-3.4423,-3.4423,-3.4047,-3.3418,-3.3418,-3.3203,-3.2793,-3.2793,-3.2559,-3.2229,-3.2229,-3.1914,-3.1523,-3.1523,-3.1269,-3.0898,-3.0898,-3.0898,-3.0898,-3.0898,-3.0898,-3.082,-3.0509,-2.9844,-2.9057,-2.8403,-2.69,-2.5194,-2.4286,-2.3604,-2.3106,-2.3106,-2.3106,-2.3106,-2.3106,-2.3106,-2.3091,-2.2988,-2.2959,-2.2798,-2.2169,-2.2037,-2.1876,-2.132,-2.1203,-2.1203,-2.1203,-2.1203,-2.1203,-2.1203,-2.1203,-2.1203,-2.1203,-2.1203,-2.1203,-2.1203,-2.1203,-2.1203,-2.1203,-2.1203,-2.1203,-2.1203,-2.1203,-2.1203,-2.1203,-2.1203,-2.1203,-2.1203,-2.1203,-2.1203,-2.1203,-2.1203,-2.1203,-2.1203,-2.1203,-2.1203,-3.9848,-4.0501,-4.0749,-3.8592,-3.7186,-3.5687,-3.3044,-2.9822,-2.7007,-2.5509,-2.341,-2.1818,-2.1818,-2.1818,-2.2128,-2.3039,-2.3598,-2.4406,-2.5709,-2.7076,-2.8297,-2.9208,-3.0553,-3.1754,-3.2587,-3.3969,-3.4941,-3.5376,-3.5418,-3.5418,-3.5418,-3.5418,-3.5418,-3.5418,-3.5418,-3.5108,-3.4423,-3.4423,-3.4047,-3.3418,-3.3418,-3.3203,-3.2793,-3.2793,-3.2559,-3.2229,-3.2229,-3.1914,-3.1523,-3.1523,-3.1269,-3.0898,-3.0898,-3.0898,-3.0898,-3.0898,-3.0898,-3.082,-3.0509,-3.0157,-2.9745,-2.8778,-2.7383,-2.5867,-2.5256,-2.4162,-2.3106,-2.3106,-2.3106,-2.3106,-2.3106,-2.3106,-2.3032,-2.2696,-2.2623,-2.2462,-2.1832,-2.1701,-2.1598,-2.1276,-2.1203,-2.1203,-2.1203,-2.1203,-2.1203,-2.1203,-2.1203,-2.1203,-2.1203,-2.1203,-2.1203,-2.1203,-2.1203,-2.1203,-2.1203,-2.1203,-2.1203,-2.1203,-2.1203,-2.1203,-2.1203,-2.1203,-2.1203,-2.1203,-2.1203,-2.1203,-2.1203,-2.1203,-2.1203,-2.1203,-2.1203,-2.1203,-3.804,-3.8793,-3.922,-3.7337,-3.6056,-3.466,-3.2377,-2.9272,-2.653,-2.5418,-2.3388,-2.1797,-2.1797,-2.1797,-2.2108,-2.3039,-2.3577,-2.4386,-2.5689,-2.7055,-2.8152,-2.8752,-3.0346,-3.1981,-3.3492,-3.4031,-3.461,-3.5376,-3.5418,-3.5418,-3.5418,-3.5418,-3.5273,-3.4983,-3.4962,-3.4513,-3.3518,-3.3518,-3.3233,-3.2559,-3.2559,-3.2344,-3.1914,-3.1914,-3.1699,-3.1289,-3.1289,-3.1211,-3.1094,-3.1094,-3.1016,-3.0898,-3.0898,-3.0898,-3.0898,-3.0898,-3.0898,-3.0898,-3.0762,-3.0645,-3.047,-2.9686,-2.8164,-2.6598,-2.6006,-2.4533,-2.3106,-2.3106,-2.3106,-2.3106,-2.3106,-2.3106,-2.3091,-2.2974,-2.2959,-2.2784,-2.2169,-2.2023,-2.1862,-2.132,-2.1203,-2.1203,-2.1203,-2.1203,-2.1203,-2.1203,-2.1203,-2.1203,-2.1203,-2.1203,-2.1203,-2.1203,-2.1203,-2.1203,-2.1203,-2.1203,-2.1203,-2.1203,-2.1203,-2.1203,-2.1203,-2.1203,-2.1203,-2.1203,-2.1203,-2.1203,-2.1203,-2.1203,-2.1203,-2.1203,-2.1203,-2.1203,-3.6081,-3.7236,-3.7839,-3.6157,-3.5077,-3.384,-3.1783,-2.8848,-2.6345,-2.5396,-2.3388,-2.1797,-2.1797,-2.1797,-2.2108,-2.3039,-2.3432,-2.4095,-2.544,-2.6806,-2.811,-2.927,-3.0719,-3.2209,-3.3658,-3.4194,-3.4569,-3.5128,-3.5169,-3.5086,-3.4921,-3.4921,-3.4653,-3.4118,-3.4448,-3.4105,-3.3115,-3.2995,-3.2693,-3.2229,-3.2229,-3.1934,-3.1523,-3.1523,-3.1289,-3.0898,-3.0898,-3.0898,0.0,-3.0898,-3.0898,-3.0898,-3.0898,-3.0898,-3.0898,-3.0898,-3.0898,-3.0898,-3.0898,-3.0898,-3.0782,-3.0098,-2.8421,-2.6415,-2.5333,-2.41,-2.3106,-2.3106,-2.3106,-2.3106,-2.3106,-2.3106,-2.3106,-2.3106,-2.3106,-2.2945,-2.2315,-2.2184,-2.1993,-2.1335,-2.1203,-2.1203,-2.1203,-2.1203,-2.1203,-2.1203,-2.1203,-2.1203,-2.1203,-2.1203,-2.1203,-2.1203,-2.1203,-2.1203,-2.1203,-2.1203,-2.1203,-2.1203,-2.1203,-2.1203,-2.1203,-2.1203,-2.1203,-2.1203,-2.1203,-2.1203,-2.1203,-2.1203,-2.1203,-2.1203,-2.1203,-2.1203,0.0,-3.5655,-3.6558,-3.4906,-3.4129,-3.3214,-3.1132,-2.8521,0.0,-2.5357,-2.3349,-2.1797,-2.1797,-2.1838,-2.2149,-2.3039,-2.3246,-2.3764,-2.5086,-2.6558,-2.8325,-3.0512,-3.1547,-3.2437,-3.3348,-3.4297,-3.4816,-3.4816,-3.4816,-3.4629,-3.4152,-3.4072,-3.3747,-3.2921,-3.3738,-3.376,-3.2955,-3.2734,-3.2433,-3.2131,-3.2131,-3.1855,-3.1465,-3.1465,-3.1269,-3.0898,-3.0898,-3.0898,-3.0898,-3.0898,-3.0898,-3.0898,-3.0898,-3.0898,-3.0898,-3.0898,-3.0898,-3.0898,-3.0898,-3.0898,-3.0782,-2.9981,-2.8062,-2.57,-2.3728,-2.3106,-2.3106,-2.3106,-2.3106,-2.3106,-2.3106,-2.3106,-2.3106,-2.3106,-2.3106,-2.2945,-2.2315,-2.2184,-2.1993,-2.1335,-2.1203,-2.1203,-2.1203,-2.1203,-2.1203,-2.1203,-2.1203,-2.1203,-2.1203,-2.1203,-2.1203,-2.1203,-2.1203,-2.1203,-2.1203,-2.1203,-2.1203,-2.1203,-2.1203,-2.1203,-2.1203,-2.1203,-2.1203,-2.1203,-2.1203,-2.1203,-2.1203,-2.1203,-2.1203,-2.1203,-2.1203,-2.1203,-3.1361,0.0,-3.4329,-3.2928,-3.2461,-3.1826,0.0,-2.7535,-2.5552,-2.482,-2.3139,-2.1797,-2.1797,-2.2087,-2.2522,-2.3101,-2.3764,-2.4695,-2.6061,-2.8048,-2.9953,-3.1526,-3.2173,-3.2913,-3.3824,-3.4484,-3.4816,-3.4816,-3.4816,-3.4629,-3.4152,-3.3893,-3.3489,-3.2921,-3.2653,-3.2256,-3.1759,-3.1642,-3.1466,-3.1191,-3.1191,-3.1133,-3.1035,-3.1035,-3.0976,-3.0898,-3.0898,-3.0898,-3.0898,-3.0898,-3.0898,-3.0898,-3.0898,-3.0898,-3.0898,-3.0898,-3.0898,-3.0898,-3.0898,-3.0898,-3.0528,-2.8385,-2.6944,-2.57,-2.3728,-2.3106,-2.3106,-2.3106,-2.3106,-2.3106,-2.3106,-2.3106,-2.3106,-2.3106,-2.3106,-2.2945,-2.2315,-2.2184,-2.1993,-2.1335,-2.1203,-2.1203,-2.1203,-2.1203,-2.1203,-2.1203,-2.1203,-2.1203,-2.1203,-2.1203,-2.1203,-2.1203,-2.1203,-2.1203,-2.1203,-2.1203,-2.1203,-2.1203,-2.1203,-2.1203,-2.1203,-2.1203,-2.1203,-2.1203,-2.1203,-2.1203,-2.1203,-2.1203,-2.1203,-2.1203,-2.1203,-2.1203,-2.9563,-3.1179,-3.2499,-3.144,-3.0968,-3.0301,-2.8521,-2.6378,-2.4575,-2.4132,-2.2875,-2.188,-2.2087,-2.2335,-2.2791,-2.366,-2.4177,-2.5228,-2.7318,-2.9147,-3.0768,-3.202,-3.2876,-3.3534,-3.4031,-3.4672,-3.4879,-3.4526,-3.4505,-3.4155,-3.3296,-3.31,-3.2743,-3.2208,-3.1857,-3.1562,-3.1325,-3.117,-3.1054,-3.0898,-3.0898,-3.0898,-3.0898,-3.0898,-3.0898,-3.0898,-3.0898,-3.0898,-3.0898,-3.0898,-3.0898,-3.0898,-3.0898,-3.0898,-3.0898,-3.0898,-3.0898,-3.0898,-3.0898,-3.0704,-3.0039,-2.7727,-2.6598,-2.57,-2.3728,-2.3106,-2.3106,-2.3106,-2.3106,-2.3106,-2.3106,-2.3106,-2.3076,-2.2915,-2.2886,-2.271,-2.2096,-2.1964,-2.1818,-2.1306,-2.1203,-2.1203,-2.1203,-2.1203,-2.1203,-2.1203,-2.1203,-2.1203,-2.1203,-2.1203,-2.1203,-2.1203,-2.1203,-2.1203,-2.1203,-2.1203,-2.1203,-2.1203,-2.1203,-2.1203,-2.1203,-2.1203,-2.1203,-2.1203,-2.1203,-2.1203,-2.1203,-2.1203,-2.1203,-2.1203,-2.1203,-2.1203,-2.8462,-2.9745,-3.0792,-3.0242,-2.9724,-2.8978,-2.7441,0.0,0.0,0.0,0.0,-2.2149,-2.2522,-2.2708,-2.3184,-2.4321,-2.4776,-2.5966,-2.8697,-3.0084,-3.1223,-3.2219,-3.3334,-3.3969,-3.3969,-3.4797,-3.4941,-3.409,-3.409,-3.354,-3.2367,-3.2248,-3.196,-3.1325,-3.1267,-3.1208,-3.1208,-3.0995,-3.0898,-3.0898,-3.0898,-3.0898,-3.0898,-3.0898,-3.0898,-3.0898,-3.0898,-3.0898,-3.0898,-3.0898,-3.0898,-3.0898,-3.0898,-3.0898,-3.0898,-3.0898,-3.0898,-3.0898,-3.0898,-3.047,-2.9568,-2.7624,-2.6598,-2.57,-2.3728,-2.3106,-2.3106,-2.3106,-2.3106,-2.3106,-2.3106,-2.3106,-2.3047,-2.2769,-2.2696,-2.252,-2.1906,-2.1774,-2.1657,-2.1276,-2.1203,-2.1203,-2.1203,-2.1203,-2.1203,-2.1203,-2.1203,-2.1203,-2.1203,-2.1203,-2.1203,-2.1203,-2.1203,-2.1203,-2.1203,-2.1203,-2.1203,-2.1203,-2.1203,-2.1203,-2.1203,-2.1203,-2.1203,-2.1203,-2.1203,-2.1203,-2.1203,-2.1203,-2.1203,-2.1203,-2.1203,-2.1203,-2.8363,-2.867,-2.8827,-2.9073,-2.9273,-2.8996,-2.7324,-2.5725,0.0,0.0,0.0,-2.2998,-2.306,-2.3701,-2.4259,-2.4466,-2.6098,-2.8082,-3.0128,-3.0926,-3.1629,-3.2545,-3.3182,-3.3492,-3.3492,-3.438,-3.4546,-3.3555,-3.3903,-3.354,-3.2367,-3.2018,-3.1672,-3.1325,-3.1054,-3.0937,-3.0937,-3.0937,-3.0898,-3.0898,-3.0898,-3.0898,-3.0898,-3.0898,-3.0898,-3.0898,-3.0898,-3.0898,-3.0898,-3.0898,-3.0898,-3.0898,-3.0898,-3.0898,-3.0898,-3.0898,-3.0898,-3.0898,-3.0898,-3.047,-2.9568,-2.7649,-2.6581,-2.57,-2.3728,-2.3106,-2.3106,-2.3106,-2.3106,-2.3106,-2.3106,-2.3106,-2.3091,-2.3047,-2.3032,-2.2857,-2.2242,-2.2111,-2.1935,-2.132,-2.1203,-2.1203,-2.1203,-2.1203,-2.1203,-2.1203,-2.1203,-2.1203,-2.1203,-2.1203,-2.1203,-2.1203,-2.1203,-2.1203,-2.1203,-2.1203,-2.1203,-2.1203,-2.1203,-2.1203,-2.1203,-2.1203,-2.1203,-2.1203,-2.1203,-2.1203,-2.1203,-2.1203,-2.1203,-2.1203,-2.1203,-2.1203,-2.7334,-2.7531,-2.7615,-2.7778,-2.8054,-2.7957,-2.6779,-2.5379,-2.4261,-2.4075,-2.3597,-2.3329,-2.3826,-2.4425,-2.5272,-2.6537,-2.8028,-2.9467,-3.0627,-3.1333,-3.1926,-3.2416,-3.3062,-3.3368,-3.3368,-3.4049,-3.4173,-3.343,-3.3575,-3.3235,-3.2116,-3.1903,-3.1556,-3.1112,-3.0937,-3.0898,-3.0898,-3.0898,-3.0898,-3.0898,-3.0898,-3.0898,-3.0898,-3.0898,-3.0898,-3.0898,-3.0898,-3.0898,-3.0898,-3.0898,-3.0898,-3.0898,-3.0898,-3.0898,-3.0898,-3.0898,-3.0898,-3.0898,-3.0898,-3.047,-2.9568,-2.7607,-2.6598,-2.57,-2.3728,-2.3106,-2.3106,-2.3106,-2.3106,-2.3106,-2.3106,-2.3106,-2.3062,-2.2886,-2.2842,-2.2681,-2.2052,-2.192,-2.1774,-2.1306,-2.1203,-2.1203,-2.1203,-2.1203,-2.1203,-2.1203,-2.1203,-2.1203,-2.1203,-2.1203,-2.1203,-2.1203,-2.1203,-2.1203,-2.1203,-2.1203,-2.1203,-2.1203,-2.1203,-2.1203,-2.1203,-2.1203,-2.1203,-2.1203,-2.1203,-2.1203,-2.1203,-2.1203,-2.1203,-2.1203,-2.1203,-2.1203,-2.6256,-2.6294,-2.6394,-2.6548,-2.6801,-2.6911,-2.6345,-2.5188,-2.4219,-2.4365,-2.4074,-2.4033,-2.4673,-2.5272,-2.6392,-2.8442,-2.9456,-3.0293,-3.1086,-3.1649,-3.2097,-3.2379,-3.2901,-3.3223,-3.3223,-3.3637,-3.372,-3.3265,-3.3269,-3.2834,-3.1865,-3.173,-3.1441,-3.0898,-3.0898,-3.0898,-3.0898,-3.0898,-3.0898,-3.0898,-3.0898,-3.0898,-3.0898,-3.0898,-3.0898,-3.0898,-3.0898,-3.0898,-3.0898,-3.0898,-3.0898,-3.0898,-3.0898,-3.0898,-3.0898,-3.0898,-3.0898,-3.0898,-3.0898,-3.047,-2.9568,-2.7624,-2.6598,-2.57,-2.3728,-2.3106,-2.3106,-2.3106,-2.3106,-2.3106,-2.3106,-2.3106,-2.3047,-2.2798,-2.274,-2.2593,-2.2037,-2.192,-2.1818,-2.1496,-2.1437,-2.1408,-2.1335,-2.1393,-2.1408,-2.1335,-2.1393,-2.1437,-2.1437,-2.1379,-2.132,-2.132,-2.1262,-2.1203,-2.1203,-2.1203,-2.1203,-2.1203,-2.1203,-2.1203,-2.1203,-2.1203,-2.1203,-2.1203,-2.1203,-2.1203,-2.1203,-2.1203,-2.1203,-2.1203,-2.1203,-2.1203,-2.5678,-2.5036,-2.4683,-2.5416,-2.5979,-2.6346,-2.6288,-2.5704,-2.5254,-2.5647,-2.5709,-2.5709,-2.5771,-2.6563,-2.7641,-2.9021,-2.9663,-3.047,-3.174,-3.1967,-3.2153,-3.2628,-3.2711,-3.2768,-3.2768,-3.3161,-3.3244,-3.2809,-3.2851,-3.2601,-3.1808,-3.1498,-3.1228,-3.0898,-3.0898,-3.0898,-3.0898,-3.0898,-3.0898,-3.0898,-3.0898,-3.0898,-3.0898,-3.0898,-3.0898,-3.0898,-3.0898,-3.0898,-3.0898,-3.0898,-3.0898,-3.0898,-3.0898,-3.0898,-3.0898,-3.0898,-3.0898,-3.0898,-3.0898,-3.047,-2.9568,-2.7624,-2.6598,-2.57,-2.3728,-2.3106,-2.3106,-2.3106,-2.3106,-2.3106,-2.3106,-2.3106,-2.3106,-2.3076,-2.3076,-2.2974,-2.2637,-2.255,-2.2462,-2.2169,-2.2111,-2.2023,-2.1715,-2.1906,-2.2008,-2.1715,-2.192,-2.2111,-2.2111,-2.1847,-2.1657,-2.1657,-2.1393,-2.1203,-2.1203,-2.1203,-2.1203,-2.1203,-2.1203,-2.1203,-2.1203,-2.1203,-2.1203,-2.1203,-2.1203,-2.1203,-2.1203,-2.1203,-2.1203,-2.1203,-2.1203,-2.1203,-2.5113,-2.4346,-2.3888,-2.4551,-2.4957,-2.5396,-2.6309,-2.6277,-2.6185,-2.6687,-2.6791,-2.6874,-2.7096,-2.7676,-2.8545,-2.9932,-3.0553,-3.1182,-3.2087,-3.2344,-3.2427,-3.2477,-3.2612,-3.2612,-3.2498,-3.2642,-3.2547,-3.2153,-3.218,-3.2027,-3.1518,-3.1383,-3.117,-3.0898,-3.0898,-3.0898,-3.0898,-3.0898,-3.0898,-3.0898,-3.0898,-3.0898,-3.0898,-3.0898,-3.0898,-3.0898,-3.0898,-3.0898,-3.0898,-3.0898,-3.0898,-3.0898,-3.0898,-3.0898,-3.0898,-3.0898,-3.0898,-3.0898,-3.0898,-3.047,-2.9568,-2.7607,-2.6598,-2.57,-2.3728,-2.3106,-2.3106,-2.3106,-2.3106,-2.3106,-2.3106,-2.3106,-2.3106,-2.3106,-2.3106,-2.3018,-2.2696,-2.2623,-2.2535,-2.2242,-2.2184,-2.2081,-2.1759,-2.1964,-2.2081,-2.1745,-2.1979,-2.2184,-2.2184,-2.2081,-2.192,-2.1715,-2.1408,-2.1203,-2.1203,-2.1203,-2.1203,-2.1203,-2.1203,-2.1203,-2.1203,-2.1203,-2.1203,-2.1203,-2.1203,-2.1203,-2.1203,-2.1203,-2.1203,-2.1203,-2.1203,-2.1203,-2.4915,-2.3947,-2.326,-2.3927,-2.4221,-2.4716,-2.6227,-2.6729,-2.6957,-2.7386,-2.7641,-2.7738,-2.7903,-2.8421,-2.9187,-3.0284,-3.0988,-3.1636,-3.224,-3.244,-3.2498,-3.2305,-3.2383,-3.2383,-3.2305,-3.219,-3.2076,-3.1845,-3.1672,-3.1556,-3.1325,-3.1208,-3.1112,-3.0898,-3.0898,-3.0898,-3.0898,-3.0898,-3.0898,-3.0898,-3.0898,-3.0898,-3.0898,-3.0898,-3.0898,-3.0898,-3.0898,-3.0898,-3.0898,-3.0898,-3.0898,-3.0898,-3.0898,-3.0898,-3.0898,-3.0898,-3.0898,-3.0898,-3.0898,-3.047,-2.9549,-2.7649,-2.6581,-2.57,-2.3728,-2.3106,-2.3106,-2.3106,-2.3106,-2.3106,-2.3106,-2.3106,-2.3106,-2.3106,-2.3106,-2.3047,-2.2828,-2.2769,-2.271,-2.252,-2.2476,-2.2374,-2.2037,-2.2257,-2.2359,-2.2037,-2.2271,-2.2476,-2.2476,-2.2389,-2.2198,-2.1876,-2.1554,-2.1364,-2.1364,-2.1276,-2.1203,-2.1203,-2.1203,-2.1203,-2.1203,-2.1203,-2.1203,-2.1203,-2.1203,-2.1203,-2.1203,-2.1203,-2.1203,-2.1203,-2.1203,-2.1203,-2.5105,-2.3759,-2.2729,-2.366,-2.3888,-2.4406,-2.621,-2.6978,-2.7434,-2.7862,-2.8297,-2.8483,-2.8028,-2.869,-2.9456,-2.9911,-3.0781,-3.1636,-3.2183,-3.2305,-3.2305,-3.2305,-3.2018,-3.1903,-3.2248,-3.196,-3.1787,-3.1787,-3.1498,-3.1325,-3.1325,-3.1054,-3.0898,-3.0898,-3.0898,-3.0898,-3.0898,-3.0898,-3.0898,-3.0898,-3.0898,-3.0898,-3.0898,-3.0898,-3.0898,-3.0898,-3.0898,-3.0898,-3.0898,-3.0898,-3.0898,-3.0898,-3.0898,-3.0898,-3.0898,-3.0898,-3.0898,-3.0898,-3.0898,-3.047,-2.9549,-2.7649,-2.6581,-2.57,-2.3728,-2.3106,-2.3106,-2.3106,-2.3106,-2.3106,-2.3106,-2.3106,-2.3106,-2.3106,-2.3106,-2.3106,-2.3106,-2.3106,-2.3106,-2.3106,-2.3106,-2.3003,-2.2681,-2.2901,-2.3003,-2.2667,-2.2901,-2.3106,-2.3106,-2.2828,-2.2506,-2.2213,-2.1891,-2.1701,-2.1701,-2.1393,-2.1203,-2.1203,-2.1203,-2.1203,-2.1203,-2.1203,-2.1203,-2.1203,-2.1203,-2.1203,-2.1203,-2.1203,-2.1203,-2.1203,-2.1203,-2.1203,-2.4508,-2.3663,-2.3205,-2.4115,-2.4819,-2.565,-2.6832,-2.7407,-2.8048,-2.9145,-2.9228,-2.9063,-2.8918,-2.9125,-2.9456,-2.9911,-3.0781,-3.1402,-3.1471,-3.193,-3.2133,-3.1672,-3.173,-3.173,-3.1614,-3.1498,-3.1383,-3.117,-3.1054,-3.0995,-3.0995,-3.0937,-3.0898,-3.0898,-3.0898,-3.0898,-3.0898,-3.0898,-3.0898,-3.0898,-3.0898,-3.0898,-3.0898,-3.0898,-3.0898,-3.0898,-3.0898,-3.0898,-3.0898,-3.0898,-3.0898,-3.0898,-3.0898,-3.0898,-3.0898,-3.0898,-3.0898,-3.0898,-3.0898,-3.047,-2.9568,-2.7607,-2.6598,-2.57,-2.3728,-2.3106,-2.3106,-2.3106,-2.3106,-2.3106,-2.3106,-2.3106,-2.3106,-2.3106,-2.3106,-2.3106,-2.3106,-2.3106,-2.3106,-2.3106,-2.3106,-2.3003,-2.2681,-2.2901,-2.3003,-2.2667,-2.2901,-2.3106,-2.3106,-2.2828,-2.2593,-2.2506,-2.2008,-2.1701,-2.1701,-2.1393,-2.1203,-2.1203,-2.1203,-2.1203,-2.1203,-2.1203,-2.1203,-2.1203,-2.1203,-2.1203,-2.1203,-2.1203,-2.1203,-2.1203,-2.1203,-2.1335,-2.4703,-2.414,-2.395,-2.484,-2.5606,-2.6496,-2.7779,-2.8276,-2.8773,-2.9787,-2.9766,-2.9518,-2.9332,-2.9456,-2.9663,-2.9953,-3.0653,-3.1175,-3.112,-3.1563,-3.173,-3.1325,-3.1383,-3.1383,-3.1325,-3.1208,-3.1054,-3.0898,-3.0898,-3.0898,-3.0898,-3.0898,-3.0898,-3.0898,-3.0898,-3.0898,-3.0898,-3.0898,-3.0898,-3.0898,-3.0898,-3.0898,-3.0898,-3.0898,-3.0898,-3.0898,-3.0898,-3.0898,-3.0898,-3.0898,-3.0898,-3.0898,-3.0898,-3.0898,-3.0898,-3.0898,-3.0898,-3.0898,-3.0898,-3.047,-2.9568,-2.7607,-2.6598,-2.57,-2.3728,-2.3106,-2.3106,-2.3106,-2.3106,-2.3106,-2.3106,-2.3106,-2.3106,-2.3106,-2.3106,-2.3106,-2.3106,-2.3106,-2.3106,-2.3106,-2.3106,-2.3047,-2.2842,-2.2974,-2.3047,-2.2842,-2.2988,-2.3106,-2.3106,-2.2945,-2.2813,-2.2813,-2.2359,-2.2067,-2.2067,-2.1774,-2.1598,-2.1598,-2.1598,-2.1598,-2.1598,-2.135,-2.1203,-2.1203,-2.1203,-2.1203,-2.1203,-2.1203,-2.1203,-2.1203,-2.1203,-2.1379,-2.5333,-2.4954,-2.4776,-2.5771,-2.6459,-2.7309,-2.898,-2.9373,-2.9477,-2.9911,-2.9994,-2.987,-2.9435,-2.9704,-2.9994,-2.9994,-3.043,-3.0852,-3.0942,-3.11,-3.1148,-3.1148,-3.0975,-3.0937,-3.1149,-3.1034,-3.0898,-3.0898,-3.0898,-3.0898,-3.0898,-3.0898,-3.0898,-3.0898,-3.0898,-3.0898,-3.0898,-3.0898,-3.0898,-3.0898,-3.0898,-3.0898,-3.0898,-3.0898,-3.0898,-3.0898,-3.0898,-3.0898,-3.0898,-3.0898,-3.0898,-3.0898,-3.0898,-3.0898,-3.0898,-3.0898,-3.0898,-3.0898,-3.0898,-3.047,-2.9549,-2.7649,-2.6581,-2.5762,-2.379,-2.3168,-2.3168,-2.3168,-2.3168,-2.3168,-2.3106,-2.3106,-2.3106,-2.3106,-2.3106,-2.3106,-2.3106,-2.3106,-2.3106,-2.3106,-2.3106,-2.3106,-2.3106,-2.3106,-2.3106,-2.3106,-2.3106,-2.3106,-2.3106,-2.3106,-2.3106,-2.3106,-2.2813,-2.2623,-2.2623,-2.2345,-2.2184,-2.2184,-2.2184,-2.2184,-2.2184,-2.1613,-2.1306,-2.1306,-2.1306,-2.1306,-2.1306,-2.1306,-2.1306,-2.1306,-2.1306,-2.1467,-2.5092,-2.5083,-2.5334,-2.6641,-2.7841,-2.8918,-2.9684,-2.9849,-2.987,-2.9973,-2.9994,-2.9973,-2.987,-2.9932,-2.9942,-2.9711,-3.0056,-3.0228,-2.9824,-3.0036,-3.0201,-2.9956,-3.0194,-3.0351,-3.0447,-3.0722,-3.0898,-3.0898,-3.0898,-3.0898,-3.0898,-3.0898,-3.0898,-3.0898,-3.0898,-3.0898,-3.0898,-3.0898,-3.0898,-3.0898,-3.0898,-3.0898,-3.0898,-3.0898,-3.0898,-3.0898,-3.0898,-3.0898,-3.0898,-3.0898,-3.0898,-3.0898,-3.0898,-3.0898,-3.0898,-3.0898,-3.0898,-3.0898,-3.0898,-3.047,-2.9568,-2.7624,-2.6719,-2.6128,-2.4409,-2.3852,-2.3852,-2.3852,-2.3666,-2.3417,-2.3168,-2.3106,-2.3106,-2.3106,-2.3106,-2.3106,-2.3106,-2.3106,-2.3106,-2.3106,-2.3106,-2.3106,-2.3106,-2.3106,-2.3106,-2.3106,-2.3106,-2.3106,-2.3106,-2.3106,-2.3106,-2.3106,-2.2813,-2.2623,-2.2623,-2.2345,-2.2184,-2.2184,-2.2184,-2.2184,-2.2184,-2.2052,-2.1979,-2.1979,-2.1979,-2.1979,-2.1979,-2.1979,-2.1979,-2.1979,-2.1979,-2.214,-2.4846,-2.5146,-2.5842,-2.78,-2.8938,-2.9704,-2.9932,-2.9994,-2.9994,-2.9994,-2.9994,-2.9994,-2.9994,-2.9994,-2.9942,-2.9659,-2.9815,-2.985,-2.9456,-2.9648,-2.9738,-2.9626,-2.9941,-3.0195,-3.0195,-3.0625,-3.0898,-3.0898,-3.0898,-3.0898,-3.0898,-3.0898,-3.0898,-3.0898,-3.0898,-3.0898,-3.0898,-3.0898,-3.0898,-3.0898,-3.0898,-3.0898,-3.0898,-3.0898,-3.0898,-3.0879,-3.0644,-3.0684,-3.0879,-3.0644,-3.0684,-3.0898,-3.0898,-3.0898,-3.0898,-3.0898,-3.0898,-3.0898,-3.0898,-3.047,-2.9568,-2.7607,-2.6883,-2.6476,-2.5026,-2.4718,-2.478,-2.4595,-2.4348,-2.3929,-2.3293,-2.3106,-2.3106,-2.3106,-2.3106,-2.3106,-2.3106,-2.3106,-2.3106,-2.3106,-2.3106,-2.3106,-2.3106,-2.3106,-2.3106,-2.3106,-2.3106,-2.3106,-2.3106,-2.3106,-2.3106,-2.3106,-2.2959,-2.2857,-2.2857,-2.271,-2.2623,-2.2623,-2.2623,-2.2623,-2.2623,-2.2623,-2.2491,-2.2184,-2.2184,-2.2184,-2.2184,-2.2184,-2.2184,-2.2184,-2.2184,-2.2345,-2.47,-2.5418,-2.6537,-2.8743,-2.9642,-2.9994,-2.9994,-2.9994,-2.9994,-2.9994,-2.9994,-2.9994,-2.9994,-2.9994,-2.9889,-2.9554,-2.9594,-2.9587,-2.9283,-2.9306,-2.9411,-2.9411,-2.9726,-2.998,-2.998,-3.0449,-3.0762,-3.0762,-3.084,-3.0898,-3.0898,-3.0898,-3.0898,-3.0898,-3.0898,-3.0898,-3.0898,-3.0898,-3.0859,-3.0762,-3.0703,-3.0664,-3.0664,-3.0664,-3.0742,-3.0859,-3.0391,-3.0469,-3.0859,-3.0391,-3.0469,-3.0898,-3.0898,-3.0898,-3.0898,-3.0898,-3.0879,-3.082,-3.082,-3.0294,-2.9372,-2.7529,-2.6883,-2.6658,-2.5501,-2.5317,-2.5456,-2.5256,-2.4841,-2.4301,-2.3355,-2.3106,-2.3106,-2.3106,-2.3106,-2.3106,-2.3106,-2.3106,-2.3106,-2.3106,-2.3106,-2.3106,-2.3106,-2.3106,-2.3106,-2.3106,-2.3106,-2.3106,-2.3106,-2.3106,-2.3106,-2.3106,-2.3106,-2.3106,-2.3106,-2.3106,-2.3106,-2.3106,-2.3106,-2.3106,-2.3106,-2.3106,-2.2871,-2.2359,-2.2345,-2.2345,-2.2345,-2.2345,-2.2345,-2.2345,-2.2345,-2.2476,-2.4902,-2.6246,-2.7875,-2.9021,-2.9642,-2.9994,-2.9994,-2.9994,-2.9994,-2.9994,-2.9994,-2.9994,-2.9994,-2.9994,-2.9837,-2.9237,-2.9192,-2.902,-2.854,-2.8491,-2.8457,-2.8457,-2.8828,-2.9082,-2.9082,-2.9824,-3.0293,-3.0293,-3.0664,-3.0898,-3.0898,-3.0898,-3.0898,-3.0898,-3.0898,-3.0898,-3.0898,-3.0898,-3.0684,-3.0293,-2.9922,-2.9746,-2.9746,-2.9746,-3.0176,-3.0859,-3.0391,-3.0469,-3.0859,-3.0391,-3.0469,-3.0898,-3.0898,-3.0898,-3.0898,-3.0898,-3.0704,-3.045,-3.045,-2.9667,-2.848,-2.7004,-2.6415,-2.6128,-2.57,-2.5333,-2.5226,-2.5456,-2.4841,-2.3976,-2.3293,-2.3106,-2.3106,-2.3106,-2.3106,-2.3106,-2.3106,-2.3106,-2.3106,-2.3106,-2.3106,-2.3106,-2.3106,-2.3106,-2.3106,-2.3106,-2.3106,-2.3106,-2.3106,-2.3106,-2.3106,-2.3106,-2.3106,-2.3106,-2.3106,-2.3106,-2.3106,-2.3106,-2.3106,-2.3106,-2.3106,-2.3106,-2.3062,-2.2988,-2.2988,-2.2988,-2.2988,-2.2988,-2.2988,-2.2988,-2.2988,-2.3003,-2.5378,-2.6848,-2.8312,-2.924,-2.9745,-2.9994,-2.9994,-2.9994,-2.9994,-2.9994,-2.9994,-2.9994,-2.9994,-2.9994,-2.9889,-2.9448,-2.9237,-2.8973,-2.8568,-2.8408,-2.8301,-2.8301,-2.8887,-2.9277,-2.9277,-3.0078,-3.0586,-3.0586,-3.0781,-3.0898,-3.0898,-3.0898,-3.0898,-3.0898,-3.0898,-3.0898,-3.0898,-3.0898,-3.0664,-3.0195,-2.9766,-2.9626,-2.9626,-2.9626,-2.9785,-3.0137,-2.9668,-2.9726,-3.0117,-2.9668,-2.9883,-3.0508,-3.0508,-3.0664,-3.0898,-3.0898,-3.0704,-3.0333,-2.9766,-2.8998,-2.7924,-2.6277,-2.5745,-2.5762,-2.5439,-2.5333,-2.5394,-2.5333,-2.4841,-2.4177,-2.3293,-2.3106,-2.3106,-2.3106,-2.3106,-2.3106,-2.3106,-2.3106,-2.3106,-2.3106,-2.3106,-2.3106,-2.3106,-2.3106,-2.3106,-2.3106,-2.3106,-2.3106,-2.3106,-2.3106,-2.3106,-2.3106,-2.3106,-2.3106,-2.3106,-2.3106,-2.3106,-2.3106,-2.3106,-2.3106,-2.3106,-2.3106,-2.3106,-2.3106,-2.3106,-2.3106,-2.3106,-2.3106,-2.3106,-2.3106,-2.3106,-2.3106,-2.5701,-2.6961,-2.8076,-2.9023,-2.9539,-2.9829,-2.9829,-2.9911,-2.9994,-2.9994,-2.9994,-2.9994,-2.9994,-2.9994,-2.9889,-2.9501,-2.9343,-2.9079,-2.8727,-2.8514,-2.8408,-2.8301,-2.8945,-2.9394,-2.9394,-3.0195,-3.0723,-3.0723,-3.082,-3.0898,-3.0898,-3.0898,-3.0898,-3.0898,-3.0898,-3.084,-3.0723,-3.0488,-3.0215,-2.9863,-2.9453,-2.9238,-2.9238,-2.9238,-2.9297,-2.9394,-2.918,-2.9394,-2.9863,-2.9434,-2.9687,-3.0371,-3.0371,-3.0586,-3.0898,-3.0898,-3.0645,-3.0138,-2.9294,-2.8504,-2.7624,-2.5989,-2.5517,-2.5578,-2.5317,-2.5272,-2.5272,-2.5026,-2.4656,-2.4177,-2.3293,-2.3106,-2.3106,-2.3106,-2.3106,-2.3106,-2.3106,-2.3106,-2.3106,-2.3106,-2.3106,-2.3106,-2.3106,-2.3106,-2.3106,-2.3106,-2.3106,-2.3106,-2.3106,-2.3106,-2.3106,-2.3106,-2.3106,-2.3106,-2.3106,-2.3106,-2.3106,-2.3106,-2.3106,-2.3106,-2.3106,-2.3106,-2.3106,-2.3106,-2.3106,-2.3106,-2.3106,-2.3106,-2.3106,-2.3106,-2.3106,-2.3106,-2.5691,-2.6368,-2.6858,-2.8082,-2.884,-2.9352,-2.9352,-2.9684,-2.9994,-2.9994,-2.9994,-2.9994,-2.9994,-2.9994,-2.9837,-2.9237,-2.9396,-2.9343,-2.8781,-2.8674,-2.8568,-2.8354,-2.8691,-2.8945,-2.8945,-2.9726,-3.0234,-3.0234,-3.0644,-3.0898,-3.0898,-3.0898,-3.0898,-3.0898,-3.0898,-3.0684,-3.0234,-2.9434,-2.9004,-2.8984,-2.8555,-2.8359,-2.8359,-2.8359,-2.8574,-2.8965,-2.9375,-3.0019,-3.0781,-3.0332,-3.041,-3.0859,-3.0859,-3.0859,-3.0898,-3.0898,-3.047,-2.9863,-2.949,-2.8582,-2.7401,-2.6753,-2.6083,-2.5594,-2.5578,-2.5149,-2.4672,-2.461,-2.4177,-2.3542,-2.3168,-2.3106,-2.3106,-2.3106,-2.3106,-2.3106,-2.3106,-2.3106,-2.3106,-2.3106,-2.3106,-2.3106,-2.3106,-2.3106,-2.3106,-2.3106,-2.3106,-2.3106,-2.3106,-2.3106,-2.3106,-2.3106,-2.3106,-2.3106,-2.3106,-2.3106,-2.3106,-2.3106,-2.3106,-2.3106,-2.3106,-2.3106,-2.3106,-2.3106,-2.3106,-2.3106,-2.3106,-2.3106,-2.3106,-2.3106,-2.3106,-2.3106,-2.5385,-2.5892,-2.6433,-2.7075,-2.7771,-2.8299,-2.8581,-2.9126,-2.9642,-2.9932,-2.9994,-2.9942,-2.9764,-2.9889,-2.9942,-2.9732,-2.9448,-2.9185,-2.8973,-2.8674,-2.8408,-2.8281,-2.8672,-2.9023,-2.9316,-2.9863,-3.0312,-3.0625,-3.0801,-3.0898,-3.0898,-3.0898,-3.0898,-3.0898,-3.0898,-3.0664,-3.0195,-2.9355,-2.8926,-2.8906,-2.8496,-2.8301,-2.8301,-2.8301,-2.8672,-2.9355,-2.9512,-2.9802,-3.0019,-2.9863,-3.0059,-3.0449,-3.0449,-3.0625,-3.0898,-3.0898,-3.0587,-3.0098,-2.9353,-2.8641,-2.8002,-2.7159,-2.6537,-2.605,-2.5439,-2.4964,-2.4487,-2.379,-2.3479,-2.323,-2.3106,-2.3106,-2.3106,-2.3106,-2.3106,-2.3106,-2.3106,-2.3106,-2.3106,-2.3106,-2.3106,-2.3106,-2.3106,-2.3106,-2.3106,-2.3106,-2.3106,-2.3106,-2.3106,-2.3106,-2.3106,-2.3106,-2.3106,-2.3106,-2.3106,-2.3106,-2.3106,-2.3106,-2.3106,-2.3106,-2.3106,-2.3106,-2.3106,-2.3106,-2.3106,-2.3106,-2.3106,-2.3106,-2.3106,-2.3106,-2.3106,-2.3106,-2.488,-2.5318,-2.5694,-2.6172,-2.6774,-2.7322,-2.7759,-2.8351,-2.9021,-2.9642,-2.9766,-2.9756,-2.9743,-2.9889,-2.9942,-2.9732,-2.9448,-2.9185,-2.8973,-2.8674,-2.8408,-2.8281,-2.8672,-2.9023,-2.9316,-2.9746,-3.0117,-3.043,-3.0586,-3.0664,-3.0664,-3.0801,-3.082,-3.0664,-3.0371,-3.0078,-2.9766,-2.9062,-2.8711,-2.8711,-2.8418,-2.8301,-2.8301,-2.8301,-2.875,-2.9626,-2.9626,-2.9802,-3.0019,-3.0019,-3.0176,-3.043,-3.043,-3.0567,-3.0704,-3.0704,-3.045,-3.002,-2.9294,-2.8879,-2.854,-2.7882,-2.7383,-2.6779,-2.5745,-2.5087,-2.4533,-2.3417,-2.3106,-2.3106,-2.3106,-2.3106,-2.3106,-2.3106,-2.3106,-2.3106,-2.3106,-2.3106,-2.3106,-2.3106,-2.3106,-2.3106,-2.3106,-2.3106,-2.3106,-2.3106,-2.3106,-2.3106,-2.3106,-2.3106,-2.3106,-2.3106,-2.3106,-2.3106,-2.3106,-2.3106,-2.3106,-2.3106,-2.3106,-2.3106,-2.3106,-2.3106,-2.3106,-2.3106,-2.3106,-2.3106,-2.3106,-2.3106,-2.3106,-2.3106,-2.3106,-2.3106,0.0,0.0,0.0,-2.5218,-2.5914,-2.6502,-2.6781,-2.7363,-2.8152,-2.9083,-2.929,-2.9456,-2.9911,-2.9994,-2.9784,-2.9185,-2.9396,-2.9396,-2.8781,-2.8674,-2.8568,-2.8354,-2.8652,-2.8906,-2.8926,-2.9297,-2.9607,-2.9626,-2.9961,-3.0195,-3.0195,-3.0625,-3.0664,-3.0215,-2.9355,-2.8926,-2.8926,-2.8496,-2.8301,-2.8301,-2.8301,-2.8301,-2.8301,-2.8301,-2.875,-2.9626,-2.9626,-3.0078,-3.0898,-3.0898,-3.0898,-3.0898,-3.0898,-3.0704,-3.0392,-3.0392,-2.9962,-2.9509,-2.9431,-2.9194,-2.9035,-2.9035,-2.8618,-2.7762,-2.6415,-2.5623,-2.4826,-2.3479,-2.3106,-2.3106,-2.3106,-2.3106,-2.3106,-2.3106,-2.3106,-2.3106,-2.3106,-2.3106,-2.3106,-2.3106,-2.3106,-2.3106,-2.3106,-2.3106,-2.3106,-2.3106,-2.3106,-2.3106,-2.3106,-2.3106,-2.3106,-2.3106,-2.3106,-2.3106,-2.3106,-2.3106,-2.3106,-2.3106,-2.3106,-2.3106,-2.3106,-2.3106,-2.3106,-2.3106,-2.3106,-2.3106,-2.3106,-2.3106,-2.3106,-2.3106,-2.3106,-2.3106,-2.3843,0.0,0.0,0.0,0.0,0.0,-2.5713,-2.6518,-2.7446,-2.8396,-2.8982,-2.9456,-2.9911,-2.9994,-2.9784,-2.9185,-2.9185,-2.9079,-2.8727,-2.8514,-2.8408,-2.8301,-2.8398,-2.8574,-2.8887,-2.9023,-2.9238,-2.9551,-2.9961,-3.0195,-3.0195,-3.0312,-3.0332,-3.0195,-2.9355,-2.8926,-2.8926,-2.8496,-2.8301,-2.8301,-2.8301,-2.8301,-2.8301,-2.8301,-2.875,-2.9626,-2.9626,-3.0078,-3.0898,-3.0898,-3.0898,-3.0898,-3.0898,-3.0704,-3.0314,-2.9589,-2.9353,-2.9372,-2.9116,-2.9313,-2.9745,-3.0235,-2.9922,-2.9016,-2.7263,-2.6294,-2.5456,-2.3604,-2.3106,-2.3106,-2.3106,-2.3106,-2.3106,-2.3106,-2.3106,-2.3106,-2.3106,-2.3106,-2.3106,-2.3106,-2.3106,-2.3106,-2.3106,-2.3106,-2.3106,-2.3106,-2.3106,-2.3106,-2.3106,-2.3106,-2.3106,-2.3106,-2.3106,-2.3106,-2.3106,-2.3106,-2.3106,-2.3106,-2.3106,-2.3106,-2.3106,-2.3106,-2.3106,-2.3106,-2.3106,-2.3106,-2.3106,-2.3106,-2.3106,-2.3106,-2.3106,-2.3106,-2.3953,-2.411,0.0,-2.4699,0.0,0.0,-2.5056,-2.5699,-2.6602,-2.7681,-2.8327,-2.8898,-2.9464,-2.9466,-2.9209,-2.864,-2.8465,-2.8396,-2.8509,-2.8408,-2.8301,-2.8301,-2.8301,-2.8398,-2.8633,-2.8652,-2.8769,-2.9023,-2.9434,-2.9746,-2.9922,-2.9766,-2.9668,-2.9668,-2.9004,-2.8652,-2.8652,-2.8418,-2.8301,-2.8301,-2.8301,-2.8301,-2.8301,-2.8301,-2.875,-2.9626,-2.9626,-3.0078,-3.0898,-3.0898,-3.0898,-3.0898,-3.0898,-3.0587,-3.0098,-2.9353,-2.9176,-2.9194,-2.9116,-2.949,-2.9981,-3.0704,-3.047,-2.9568,-2.7607,-2.6598,-2.57,-2.3666,-2.3106,-2.3106,-2.3106,-2.3106,-2.3106,-2.3106,-2.3106,-2.3106,-2.3106,-2.3106,-2.3106,-2.3106,-2.3106,-2.3106,-2.3106,-2.3106,-2.3106,-2.3106,-2.3106,-2.3106,-2.3106,-2.3106,-2.3106,-2.3106,-2.3106,-2.3106,-2.3106,-2.3106,-2.3106,-2.3106,-2.3106,-2.3106,-2.3106,-2.3106,-2.3106,-2.3106,-2.3106,-2.3106,-2.3106,-2.3106,-2.3106,-2.3106,-2.3106,-2.3106,-2.4386,-2.4427,0.0,-2.4767,-2.4728,0.0,-2.4698,-2.5095,-2.5786,-2.7005,-2.7597,-2.8121,-2.8761,-2.8661,-2.8263,-2.7713,-2.7451,-2.7535,-2.8158,-2.8223,-2.8242,-2.8281,-2.8301,-2.8301,-2.8301,-2.8301,-2.8301,-2.8301,-2.8672,-2.9101,-2.9551,-2.916,-2.8926,-2.8926,-2.8516,-2.8301,-2.8301,-2.8301,-2.8301,-2.8301,-2.8301,-2.832,-2.8359,-2.8359,-2.8828,-2.9704,-2.9704,-3.0117,-3.0898,-3.0898,-3.0898,-3.0898,-3.0898,-3.0528,-2.9922,-2.949,-2.9194,-2.9094,-2.9253,-2.9608,-2.9981,-3.0704,-3.047,-2.9549,-2.7589,-2.6581,-2.57,-2.3666,-2.3106,-2.3106,-2.3106,-2.3106,-2.3106,-2.3106,-2.3106,-2.3106,-2.3106,-2.3106,-2.3106,-2.3106,-2.3106,-2.3106,-2.3106,-2.3106,-2.3106,-2.3106,-2.3106,-2.3106,-2.3106,-2.3106,-2.3106,-2.3106,-2.3106,-2.3106,-2.3106,-2.3106,-2.3106,-2.3106,-2.3106,-2.3106,-2.3106,-2.3106,-2.3106,-2.3106,-2.3106,-2.3106,-2.3106,-2.3106,-2.3106,-2.3106,-2.3106,-2.3106,-2.4386,-2.4496,-2.4582,-2.5074,-2.4992,0.0,-2.4785,-2.5031,-2.5565,-2.6605,-2.7062,-2.7465,-2.8036,-2.7798,-2.7318,-2.6543,-2.6695,-2.715,-2.7708,-2.7845,-2.7963,-2.8262,-2.8301,-2.8301,-2.8301,-2.8301,-2.8301,-2.8301,-2.8672,-2.9101,-2.9551,-2.916,-2.8926,-2.8926,-2.8516,-2.8301,-2.8301,-2.8301,-2.8301,-2.8301,-2.8301,-2.8476,-2.8789,-2.8789,-2.9258,-3.0078,-3.0078,-3.0391,-3.0898,-3.0898,-3.0898,-3.0898,-3.0898,-3.0645,-3.0216,-2.9353,-2.9116,-2.9313,-2.9057,-2.9412,-2.9981,-3.0704,-3.047,-2.9549,-2.7589,-2.6581,-2.57,-2.3666,-2.3106,-2.3106,-2.3106,-2.3106,-2.3106,-2.3106,-2.3106,-2.3106,-2.3106,-2.3106,-2.3106,-2.3106,-2.3106,-2.3106,-2.3106,-2.3106,-2.3106,-2.3106,-2.3106,-2.3106,-2.3106,-2.3106,-2.3106,-2.3106,-2.3106,-2.3106,-2.3106,-2.3106,-2.3106,-2.3106,-2.3106,-2.3106,-2.3106,-2.3106,-2.3106,-2.3106,-2.3106,-2.3106,-2.3106,-2.3106,-2.3106,-2.3106,-2.3106,-2.3106,-2.5625,-2.5697,-2.5697,-2.5709,-2.5517,0.0,0.0,-2.501,-2.5385,-2.6026,-2.6343,-2.6644,-2.6931,-2.6549,-2.6048,-2.5542,-2.5458,-2.5737,-2.6593,-2.7266,-2.7865,-2.8242,-2.8301,-2.8301,-2.8301,-2.8301,-2.8301,-2.8301,-2.8496,-2.8691,-2.8926,-2.873,-2.8613,-2.8613,-2.8398,-2.8301,-2.8301,-2.8301,-2.8301,-2.8301,-2.8301,-2.8516,-2.8926,-2.8926,-2.9394,-3.0195,-3.0195,-3.0469,-3.0898,-3.0898,-3.0898,-3.0898,-3.0898,-3.0704,-3.0333,-2.9667,-2.949,-2.9608,-2.949,-2.9726,-3.0216,-3.0762,-3.047,-2.9627,-2.7966,-2.6415,-2.4841,-2.3666,-2.323,-2.3106,-2.3106,-2.3106,-2.3106,-2.3106,-2.3106,-2.3106,-2.3106,-2.3106,-2.3106,-2.3106,-2.3106,-2.3106,-2.3106,-2.3106,-2.3106,-2.3106,-2.3106,-2.3106,-2.3106,-2.3106,-2.3106,-2.3106,-2.3106,-2.3106,-2.3106,-2.3106,-2.3106,-2.3106,-2.3106,-2.3106,-2.3106,-2.3106,-2.3106,-2.3106,-2.3106,-2.3106,-2.3106,-2.3106,-2.3106,-2.3106,-2.3106,-2.3106,-2.721,-2.7114,-2.6922,-2.6406,-2.6043,-2.5706,0.0,0.0,0.0,-2.5607,-2.5814,-2.5893,-2.6006,-2.5413,-2.483,-2.4541,-2.4219,-2.4335,-2.5195,-2.6406,-2.7383,-2.7969,-2.8047,-2.8086,-2.8164,-2.8164,-2.8144,-2.8047,-2.8125,-2.8164,-2.8164,-2.8242,-2.8301,-2.8301,-2.8379,-2.8418,-2.8418,-2.8496,-2.8535,-2.8535,-2.8535,-2.875,-2.916,-2.916,-2.959,-3.0332,-3.0332,-3.0547,-3.0898,-3.0898,-3.0898,-3.0898,-3.0898,-3.0704,-3.045,-3.0157,-3.0098,-3.0098,-3.0098,-3.0274,-3.0509,-3.082,-3.0352,-2.949,-2.8343,-2.6277,-2.4224,-2.3914,-2.3479,-2.3106,-2.3106,-2.3106,-2.3106,-2.3106,-2.3106,-2.3106,-2.3106,-2.3106,-2.3106,-2.3106,-2.3106,-2.3106,-2.3106,-2.3106,-2.3106,-2.3106,-2.3106,-2.3106,-2.3106,-2.3106,-2.3106,-2.3106,-2.3106,-2.3106,-2.3106,-2.3106,-2.3106,-2.3106,-2.3106,-2.3106,-2.3106,-2.3106,-2.3106,-2.3106,-2.3106,-2.3106,-2.3106,-2.3106,-2.3106,-2.3106,-2.3106,-2.3106,-2.833,-2.7993,-2.7474,-2.6922,-2.6417,-2.5913,-2.5373,0.0,-2.5433,-2.5924,0.0,-2.5559,-2.5645,0.0,0.0,-2.3432,-2.361,-2.3883,-2.3971,-2.4785,-2.5801,-2.7012,-2.7168,-2.7305,-2.7748,-2.7787,-2.7578,-2.7187,-2.7519,-2.7787,-2.7787,-2.8086,-2.8301,-2.8301,-2.8652,-2.8848,-2.8848,-2.9238,-2.9434,-2.9434,-2.9434,-2.9648,-3.0059,-3.0059,-3.0332,-3.082,-3.082,-3.084,-3.0898,-3.0898,-3.0898,-3.0898,-3.0898,-3.0898,-3.084,-3.0762,-3.0782,-3.0782,-3.0782,-3.082,-3.082,-3.0898,-3.002,-2.8861,-2.8224,-2.6581,-2.4887,-2.4595,-2.379,-2.3106,-2.3106,-2.3106,-2.3106,-2.3106,-2.3106,-2.3106,-2.3106,-2.3106,-2.3106,-2.3106,-2.3106,-2.3106,-2.3106,-2.3106,-2.3106,-2.3106,-2.3106,-2.3106,-2.3106,-2.3106,-2.3106,-2.3106,-2.3106,-2.3106,-2.3106,-2.3106,-2.3106,-2.3106,-2.3106,-2.3106,-2.3106,-2.3106,-2.3106,-2.3106,-2.3106,-2.3106,-2.3106,-2.3106,-2.3106,-2.3106,-2.3106,-2.3106,-2.9508,-2.9051,-2.8426,-2.7609,-2.6946,-2.6358,-2.5492,-2.554,-2.5829,-2.6045,0.0,0.0,0.0,0.0,0.0,0.0,-2.357,-2.3557,-2.4068,-2.4335,-2.4947,-2.6094,-2.6504,-2.6816,-2.7246,-2.707,-2.6953,-2.7012,-2.7187,-2.7402,-2.7708,-2.8066,-2.8301,-2.8301,-2.8711,-2.8926,-2.8926,-2.9355,-2.9626,-2.9626,-2.9626,-2.9785,-3.0195,-3.0195,-3.0449,-3.0898,-3.0898,-3.0898,-3.0898,-3.0898,-3.0898,-3.0898,-3.0898,-3.0898,-3.0898,-3.0898,-3.0898,-3.0898,-3.0898,-3.0898,-3.0879,-3.0704,-3.0098,-2.9313,-2.8522,-2.7323,-2.605,-2.5394,-2.4471,-2.3604,-2.3417,-2.323,-2.3106,-2.3106,-2.3106,-2.3106,-2.3106,-2.3106,-2.3106,-2.3106,-2.3106,-2.3106,-2.3106,-2.3106,-2.3106,-2.3106,-2.3106,-2.3106,-2.3106,-2.3106,-2.3106,-2.3106,-2.3106,-2.3106,-2.3106,-2.3106,-2.3106,-2.3106,-2.3106,-2.3106,-2.3106,-2.3106,-2.3106,-2.3106,-2.3106,-2.3106,-2.3106,-2.3106,-2.3106,-2.3106,-2.3106,-2.3106,-3.0855,-3.0134,-2.9268,-2.821,-2.7402,-2.6609,-2.5564,-2.5709,-2.6142,-2.6286,-2.6655,0.0,0.0,0.0,-2.518,-2.4631,0.0,-2.3713,-2.4116,-2.4053,-2.4384,-2.5413,-2.5908,-2.6289,-2.6465,-2.6309,-2.6328,-2.6641,-2.666,-2.6914,-2.7461,-2.7891,-2.8184,-2.8281,-2.8711,-2.8984,-2.9101,-2.9531,-2.9805,-2.9941,-2.9941,-3.0098,-3.0391,-3.0391,-3.0566,-3.0898,-3.0898,-3.0898,-3.0898,-3.0898,-3.0898,-3.0898,-3.0898,-3.0898,-3.0898,-3.0898,-3.0898,-3.0898,-3.0898,-3.0898,-3.084,-3.0645,-3.0392,-3.0039,-2.9253,-2.8343,-2.7306,-2.6476,-2.5317,-2.4286,-2.3976,-2.3479,-2.3106,-2.3106,-2.3106,-2.3106,-2.3106,-2.3106,-2.3106,-2.3106,-2.3106,-2.3106,-2.3106,-2.3106,-2.3106,-2.3106,-2.3106,-2.3106,-2.3106,-2.3106,-2.3106,-2.3106,-2.3106,-2.3106,-2.3106,-2.3106,-2.3106,-2.3106,-2.3106,-2.3106,-2.3106,-2.3106,-2.3106,-2.3106,-2.3106,-2.3106,-2.3106,-2.3106,-2.3106,-2.3106,-2.3106,-2.3106,-3.2442,-3.1264,-2.9821,-2.8739,-2.7666,-2.6609,-2.5564,-2.5709,-2.6262,-2.6753,-2.7282,-2.7666,-2.7666,-2.7308,-2.6566,-2.5125,-2.4921,0.0,0.0,-2.367,-2.4075,-2.5033,-2.5472,-2.5586,-2.5223,-2.5508,-2.5713,-2.5732,-2.5732,-2.6103,-2.6992,-2.7441,-2.7924,-2.8281,-2.8711,-2.9121,-2.9551,-2.9961,-3.041,-3.0859,-3.0859,-3.0859,-3.0859,-3.0859,-3.0879,-3.0898,-3.0898,-3.0898,-3.0898,-3.0898,-3.0898,-3.0898,-3.0898,-3.0898,-3.0898,-3.0898,-3.0898,-3.0898,-3.0898,-3.0898,-3.0898,-3.0898,-3.0898,-3.082,-3.045,-2.9648,-2.8683,-2.8086,-2.652,-2.501,-2.4656,-2.3852,-2.3106,-2.3106,-2.3106,-2.3106,-2.3106,-2.3106,-2.3106,-2.3106,-2.3106,-2.3106,-2.3106,-2.3106,-2.3106,-2.3106,-2.3106,-2.3106,-2.3106,-2.3106,-2.3106,-2.3106,-2.3106,-2.3106,-2.3106,-2.3106,-2.3106,-2.3106,-2.3106,-2.3106,-2.3106,-2.3106,-2.3106,-2.3106,-2.3106,-2.3106,-2.3106,-2.3106,-2.3106,-2.3106,-2.3106,-2.3106,-3.3212,-3.2106,-3.0995,-3.0254,-2.9003,-2.7777,-2.7079,-2.732,-2.7753,-2.7945,-2.8667,-2.9292,-2.9292,-2.8514,-2.7522,0.0,-2.57,-2.5005,0.0,-2.4232,-2.4188,-2.4426,-2.4142,-2.4134,-2.459,-2.4531,-2.4687,-2.5254,-2.5293,-2.5801,-2.6953,-2.7422,-2.7851,-2.8281,-2.8711,-2.9121,-2.9626,-2.998,-3.043,-3.0898,-3.0898,-3.0898,-3.0898,-3.0898,-3.0898,-3.0898,-3.0898,-3.0898,-3.0898,-3.0898,-3.0898,-3.0898,-3.0898,-3.0898,-3.0898,-3.0898,-3.0898,-3.0898,-3.0898,-3.0898,-3.0898,-3.0898,-3.0898,-3.084,-3.0509,-3.002,-2.9372,-2.854,-2.7383,-2.6283,-2.5993,-2.5375,-2.4811,-2.4838,-2.4644,-2.4453,-2.4134,-2.3716,-2.3427,-2.3427,-2.3252,-2.3106,-2.3106,-2.3106,-2.3106,-2.3106,-2.3106,-2.3106,-2.3106,-2.3106,-2.3106,-2.3106,-2.3106,-2.3106,-2.3106,-2.3106,-2.3106,-2.3106,-2.3106,-2.3106,-2.3106,-2.3106,-2.3106,-2.3106,-2.3106,-2.3106,-2.3106,-2.3106,-2.3106,-2.3106,-2.3106,-2.3106,-3.4294,-3.3332,-3.237,-3.1865,-3.0663,-2.9436,-2.8715,-2.8835,-2.9124,-2.9316,-3.0037,-3.0711,-3.0903,-3.0145,-2.9111,0.0,0.0,-2.5869,0.0,-2.4657,-2.4386,-2.3956,-2.3569,-2.3595,-2.4212,-2.399,-2.4082,-2.4785,-2.4707,-2.5176,-2.6484,-2.6973,-2.748,-2.8047,-2.8476,-2.8984,-2.957,-2.9844,-3.0273,-3.0898,-3.0898,-3.0898,-3.0898,-3.0898,-3.0898,-3.0898,-3.0898,-3.0898,-3.0898,-3.0898,-3.0898,-3.0898,-3.0898,-3.0898,-3.0898,-3.0898,-3.0898,-3.0898,-3.0898,-3.0898,-3.0898,-3.0898,-3.0898,-3.084,-3.0645,-3.0411,-3.0098,-2.9372,-2.8462,-2.7651,-2.7501,-2.6906,-2.6382,-2.6423,-2.5992,-2.5414,-2.5043,-2.4272,-2.3588,-2.3588,-2.3325,-2.3106,-2.3106,-2.3106,-2.3106,-2.3106,-2.3106,-2.3106,-2.3106,-2.3106,-2.3106,-2.3106,-2.3106,-2.3106,-2.3106,-2.3106,-2.3106,-2.3106,-2.3106,-2.3106,-2.3106,-2.3106,-2.3106,-2.3106,-2.3106,-2.3106,-2.3106,-2.3106,-2.3106,-2.3106,-2.3106,-2.3106]},{"header":{"parameterUnit":"m.s-1","parameterCategory":1,"la1":30.6,"la2":29.2853,"lo1":-89.7004,"lo2":-87.6739,"dy":0.0162,"dx":0.0183,"nx":112,"ny":82,"refTime":"2026-05-14T12:00:00:Z","depth":0,"parameterNumber":3,"parameterNumberName":"V-component_of_WINDS"},"data":[0.0,0.0,0.0,0.0,0.0,0.0,0.0,0.0,0.0,0.0,0.0,0.0,0.0,0.0,0.0,0.0,0.0,0.0,0.0,0.0,0.0,0.0,0.0,0.0,0.0,0.0,0.0,0.0,0.0,0.0,0.0,0.0,0.0,0.0,0.0,0.0,0.0,0.0,0.0,0.0,0.0,0.0,0.0,0.0,0.0,0.0,0.0,0.0,0.0,0.0,0.0,0.0,0.0,0.0,0.0,0.0,0.0,0.0,0.0,0.0,0.0,0.0,0.0,0.0,0.0,0.0,0.0,0.0,0.0,0.0,0.0,0.0,0.0,0.0,0.0,0.0,0.0,0.0,0.0,0.0,0.0,0.0,0.0,0.0,0.0,0.0,0.0,0.0,0.0,0.0,3.0907,3.3145,3.5247,3.6261,3.5706,3.4352,3.3057,3.1794,0.0,0.0,0.0,0.0,0.0,0.0,0.0,0.0,0.0,0.0,0.0,0.0,0.0,0.0,0.0,0.0,0.0,0.0,0.0,0.0,0.0,0.0,0.0,0.0,0.0,0.0,0.0,0.0,0.0,0.0,0.0,0.0,0.0,0.0,0.0,0.0,0.0,0.0,0.0,0.0,0.0,0.0,0.0,0.0,0.0,0.0,0.0,0.0,0.0,0.0,0.0,0.0,0.0,0.0,0.0,0.0,0.0,0.0,0.0,0.0,0.0,0.0,0.0,0.0,0.0,0.0,0.0,0.0,0.0,0.0,0.0,0.0,0.0,0.0,0.0,0.0,0.0,0.0,0.0,0.0,0.0,0.0,0.0,0.0,0.0,0.0,0.0,0.0,0.0,0.0,0.0,0.0,0.0,0.0,0.0,0.0,0.0,0.0,0.0,0.0,0.0,0.0,0.0,0.0,3.2204,3.4816,3.5953,3.6445,3.6353,3.5121,3.4041,3.3323,0.0,0.0,0.0,0.0,0.0,0.0,0.0,0.0,0.0,0.0,0.0,0.0,0.0,0.0,0.0,0.0,0.0,0.0,0.0,0.0,0.0,0.0,0.0,0.0,0.0,0.0,0.0,0.0,0.0,0.0,0.0,0.0,0.0,0.0,0.0,0.0,0.0,0.0,0.0,0.0,0.0,0.0,0.0,0.0,0.0,0.0,0.0,0.0,0.0,0.0,0.0,0.0,0.0,0.0,0.0,0.0,0.0,0.0,0.0,0.0,0.0,0.0,0.0,0.0,0.0,0.0,0.0,0.0,0.0,0.0,0.0,0.0,0.0,0.0,0.0,0.0,0.0,0.0,0.0,0.0,0.0,0.0,0.0,0.0,0.0,0.0,0.0,0.0,0.0,0.0,0.0,0.0,0.0,0.0,0.0,0.0,0.0,0.0,0.0,0.0,0.0,0.0,0.0,3.2536,3.4104,3.5398,3.6076,3.6353,3.5984,3.5059,3.3889,3.2496,3.1,0.0,0.0,0.0,0.0,0.0,0.0,0.0,0.0,0.0,0.0,0.0,0.0,0.0,0.0,0.0,0.0,0.0,0.0,0.0,0.0,0.0,0.0,0.0,0.0,0.0,0.0,0.0,0.0,0.0,0.0,0.0,0.0,0.0,0.0,0.0,0.0,0.0,0.0,0.0,0.0,0.0,0.0,0.0,0.0,0.0,0.0,0.0,0.0,0.0,0.0,0.0,0.0,0.0,0.0,0.0,0.0,0.0,0.0,0.0,0.0,0.0,0.0,0.0,0.0,0.0,0.0,0.0,0.0,0.0,0.0,0.0,0.0,0.0,0.0,0.0,0.0,0.0,0.0,0.0,0.0,0.0,0.0,0.0,0.0,0.0,0.0,0.0,0.0,0.0,0.0,0.0,0.0,0.0,0.0,0.0,0.0,0.0,0.0,0.0,0.0,0.0,0.0,3.4445,3.5768,3.5768,3.6168,3.623,3.5583,3.4751,3.3519,3.179,3.0954,0.0,0.0,0.0,0.0,0.0,0.0,0.0,0.0,0.0,0.0,0.0,0.0,0.0,0.0,0.0,0.0,0.0,0.0,0.0,0.0,0.0,0.0,0.0,0.0,0.0,0.0,0.0,0.0,0.0,0.0,0.0,0.0,0.0,0.0,0.0,0.0,0.0,0.0,0.0,0.0,0.0,0.0,0.0,0.0,0.0,0.0,0.0,0.0,0.0,0.0,0.0,0.0,0.0,0.0,0.0,0.0,0.0,0.0,0.0,0.0,0.0,0.0,0.0,0.0,0.0,0.0,0.0,0.0,0.0,0.0,0.0,0.0,0.0,0.0,0.0,0.0,0.0,0.0,0.0,0.0,0.0,0.0,0.0,0.0,0.0,0.0,0.0,0.0,0.0,0.0,0.0,0.0,0.0,0.0,0.0,0.0,0.0,0.0,0.0,0.0,0.0,0.0,3.5153,3.6415,3.6415,3.6476,3.623,3.5583,3.426,3.3208,3.2547,3.0742,0.0,0.0,0.0,0.0,0.0,0.0,0.0,0.0,0.0,0.0,0.0,0.0,0.0,0.0,0.0,0.0,0.0,0.0,0.0,0.0,0.0,0.0,0.0,0.0,0.0,0.0,0.0,0.0,0.0,0.0,0.0,0.0,0.0,0.0,0.0,0.0,0.0,0.0,0.0,0.0,0.0,0.0,0.0,0.0,0.0,0.0,0.0,0.0,0.0,0.0,0.0,0.0,0.0,0.0,0.0,0.0,0.0,0.0,0.0,0.0,0.0,0.0,0.0,0.0,0.0,0.0,0.0,0.0,0.0,0.0,0.0,0.0,0.0,0.0,0.0,0.0,0.0,0.0,0.0,0.0,0.0,0.0,0.0,0.0,0.0,0.0,0.0,0.0,0.0,0.0,0.0,0.0,0.0,0.0,0.0,0.0,0.0,0.0,0.0,0.0,0.0,0.0,3.5861,3.6969,3.6538,3.6876,3.6507,3.4998,3.4412,3.3272,3.1358,0.0,0.0,0.0,0.0,0.0,0.0,0.0,0.0,0.0,0.0,0.0,0.0,0.0,0.0,0.0,0.0,0.0,0.0,0.0,0.0,0.0,0.0,0.0,0.0,0.0,0.0,0.0,0.0,0.0,0.0,0.0,0.0,0.0,0.0,0.0,0.0,0.0,0.0,0.0,0.0,0.0,0.0,0.0,0.0,0.0,0.0,0.0,0.0,0.0,0.0,0.0,0.0,0.0,0.0,0.0,0.0,0.0,0.0,0.0,0.0,0.0,0.0,0.0,0.0,0.0,0.0,0.0,0.0,0.0,0.0,0.0,0.0,0.0,0.0,0.0,0.0,0.0,0.0,0.0,0.0,0.0,0.0,0.0,0.0,0.0,0.0,0.0,0.0,0.0,0.0,0.0,0.0,0.0,0.0,0.0,0.0,0.0,0.0,0.0,0.0,0.0,0.0,3.4289,3.6261,3.7246,3.6569,3.7092,3.6753,3.4967,3.4412,3.318,3.0926,0.0,0.0,0.0,0.0,0.0,0.0,0.0,0.0,0.0,0.0,0.0,0.0,0.0,0.0,0.0,0.0,0.0,0.0,0.0,0.0,0.0,0.0,0.0,0.0,0.0,0.0,0.0,0.0,0.0,0.0,0.0,0.0,0.0,0.0,0.0,0.0,0.0,0.0,0.0,0.0,0.0,0.0,0.0,0.0,0.0,0.0,0.0,0.0,0.0,0.0,0.0,0.0,0.0,0.0,0.0,0.0,0.0,0.0,0.0,0.0,0.0,0.0,0.0,0.0,0.0,0.0,0.0,0.0,0.0,0.0,0.0,0.0,0.0,0.0,0.0,0.0,0.0,0.0,0.0,0.0,0.0,0.0,0.0,0.0,0.0,0.0,0.0,0.0,0.0,0.0,0.0,0.0,0.0,0.0,0.0,0.0,0.0,0.0,0.0,0.0,0.0,0.0,3.4227,3.6292,3.7246,3.6569,3.7092,3.6969,3.5614,3.4198,3.29,0.0,0.0,0.0,0.0,0.0,0.0,0.0,0.0,0.0,0.0,0.0,0.0,0.0,0.0,0.0,0.0,0.0,0.0,0.0,0.0,0.0,0.0,0.0,0.0,0.0,0.0,0.0,0.0,0.0,0.0,0.0,0.0,0.0,0.0,0.0,0.0,0.0,0.0,0.0,0.0,0.0,0.0,0.0,0.0,0.0,0.0,0.0,0.0,0.0,0.0,0.0,0.0,0.0,0.0,0.0,0.0,0.0,0.0,0.0,0.0,0.0,0.0,0.0,0.0,0.0,0.0,0.0,0.0,0.0,0.0,0.0,0.0,0.0,0.0,0.0,0.0,0.0,0.0,0.0,0.0,0.0,0.0,0.0,0.0,0.0,0.0,0.0,0.0,0.0,0.0,0.0,0.0,0.0,0.0,0.0,0.0,0.0,0.0,0.0,0.0,0.0,0.0,0.0,3.4657,3.7276,3.8404,3.7154,3.7935,3.781,3.6007,3.5012,3.3675,3.1866,0.0,0.0,0.0,0.0,0.0,0.0,0.0,0.0,0.0,0.0,0.0,0.0,0.0,0.0,0.0,0.0,0.0,0.0,0.0,0.0,0.0,0.0,0.0,0.0,0.0,0.0,0.0,0.0,0.0,0.0,0.0,0.0,0.0,0.0,0.0,0.0,0.0,0.0,0.0,0.0,0.0,0.0,0.0,0.0,0.0,0.0,0.0,0.0,0.0,0.0,0.0,0.0,0.0,0.0,0.0,0.0,0.0,0.0,0.0,0.0,0.0,0.0,0.0,0.0,0.0,0.0,0.0,0.0,0.0,0.0,0.0,0.0,0.0,0.0,0.0,0.0,0.0,0.0,0.0,0.0,0.0,0.0,0.0,0.0,0.0,0.0,0.0,0.0,0.0,0.0,0.0,0.0,0.0,0.0,0.0,0.0,0.0,0.0,0.0,0.0,0.0,0.0,3.5043,3.8003,3.9367,3.8013,3.8653,3.8592,3.7117,3.5831,3.4297,3.251,0.0,0.0,0.0,0.0,0.0,0.0,0.0,0.0,0.0,0.0,0.0,0.0,0.0,0.0,0.0,0.0,0.0,0.0,0.0,0.0,0.0,0.0,0.0,0.0,0.0,0.0,0.0,0.0,0.0,0.0,0.0,0.0,0.0,0.0,0.0,0.0,0.0,0.0,0.0,0.0,0.0,0.0,0.0,0.0,0.0,0.0,0.0,0.0,0.0,0.0,0.0,0.0,0.0,0.0,0.0,0.0,0.0,0.0,0.0,0.0,0.0,0.0,0.0,0.0,0.0,0.0,0.0,0.0,0.0,0.0,0.0,0.0,0.0,0.0,0.0,0.0,0.0,0.0,0.0,0.0,0.0,0.0,0.0,0.0,0.0,0.0,0.0,0.0,0.0,0.0,0.0,0.0,0.0,0.0,0.0,0.0,0.0,0.0,0.0,0.0,0.0,0.0,3.5471,3.8581,4.0127,3.9122,3.9336,3.9311,3.8645,3.6682,3.4881,3.3451,0.0,0.0,0.0,0.0,0.0,0.0,0.0,0.0,0.0,0.0,0.0,0.0,0.0,0.0,0.0,0.0,0.0,0.0,0.0,0.0,0.0,0.0,0.0,0.0,0.0,0.0,0.0,0.0,0.0,0.0,0.0,0.0,0.0,0.0,0.0,0.0,0.0,0.0,0.0,0.0,0.0,0.0,0.0,0.0,0.0,0.0,0.0,0.0,0.0,0.0,0.0,0.0,0.0,0.0,0.0,0.0,0.0,0.0,0.0,0.0,3.7126,3.5707,0.0,0.0,0.0,0.0,0.0,0.0,0.0,0.0,0.0,0.0,0.0,0.0,0.0,0.0,0.0,0.0,0.0,0.0,0.0,0.0,0.0,0.0,0.0,0.0,0.0,0.0,0.0,0.0,0.0,0.0,0.0,0.0,0.0,0.0,0.0,0.0,0.0,0.0,0.0,0.0,3.6118,3.9265,4.0799,3.9793,4.0056,4.004,3.9333,3.7786,3.6045,3.4053,3.1699,0.0,0.0,0.0,0.0,0.0,0.0,0.0,0.0,0.0,0.0,0.0,0.0,0.0,0.0,0.0,0.0,0.0,0.0,0.0,0.0,0.0,0.0,0.0,0.0,0.0,0.0,0.0,0.0,0.0,0.0,0.0,0.0,0.0,0.0,0.0,0.0,0.0,0.0,0.0,0.0,0.0,0.0,0.0,0.0,0.0,0.0,0.0,0.0,0.0,0.0,0.0,0.0,0.0,0.0,0.0,0.0,0.0,0.0,0.0,3.9661,3.7935,0.0,0.0,0.0,0.0,0.0,0.0,0.0,0.0,0.0,0.0,0.0,0.0,0.0,0.0,0.0,0.0,0.0,0.0,0.0,0.0,0.0,0.0,0.0,0.0,0.0,0.0,0.0,0.0,0.0,0.0,0.0,0.0,0.0,0.0,0.0,0.0,0.0,0.0,0.0,0.0,3.7201,4.0087,4.1716,4.1404,4.112,4.0787,4.0459,3.8756,3.6921,3.5119,3.2745,0.0,0.0,0.0,0.0,0.0,0.0,0.0,0.0,0.0,0.0,0.0,0.0,0.0,0.0,0.0,0.0,0.0,0.0,0.0,0.0,0.0,0.0,0.0,0.0,0.0,0.0,0.0,0.0,0.0,0.0,0.0,0.0,0.0,0.0,0.0,0.0,0.0,0.0,0.0,0.0,0.0,0.0,0.0,0.0,0.0,0.0,0.0,0.0,0.0,0.0,0.0,0.0,0.0,4.5408,4.5898,4.5898,4.6029,4.6421,4.6746,4.3653,4.1917,4.1215,3.9877,0.0,0.0,0.0,0.0,0.0,0.0,0.0,0.0,0.0,0.0,0.0,0.0,0.0,0.0,0.0,0.0,0.0,0.0,0.0,0.0,0.0,0.0,4.0927,4.0201,3.9534,3.8524,3.6288,0.0,0.0,0.0,0.0,0.0,0.0,0.0,0.0,0.0,0.0,0.0,3.8422,4.0871,4.2483,4.2976,4.2194,4.1654,4.1498,3.97,3.7908,3.6339,3.3862,3.195,0.0,0.0,0.0,0.0,0.0,0.0,0.0,0.0,0.0,0.0,0.0,0.0,0.0,0.0,0.0,0.0,0.0,0.0,0.0,0.0,0.0,0.0,0.0,0.0,0.0,0.0,0.0,0.0,0.0,0.0,0.0,0.0,3.5998,3.6088,0.0,0.0,0.0,0.0,0.0,0.0,0.0,0.0,0.0,0.0,0.0,0.0,0.0,4.3822,4.4907,4.6287,4.7078,4.7276,4.8795,4.9491,4.9524,5.0187,5.0518,5.055,4.9422,0.0,4.4205,4.2778,0.0,0.0,0.0,0.0,0.0,0.0,0.0,0.0,0.0,0.0,0.0,0.0,0.0,0.0,0.0,0.0,0.0,0.0,0.0,0.0,0.0,0.0,4.3861,4.3057,4.2787,4.2625,4.2233,3.9807,3.7466,3.6696,3.5404,3.4011,0.0,0.0,0.0,0.0,0.0,0.0,3.9253,4.1227,4.2537,4.3121,4.2948,4.2534,4.1899,4.0996,3.9525,3.7443,3.5807,3.3985,3.1897,3.0221,0.0,0.0,0.0,0.0,0.0,0.0,0.0,0.0,0.0,0.0,0.0,0.0,0.0,0.0,0.0,0.0,0.0,0.0,0.0,0.0,0.0,0.0,0.0,0.0,0.0,0.0,0.0,0.0,0.0,3.6184,3.7704,3.8093,3.8362,3.8222,0.0,0.0,0.0,0.0,0.0,0.0,0.0,0.0,0.0,4.3635,4.584,4.7513,4.8507,5.1247,5.2629,5.2767,5.3945,5.4317,5.3948,5.425,5.4183,5.3745,5.3409,5.1932,4.9493,4.635,4.4479,4.3391,0.0,0.0,0.0,0.0,4.1152,4.1478,4.1807,4.2514,4.3281,4.3156,0.0,0.0,0.0,0.0,0.0,0.0,0.0,4.2692,4.3031,4.4756,4.6244,4.55,4.4993,4.4688,4.4688,4.317,4.1352,3.9747,3.8262,3.6918,3.5877,3.4141,0.0,0.0,0.0,3.7802,4.029,4.1963,4.3206,4.3928,4.3507,4.2941,4.22,4.1459,4.0246,3.8461,3.7398,3.5981,3.4105,3.2622,3.1294,0.0,0.0,0.0,0.0,0.0,0.0,0.0,0.0,0.0,0.0,0.0,0.0,0.0,0.0,0.0,0.0,0.0,0.0,0.0,0.0,0.0,0.0,0.0,0.0,0.0,0.0,0.0,0.0,3.8065,3.9493,4.0004,4.0214,4.0118,0.0,0.0,0.0,0.0,0.0,0.0,4.4036,4.4194,4.5,4.6655,4.9023,5.0886,5.2092,5.5208,5.685,5.6923,5.7777,5.7881,5.7374,5.7374,5.6968,5.6258,5.6089,5.5277,5.3754,4.9856,4.7758,4.6855,4.5554,4.5153,4.532,4.532,4.5454,4.5621,4.5621,4.6179,4.684,4.6764,4.5913,4.4682,4.3308,0.0,0.0,0.0,0.0,4.4857,4.4857,4.638,4.7736,4.7225,4.665,4.6278,4.6278,4.5669,4.4485,4.2219,4.073,3.9614,3.887,3.7483,0.0,3.7787,3.887,4.0087,4.1576,4.2895,4.3944,4.4547,4.4045,4.3335,4.2388,4.1813,4.0832,3.9377,3.8599,3.7516,3.5994,3.4675,3.3288,3.1799,0.0,0.0,0.0,0.0,0.0,0.0,0.0,0.0,0.0,0.0,0.0,0.0,0.0,0.0,0.0,0.0,0.0,0.0,0.0,0.0,0.0,0.0,0.0,0.0,0.0,0.0,0.0,0.0,0.0,4.1856,4.2439,0.0,0.0,0.0,0.0,4.3933,4.4296,4.5108,4.6734,4.7241,4.8314,5.0167,5.1638,5.3522,5.5721,5.6746,5.7446,5.7848,5.8592,5.893,5.8896,5.8896,5.849,5.7746,5.7036,5.6325,5.5377,5.301,5.1185,4.9799,4.9055,4.9156,4.9765,4.9765,5.0238,5.0815,5.0815,5.132,5.1827,5.1117,4.8987,4.6413,4.4953,4.3876,0.0,0.0,4.4451,4.5635,4.5635,4.6786,4.7872,4.7838,4.7804,4.777,4.777,4.7225,4.6007,4.3713,4.2658,4.188,4.117,0.0,3.9309,4.0764,4.1035,4.1644,4.3105,4.4012,4.4581,4.4615,4.4581,4.3938,4.2422,4.2252,4.161,4.0146,3.9368,3.8261,3.6795,3.5926,3.4788,3.3322,3.1913,0.0,0.0,0.0,0.0,0.0,0.0,0.0,0.0,0.0,0.0,0.0,0.0,0.0,0.0,0.0,0.0,0.0,0.0,0.0,0.0,0.0,0.0,0.0,0.0,0.0,0.0,0.0,0.0,4.4954,4.5341,0.0,4.5282,4.4628,4.4973,4.6734,4.7696,4.8852,5.0368,5.1021,5.2109,5.3733,5.5303,5.6752,5.8053,5.9572,6.0376,6.0531,6.0951,6.0926,6.0486,6.0486,5.981,5.8592,5.8355,5.7543,5.6359,5.5547,5.4329,5.2909,5.2198,5.2063,5.23,5.23,5.2469,5.2604,5.2097,5.2435,5.2942,5.2164,5.0541,4.8815,4.8304,4.7293,4.6384,4.6887,4.7733,4.8409,4.7936,4.8578,4.9187,4.8714,4.8612,4.8477,4.8007,4.7669,4.7124,4.5838,4.4587,4.3701,4.3403,4.2117,4.1305,4.1813,4.232,4.2997,4.4045,4.4445,4.4784,4.5263,4.4857,4.4147,4.3098,4.2557,4.188,4.0865,3.9648,3.8531,3.755,3.6772,3.5656,3.4134,3.3139,3.2043,0.0,0.0,0.0,0.0,0.0,0.0,0.0,0.0,0.0,0.0,0.0,0.0,0.0,0.0,0.0,0.0,0.0,0.0,0.0,0.0,0.0,0.0,0.0,0.0,0.0,4.4123,4.6044,4.722,4.7607,4.7749,4.7782,4.7376,4.7787,4.9466,5.0443,5.1578,5.3036,5.3765,5.4825,5.6316,5.7659,5.8912,5.9998,6.1287,6.1957,6.215,6.2341,6.2144,6.1637,6.1129,6.0351,5.9336,5.8863,5.8084,5.7171,5.7171,5.6596,5.5615,5.4905,5.46,5.4634,5.4905,5.4972,5.4837,5.3822,5.3484,5.3416,5.2875,5.186,5.0845,5.0845,4.9999,4.9123,4.9593,5.0101,5.0371,4.9864,4.9932,4.9965,4.9492,4.9187,4.8883,4.8376,4.8274,4.8139,4.7631,4.6346,4.5359,4.5359,4.4282,4.3436,4.3436,4.3876,4.4282,4.4581,4.4818,4.506,4.5297,4.4891,4.4147,4.3132,4.2591,4.188,4.0899,3.9681,3.8691,3.7936,3.7248,3.6254,3.5043,3.4066,3.2828,3.1404,0.0,0.0,0.0,0.0,0.0,0.0,0.0,0.0,0.0,0.0,0.0,0.0,0.0,0.0,0.0,0.0,0.0,0.0,0.0,0.0,0.0,0.0,0.0,4.3994,4.6077,4.7786,4.8524,4.9229,4.9534,4.9293,4.9411,5.0216,5.2056,5.2368,5.3102,5.4494,5.5251,5.6349,5.7806,5.8568,5.9831,6.1669,6.1709,6.1911,6.2381,6.2381,6.2381,6.2313,6.0825,6.0114,5.9979,5.8558,5.7915,5.7881,5.7881,5.7881,5.7814,5.7103,5.6833,5.6934,5.7645,5.7881,5.7645,5.6258,5.4769,5.3551,5.3551,5.2976,5.2334,5.2334,5.186,5.1252,5.1252,5.1252,5.1252,5.1251,5.071,5.0166,5.0132,4.9557,4.9018,4.9018,4.9018,4.9018,4.9018,4.7864,4.6883,4.6819,4.621,4.5737,4.5703,4.5703,0.0,4.475,4.5229,4.5399,4.4716,4.4615,4.4005,4.2455,4.2286,4.1644,4.018,3.9402,3.8672,3.801,3.7262,3.6616,3.6019,3.4672,3.3259,3.1887,0.0,0.0,0.0,0.0,0.0,0.0,0.0,0.0,0.0,0.0,0.0,0.0,0.0,0.0,0.0,0.0,0.0,0.0,0.0,0.0,0.0,4.4594,4.6058,4.628,4.8611,5.0495,5.1251,5.2401,5.309,5.3004,5.3045,5.3284,5.3824,5.439,5.5123,5.6051,5.6779,5.7873,5.9363,5.9724,6.0451,6.1465,6.1756,6.1957,6.2076,6.2302,6.211,6.1603,6.1163,6.0351,5.9302,5.8863,5.8389,5.7881,5.7881,5.7881,5.7881,5.7679,5.7577,5.7611,5.7814,5.7543,5.7036,5.663,5.5513,5.4296,5.4296,5.3788,5.3179,5.3179,5.3044,5.2875,5.2875,5.2875,5.2773,5.2329,5.1681,5.1,5.0546,4.9896,4.935,4.935,4.935,4.935,4.935,4.9044,4.8541,4.7729,4.6989,4.6312,4.5771,4.5703,4.5635,4.5432,4.5094,4.5026,4.5365,4.4919,4.4209,4.32,4.2625,4.1644,4.018,3.8903,3.7902,3.7228,3.6725,3.6512,3.6641,3.5739,3.4837,0.0,0.0,0.0,0.0,0.0,0.0,0.0,0.0,0.0,0.0,0.0,0.0,0.0,0.0,0.0,0.0,0.0,0.0,0.0,0.0,0.0,0.0,4.7076,4.8555,4.8885,5.0279,5.168,5.2705,5.3533,5.4162,5.4456,5.449,5.4622,5.492,5.535,5.6084,5.7077,5.7839,5.88,5.996,6.0414,6.091,6.1506,6.179,6.1957,6.2189,6.1959,6.1626,6.1298,6.0545,5.9768,5.8998,5.8693,5.8287,5.7881,5.7881,5.7881,5.7881,0.0,0.0,0.0,0.0,5.7442,5.6799,5.6799,5.5818,5.46,5.46,5.4093,5.3518,5.3518,5.3518,5.3518,5.3518,5.3518,5.3416,5.3141,5.2416,5.1682,5.142,5.0666,5.0017,5.0017,5.0017,5.0017,5.0017,5.0017,0.0,4.9171,4.8172,4.733,4.6889,4.6277,4.5869,4.5869,4.5224,4.4918,4.536,4.502,4.4442,4.3695,4.2913,0.0,0.0,0.0,3.8274,3.775,3.7671,0.0,0.0,0.0,0.0,0.0,3.6469,0.0,0.0,3.4301,3.5218,0.0,0.0,0.0,0.0,0.0,0.0,0.0,0.0,0.0,0.0,0.0,0.0,0.0,0.0,0.0,0.0,4.9189,5.0585,5.1348,5.1448,5.191,5.3235,5.3566,5.393,5.4556,5.4725,5.5024,5.5648,5.5714,5.6382,5.7839,5.8535,0.0,0.0,0.0,6.1293,6.1669,6.1709,6.1877,6.2206,6.1369,6.0964,6.0917,5.9414,5.874,5.8825,5.8186,5.7881,5.7881,5.7881,5.7881,5.7881,5.7881,5.7881,5.7881,5.7881,5.7476,5.6934,5.6934,0.0,0.0,5.4736,5.4194,5.3551,5.3551,5.3585,5.3585,5.3585,5.3585,5.3584,5.3783,5.3009,5.2209,5.2448,5.1605,5.0751,5.0751,5.0751,5.0751,5.0751,5.0751,5.0751,5.0751,4.9604,4.862,4.8552,4.7283,4.6323,4.6254,4.5569,4.5123,4.5123,4.5123,0.0,4.4094,4.3374,4.262,4.1788,4.0347,3.941,3.9167,3.9412,3.96,3.9704,3.9838,3.9556,3.8933,3.917,3.937,3.957,3.7737,3.7948,0.0,0.0,0.0,0.0,0.0,0.0,0.0,0.0,0.0,0.0,0.0,0.0,0.0,0.0,0.0,4.9291,5.0484,5.1348,5.2111,5.221,5.2473,5.3301,5.4423,5.5218,5.535,5.5951,5.6316,5.6481,5.6481,5.7111,5.8601,5.8833,5.9496,6.0854,6.1185,6.1383,6.1465,6.1756,6.1575,6.0924,6.0981,0.0,5.8945,5.8757,5.8395,5.7864,5.7876,5.7881,5.7881,5.7881,5.7881,5.7881,5.7881,5.7881,5.7881,5.7881,5.7814,5.7679,5.7679,5.6731,5.5513,5.5687,5.4771,5.3684,5.3849,5.3882,0.0,5.3882,5.3882,5.398,5.4397,5.3506,5.2596,5.3028,5.2083,5.1114,5.1114,5.1114,5.1114,5.1114,5.1114,5.1114,5.1114,5.0619,5.0033,4.9466,4.8566,4.7727,4.7159,4.6364,4.591,4.591,4.591,4.5596,4.4827,4.4617,4.3978,4.2648,4.1231,4.0532,4.0664,4.0233,4.0069,4.0311,4.0347,4.06,4.1105,4.1775,4.2519,4.3192,4.0077,3.9896,0.0,0.0,0.0,0.0,0.0,0.0,0.0,0.0,0.0,0.0,0.0,4.391,4.6191,0.0,4.9459,5.0551,5.1645,5.234,5.2409,5.2409,5.2638,5.3334,5.4063,5.4787,5.5516,5.5951,5.6316,5.6647,5.668,5.7177,5.827,5.8336,5.8866,5.996,6.0115,6.0196,6.0284,6.0485,6.0403,6.0035,5.97,5.9131,5.8394,5.814,5.785,5.7625,5.7808,5.7881,5.7881,5.7881,5.7881,5.7881,5.7881,5.7881,5.7881,5.7881,5.7881,5.7881,5.7881,5.6934,5.5716,5.5926,5.511,5.4074,5.4269,5.4523,5.4676,5.4676,5.4676,5.4769,5.5074,5.4215,5.3337,5.3664,5.2779,5.1835,5.1835,5.1835,5.1835,5.1835,5.1835,5.1835,5.1835,5.1701,5.1332,5.0531,4.9738,4.8998,4.8222,4.7446,4.6811,4.6398,4.6363,4.6187,4.5823,4.5435,4.4752,4.3633,4.2973,4.2739,4.2926,4.2765,4.2727,4.2899,4.2918,4.3099,4.3498,4.3896,4.4334,4.4771,4.3006,4.2936,0.0,0.0,0.0,0.0,0.0,0.0,0.0,3.9975,4.0763,4.3416,4.5015,4.652,4.8331,5.0321,5.1687,5.1713,5.2672,5.3169,5.2473,5.2409,5.2572,5.3135,5.3334,5.393,5.5251,5.5516,5.5918,5.6614,5.668,5.7011,5.774,5.7806,5.8138,5.8866,5.8899,5.898,5.9139,5.9179,5.9197,5.9148,5.8464,5.8097,5.8045,5.752,5.7402,5.7551,5.7808,5.7881,5.7881,5.7881,5.7881,5.7881,5.7881,5.7881,5.7881,5.7881,5.7881,5.7918,5.7918,5.697,5.5786,5.6098,5.5408,5.4548,5.4799,5.5164,5.549,5.549,5.549,5.5549,5.5687,5.4827,5.4008,5.4225,5.3375,5.248,5.248,5.248,5.248,5.248,5.248,5.248,5.248,5.248,5.2269,5.1561,5.0809,5.0097,4.9457,4.8567,4.7749,4.7109,4.6931,4.6824,4.6824,4.6219,4.5601,4.5018,4.4957,4.5014,4.512,4.5215,4.5228,4.5309,4.5309,4.5381,4.5526,4.5526,4.5599,4.578,4.578,4.5787,3.8031,3.9066,4.0709,4.134,4.1638,4.2077,0.0,4.3322,4.4077,4.6851,4.7854,4.8985,5.1409,5.2111,5.2475,5.3069,5.3301,5.3169,5.2473,5.2409,5.2442,5.2473,5.3036,5.3732,5.4523,5.5218,5.5918,5.6614,5.668,5.7011,5.774,5.7806,5.8138,5.8866,5.8899,5.8899,5.894,5.9099,5.8806,5.7984,5.8075,5.7676,5.689,5.7172,5.7327,5.7364,5.7735,5.7881,5.7881,5.7881,5.7881,5.7881,5.7881,5.7881,5.7881,5.7881,5.7881,5.7918,5.8099,5.7184,5.6064,5.6705,5.5958,5.4953,5.5467,5.57,5.5844,5.5844,5.5844,5.5901,5.6146,5.5223,5.4225,5.4514,5.352,5.248,5.248,5.248,5.248,5.248,5.248,5.248,5.248,5.248,5.2457,5.2364,5.1677,5.1135,5.1026,4.9725,4.8728,4.8656,4.8005,4.7572,4.7572,4.75,4.7413,4.734,4.6675,4.6298,4.6298,4.5651,4.5289,4.5309,4.5309,4.5635,4.6359,4.6359,4.6721,4.7446,4.7446,4.7047,4.0221,4.1547,4.3284,4.4072,4.4911,4.5734,4.6276,4.6311,4.6846,4.8982,5.0162,5.1272,5.2702,5.3699,5.4096,5.35,5.3765,5.3665,5.2539,5.2409,5.2409,5.2409,5.2638,5.3102,5.3798,5.4523,5.5251,5.6017,5.6448,5.6812,5.7144,5.7144,5.7276,5.7608,5.7608,5.7608,5.7608,5.7686,5.752,5.7144,5.726,5.7133,5.6872,5.7176,5.7439,5.7662,5.7808,5.7881,5.7881,5.7881,5.7881,5.7881,5.7881,5.7881,5.7881,5.7881,5.7881,5.7918,5.8099,5.7395,5.6436,5.6965,5.6484,5.578,5.6126,5.6429,5.6671,5.6671,5.6671,5.6697,5.6767,5.5728,5.465,5.4749,5.3592,5.248,5.248,5.248,5.248,5.248,5.248,5.248,5.248,5.248,5.248,5.248,5.219,5.1828,5.1357,5.0705,4.9945,4.8981,4.8185,4.7699,4.7699,4.7699,4.7699,4.7699,4.7373,4.7192,4.7192,4.6902,4.6721,4.6721,4.6721,4.6866,4.7192,4.7192,4.7373,4.7699,4.7699,4.7518,4.2115,4.3548,4.5018,4.6035,4.722,4.8257,4.8589,4.8651,4.9085,5.0573,5.1691,5.2572,5.3301,5.4258,5.4622,5.3599,5.3864,5.3798,5.2539,5.2409,5.2409,5.2409,5.2409,5.2572,5.3069,5.3798,5.4589,5.5516,5.6084,5.6481,5.668,5.668,5.668,5.668,5.668,5.668,5.668,5.668,5.668,5.668,5.6757,5.6872,5.7025,5.7252,5.7588,5.7881,5.7881,5.7881,5.7881,5.7881,5.7881,5.7881,5.7881,5.7881,5.7881,5.7881,5.7881,5.7884,5.7933,5.7398,5.6731,5.7007,5.6758,5.6429,5.6617,5.6933,5.7188,5.7188,5.7188,5.7188,5.7188,5.6066,5.4907,5.4907,5.3675,5.248,5.248,5.248,5.248,5.248,5.248,5.248,5.248,5.248,5.248,5.248,5.248,5.2299,5.1719,5.1249,5.0343,4.8728,4.8061,4.7699,4.7699,4.7699,4.7699,4.7699,4.7699,4.7699,4.7699,4.7699,4.7699,4.7699,4.7699,4.7699,4.7699,4.7699,4.7699,4.7699,4.7699,4.7699,4.3265,4.4578,4.5602,4.6928,4.8043,4.9018,4.9593,5.0075,5.0634,5.1816,5.223,5.2572,5.3301,5.3467,5.3467,5.3434,5.3434,5.3202,5.2473,5.2409,5.2409,5.2409,5.2409,5.2407,5.2442,5.3036,5.4063,5.5483,5.5615,5.5951,5.6647,5.668,5.668,5.668,5.668,5.668,5.668,5.668,5.668,5.668,5.6911,5.6987,5.7025,5.7402,5.7698,5.7881,5.7881,5.7881,5.7881,5.7881,5.7881,5.7881,5.7881,5.7881,5.7881,5.7881,5.7881,5.7853,5.7462,5.7156,5.6888,5.6846,5.6716,5.6653,5.6881,5.7087,5.7188,5.7188,5.7188,5.7188,5.7188,5.6066,5.4907,5.4907,5.3675,5.248,5.248,5.248,5.248,5.248,5.248,5.248,5.248,5.248,5.248,5.248,5.248,5.248,5.248,5.1104,4.951,4.7916,4.7714,4.7699,4.7699,4.7699,4.7699,4.7699,4.7699,4.7699,4.7699,4.7699,4.7699,4.7699,4.7699,4.7699,4.7699,4.7699,4.7699,4.7699,4.7699,4.7699,4.3413,4.4974,4.6467,4.7621,4.9131,5.0478,5.0783,5.1332,5.1828,5.2233,5.2338,5.2572,5.3301,5.34,5.34,5.34,5.34,5.3169,5.2473,5.2409,5.2409,5.2409,5.2409,5.2409,5.2409,5.3003,5.3831,5.4787,5.5317,5.5951,5.6647,5.668,5.668,5.668,5.668,5.668,5.668,5.668,5.6757,5.6911,5.7252,5.7402,5.7402,5.7662,5.7845,5.7881,5.7881,5.7881,5.7881,5.7881,5.7881,5.7881,5.7881,5.7881,5.7884,5.7484,5.735,5.7352,5.7326,5.7011,5.6663,5.6875,5.6954,5.701,5.7087,5.7163,5.7188,5.7188,5.7188,5.7188,5.7188,5.6066,5.4907,5.4907,5.3675,5.248,5.248,5.248,5.248,5.248,5.248,5.248,5.248,5.248,5.248,5.248,5.248,5.248,5.248,5.1538,5.0488,4.9401,4.8822,4.8257,4.7772,4.7699,4.7699,4.7699,4.7699,4.7699,4.7699,4.7699,4.7699,4.7699,4.7699,4.7699,4.7699,4.7699,4.7699,4.7699,4.7699,4.7699,4.4389,4.5738,4.7015,4.8146,4.956,5.0761,5.1102,5.1692,5.2128,5.1936,5.1742,5.1744,5.2175,5.2274,5.234,5.2605,5.287,5.287,5.2475,5.2409,5.2409,5.2409,5.2409,5.2409,5.2409,5.2771,5.3467,5.446,5.492,5.5653,5.6647,5.668,5.668,5.668,5.668,5.668,5.668,5.6757,5.6949,5.7214,5.7476,5.7625,5.7698,5.7845,5.7881,5.7881,5.7881,5.7881,5.7881,5.7881,5.7881,5.7881,5.7881,5.7712,5.7478,5.7182,5.6848,5.6543,5.6611,5.6522,5.643,5.6511,5.6767,5.7061,5.7112,5.7163,5.7188,5.7188,5.7188,5.7188,5.7188,5.6066,5.4907,5.4907,5.3675,5.248,5.248,5.248,5.248,5.248,5.248,5.248,5.248,5.248,5.248,5.248,5.248,5.2408,5.2118,5.1611,5.0886,4.98,4.922,4.8547,4.7772,4.7699,4.7699,4.7699,4.7699,4.7699,4.7699,4.7699,4.7699,4.7699,4.7699,4.7699,4.7699,4.7699,4.7699,4.7699,4.7699,4.7699,4.6003,4.6826,4.733,4.8533,4.9309,4.9986,5.0608,5.1215,5.1569,5.1026,5.0446,5.0055,5.0088,5.0088,5.032,5.1082,5.1879,5.2376,5.2373,5.2409,5.2407,5.2475,5.244,5.244,5.2473,5.244,5.3036,5.4423,5.449,5.5156,5.6614,5.668,5.668,5.668,5.668,5.668,5.668,5.6911,5.7214,5.7588,5.7625,5.7698,5.7881,5.7881,5.7881,5.7881,5.7881,5.7881,5.7881,5.7881,5.7881,5.7881,5.7848,5.7408,5.6835,5.6944,5.6371,5.5497,5.5403,5.5756,5.6208,5.583,5.6182,5.6776,5.6933,5.7061,5.7188,5.7188,5.7188,5.7188,5.7188,5.6066,5.4907,5.4907,5.3675,5.248,5.248,5.248,5.248,5.248,5.248,5.248,5.248,5.248,5.248,5.248,5.248,5.2226,5.1466,5.1357,5.0741,4.9199,4.9018,4.8656,4.7823,4.7808,4.7808,4.7751,4.7808,4.7844,4.7844,4.7772,4.7751,4.7751,4.7735,4.7699,4.7699,4.7714,4.7751,4.7751,4.7808,4.7844,4.6214,4.7169,4.7959,4.797,4.8438,4.9066,4.9479,5.0039,5.0314,4.9779,4.8658,4.7901,4.8465,4.81,4.8332,5.0187,5.1082,5.1779,5.2343,5.2409,5.2572,5.3102,5.3169,5.3367,5.393,5.3467,5.3765,5.5185,5.4787,5.5156,5.6614,5.668,5.668,5.668,5.668,5.668,5.668,5.7063,5.7364,5.7588,5.7735,5.7845,5.7881,5.7881,5.7881,5.7881,5.7881,5.7881,5.7881,5.7881,5.7881,5.7848,5.7306,5.6968,5.6699,5.5894,5.5648,5.5686,5.5261,5.5327,5.5589,5.5502,5.5922,5.6447,5.6653,5.6933,5.7188,5.7188,5.7188,5.7188,5.7188,5.6066,5.4907,5.4907,5.3675,5.248,5.248,5.248,5.248,5.248,5.248,5.248,5.248,5.248,5.248,5.248,5.248,5.2408,5.2226,5.219,5.1792,5.0778,5.0669,5.0126,4.8692,4.9148,4.922,4.8619,4.9148,4.9474,4.9474,4.8931,4.8583,4.8583,4.8004,4.7699,4.7699,4.8294,4.8583,4.8619,4.922,4.9474,4.71,4.7728,4.8295,4.8079,4.8219,4.8388,4.8571,4.8934,4.8973,4.7899,4.675,4.6046,4.6477,4.6212,4.6643,4.8895,5.0121,5.1048,5.1812,5.244,5.297,5.3367,5.3699,5.4063,5.4494,5.4162,5.4357,5.5483,5.492,5.5156,5.6614,5.668,5.668,5.668,5.668,5.6796,5.6949,5.7176,5.7439,5.7735,5.7845,5.7881,5.7881,5.7881,5.7881,5.7881,5.7881,5.7712,5.7408,5.7408,5.7239,5.69,5.6494,5.6122,5.5751,5.5247,5.5327,5.5606,5.5279,5.5432,5.578,5.5665,5.5894,5.6257,5.6564,5.6907,5.7188,5.7188,5.7188,5.7188,5.7188,5.6283,5.5377,5.5377,5.4436,5.3458,5.3096,5.3023,5.2915,5.2552,5.248,5.248,5.248,5.248,5.248,5.248,5.248,5.248,5.248,5.248,5.219,5.1393,5.1285,5.0633,4.9018,4.9655,4.9764,4.8945,4.9655,5.0112,5.0112,4.9655,4.9257,4.8909,4.8822,4.8568,4.8221,4.9039,4.9438,4.9438,4.9872,5.0112,4.8297,4.8416,4.8431,4.8561,4.8132,4.7745,4.766,4.7697,4.7353,4.5782,4.4817,4.4257,4.4257,4.4324,4.5086,4.7206,4.8895,5.022,5.105,5.2373,5.3334,5.3533,5.4192,5.4655,5.4792,5.4725,5.492,5.5719,5.5052,5.5256,5.6614,5.668,5.668,5.668,5.668,5.6872,5.7289,5.7289,5.7514,5.7881,5.7881,5.7881,5.7881,5.7881,5.7881,5.7881,5.7881,5.7476,5.6799,5.6799,5.6393,5.5716,5.5615,5.5175,5.4635,5.4872,5.5107,5.5343,5.5402,5.5808,5.6229,5.6014,5.6014,5.6209,5.6644,5.6959,5.7188,5.7188,5.7188,5.7188,5.7188,5.6609,5.5993,5.5993,5.545,5.4725,5.4001,5.3784,5.3458,5.2661,5.248,5.248,5.248,5.248,5.248,5.248,5.248,5.248,5.248,5.248,5.2226,5.1538,5.1466,5.085,4.9365,4.9945,5.009,4.9271,4.9981,5.0438,5.0438,5.0329,4.9908,4.9257,4.98,4.9764,4.9075,4.9872,5.0257,5.0257,5.0365,5.0438,4.9224,4.9149,4.9,4.8461,4.7456,4.6533,4.6295,4.5656,0.0,4.3737,4.2671,4.1972,4.1972,4.2469,4.3429,4.5019,4.7007,4.8862,5.022,5.1645,5.3003,0.0,5.4953,5.5653,5.6249,5.5786,5.5719,5.6448,5.5852,5.5819,5.6647,5.668,5.668,5.668,5.668,5.6872,5.7289,5.7289,5.7514,5.7881,5.7881,5.7881,5.7881,5.7881,5.7881,5.7881,5.7881,5.7476,5.6799,5.6799,5.6393,5.5649,5.504,5.4702,5.4567,5.4292,5.4532,5.5044,5.5378,5.5758,5.6154,5.6098,5.6182,5.6311,5.6537,5.6881,5.7188,5.7188,5.7188,5.7188,5.7188,5.6609,5.5993,5.5993,5.545,5.487,5.4725,5.4182,5.3458,5.2661,5.248,5.248,5.248,5.248,5.248,5.248,5.248,5.248,5.248,5.248,5.2444,5.2299,5.2299,5.19,5.0959,5.1611,5.1719,5.0923,5.1647,5.2082,5.2082,5.143,5.1031,5.0886,5.0343,5.0039,4.9872,5.0705,5.1067,5.1104,5.1756,5.2082,4.9853,4.9523,4.9239,4.891,4.7549,4.6137,4.5526,0.0,0.0,4.2169,4.1046,4.0415,4.0812,4.0845,4.1541,4.3761,4.5649,4.7504,4.9392,5.1545,5.3301,5.4357,5.5487,5.6316,5.6647,5.6382,5.6316,5.6647,5.6382,5.6316,5.668,5.668,5.668,5.668,5.668,5.6872,5.7289,5.7289,5.7514,5.7881,5.7881,5.7881,5.7881,5.7881,5.7881,5.7881,5.7881,5.7273,5.6258,5.6258,5.5581,5.4532,5.416,5.4025,5.3991,5.3886,5.4205,5.4672,5.5044,5.5636,5.6201,5.632,5.6402,5.651,5.6724,5.6984,5.7188,5.7188,5.7188,5.7188,5.7188,5.6899,5.6609,5.6609,5.6029,5.5377,5.4979,5.4291,5.3458,5.2661,5.248,5.248,5.248,5.248,5.248,5.248,5.248,5.248,5.248,5.248,5.248,5.248,5.248,5.2154,5.1357,5.2045,5.2154,5.1357,5.2045,5.248,5.248,5.2118,5.1719,5.1285,5.1321,5.114,5.0728,5.1538,5.19,5.1937,5.2299,5.248,5.0226,4.9763,4.9239,4.897,4.7369,4.5597,4.4497,4.3364,0.0,4.0546,3.9483,3.9017,3.9613,3.9348,3.9852,4.2303,4.4059,4.5881,4.8067,5.0883,5.3102,5.4162,5.5587,5.6514,5.668,5.668,5.668,5.668,5.668,5.668,5.668,5.668,5.668,5.668,5.668,5.6872,5.7289,5.7289,5.7514,5.7881,5.7881,5.7881,5.7881,5.7881,5.7881,5.7881,5.7881,5.707,5.5681,5.5681,5.4837,5.3518,5.3518,5.3518,5.3551,5.3651,5.3979,5.4394,5.4738,5.5432,5.6146,5.6402,5.6626,5.6786,5.6959,5.7112,5.7188,5.7188,5.7188,5.7188,5.7188,5.7188,5.7152,5.6971,5.6464,5.574,5.4834,5.4146,5.3458,5.2661,5.248,5.248,5.248,5.248,5.248,5.248,5.248,5.248,5.248,5.248,5.248,5.248,5.248,5.2226,5.1611,5.2118,5.2226,5.1574,5.2154,5.248,5.248,5.248,5.219,5.1574,5.219,5.219,5.1538,5.219,5.248,5.248,5.248,5.248,5.0345,4.9763,4.903,4.7788,4.5992,4.4068,4.2531,0.0,3.9282,3.8282,3.7688,3.7334,3.74,3.7897,3.8626,3.9547,4.1442,4.3595,4.5781,4.863,5.1247,5.3268,0.0,5.5984,5.6614,5.668,5.668,5.668,5.668,5.668,5.668,5.668,5.668,5.668,5.668,5.6872,5.7289,5.7289,5.7514,5.7881,5.7881,5.7881,5.7881,5.7881,5.7881,5.7881,5.7881,5.707,5.5681,5.5681,5.4837,5.3518,5.3518,5.3518,5.3551,5.3651,5.3849,5.411,5.4554,5.5044,5.5578,5.5978,5.6617,5.7138,5.7163,5.7188,5.7188,5.7188,5.7188,5.7188,5.7188,5.7188,5.7007,5.6283,5.6029,5.5595,5.4146,5.3748,5.3458,5.2661,5.248,5.248,5.248,5.248,5.248,5.248,5.248,5.248,5.248,5.248,5.248,5.248,5.248,5.248,5.2408,5.2444,5.248,5.2371,5.2444,5.248,5.248,5.248,5.248,5.2371,5.2444,5.2444,5.2371,5.2444,5.248,5.248,5.248,5.248,4.9733,4.9464,4.9,4.7638,4.5813,4.3888,4.2289,4.0488,3.8936,3.7995,3.7069,3.6572,3.7036,3.697,3.74,3.905,4.0713,4.2634,4.4821,4.7669,5.0021,5.1347,5.3099,5.4394,5.4692,5.5521,5.6216,5.6647,5.668,5.668,5.668,5.668,5.668,5.668,5.668,5.6872,5.7289,5.7289,5.7514,5.7881,5.7881,5.7645,5.7239,5.7239,5.7002,5.6596,5.6596,5.5987,5.504,5.504,5.4431,5.3518,5.3518,5.3518,5.3518,5.3551,5.3618,5.3751,5.4013,5.4394,5.4857,5.5249,5.5978,5.6688,5.6984,5.7138,5.7188,5.7188,5.7188,5.7188,5.7188,5.7188,5.7116,5.679,5.6717,5.6283,5.4762,5.4436,5.4037,5.2733,5.248,5.248,5.248,5.248,5.248,5.248,5.248,5.248,5.248,5.248,5.248,5.248,5.248,5.248,5.248,5.248,5.248,5.248,5.248,5.248,5.248,5.248,5.248,5.248,5.248,5.248,5.248,5.248,5.248,5.248,5.248,5.248,4.8745,4.903,4.891,4.713,4.5364,4.3528,4.1745,3.9936,3.8337,3.739,3.6358,3.5843,3.6373,3.6042,3.634,3.8354,3.9653,4.1243,4.3429,4.6079,4.8166,4.9127,5.1148,5.2638,5.3069,5.4626,5.5918,5.6614,5.668,5.668,5.668,5.668,5.668,5.668,5.668,5.6872,5.7289,5.7289,5.7514,5.7881,5.7881,5.7509,5.6799,5.6799,5.6393,5.5681,5.5681,5.5277,5.46,5.46,5.416,5.3518,5.3518,5.3518,5.3518,5.3518,5.3518,5.3517,5.3651,5.3979,5.4362,5.4707,5.5461,5.6257,5.6697,5.6984,5.7188,5.7188,5.7188,5.7188,5.7188,5.7188,5.7152,5.6899,5.6826,5.6428,5.487,5.4544,5.4146,5.277,5.248,5.248,5.248,5.248,5.248,5.248,5.248,5.248,5.248,5.248,5.248,5.248,5.248,5.248,5.248,5.248,5.248,5.248,5.248,5.248,5.248,5.248,5.248,5.248,5.248,5.248,5.248,5.248,5.248,5.248,5.248,5.248,4.7489,4.8267,4.867,4.5992,4.4317,4.2719,4.0444,3.8515,3.6918,3.5928,3.5284,3.4916,3.4916,3.4916,3.5413,3.687,3.7765,3.8964,4.1143,4.333,4.5284,4.6742,4.8895,5.0817,5.2277,5.4361,5.5918,5.6614,5.668,5.668,5.668,5.668,5.668,5.668,5.668,5.6872,5.7289,5.7289,5.7514,5.7881,5.7881,5.7509,5.6799,5.6799,5.6393,5.5681,5.5681,5.5277,5.46,5.46,5.416,5.3518,5.3518,5.3518,5.3518,5.3518,5.3518,5.3517,5.3651,5.3849,5.4078,5.4554,5.5224,5.595,5.6229,5.675,5.7188,5.7188,5.7188,5.7188,5.7188,5.7188,5.7007,5.6174,5.5993,5.5595,5.4037,5.3711,5.3458,5.2661,5.248,5.248,5.248,5.248,5.248,5.248,5.248,5.248,5.248,5.248,5.248,5.248,5.248,5.248,5.248,5.248,5.248,5.248,5.248,5.248,5.248,5.248,5.248,5.248,5.248,5.248,5.248,5.248,5.248,5.248,5.248,5.248,4.5334,4.6232,4.6741,4.4496,4.297,4.149,3.9627,3.7805,3.6348,3.58,3.5252,3.4883,3.4883,3.4883,3.5379,3.687,3.7731,3.8931,4.111,4.3297,4.5052,4.6013,4.8564,5.1181,5.3599,5.446,5.5388,5.6614,5.668,5.668,5.668,5.668,5.6448,5.5984,5.5951,5.5908,5.5783,5.5783,5.5998,5.6393,5.6393,5.6021,5.5277,5.5277,5.4905,5.4194,5.4194,5.4059,5.3856,5.3856,5.3721,5.3518,5.3518,5.3518,5.3518,5.3518,5.3518,5.3518,5.3551,5.3618,5.3718,5.411,5.483,5.5607,5.5929,5.6591,5.7188,5.7188,5.7188,5.7188,5.7188,5.7188,5.7152,5.6862,5.6826,5.6391,5.487,5.4508,5.411,5.277,5.248,5.248,5.248,5.248,5.248,5.248,5.248,5.248,5.248,5.248,5.248,5.248,5.248,5.248,5.248,5.248,5.248,5.248,5.248,5.248,5.248,5.248,5.248,5.248,5.248,5.248,5.248,5.248,5.248,5.248,5.248,5.248,4.3,4.4377,4.5095,4.309,4.1803,4.0598,3.8901,3.7342,3.6095,3.5768,3.5252,3.4883,3.4883,3.4883,3.5379,3.687,3.75,3.856,4.0713,4.2899,4.4986,4.6841,4.916,5.1545,5.3864,5.4589,5.5322,5.6216,5.6282,5.615,5.5885,5.5885,5.5591,5.4866,5.5397,5.5518,5.5113,5.5185,5.5364,5.5681,5.5681,5.531,5.46,5.46,5.4194,5.3518,5.3518,5.3518,0.0,5.3518,5.3518,5.3518,5.3518,5.3518,5.3518,5.3518,5.3518,5.3518,5.3518,5.3518,5.3585,5.3882,5.4741,5.5694,5.6237,5.6776,5.7188,5.7188,5.7188,5.7188,5.7188,5.7188,5.7188,5.7188,5.7188,5.679,5.5233,5.4907,5.4436,5.2806,5.248,5.248,5.248,5.248,5.248,5.248,5.248,5.248,5.248,5.248,5.248,5.248,5.248,5.248,5.248,5.248,5.248,5.248,5.248,5.248,5.248,5.248,5.248,5.248,5.248,5.248,5.248,5.248,5.248,5.248,5.248,5.248,0.0,4.2491,4.3569,4.1692,4.0763,3.9847,3.8273,3.7002,0.0,3.5796,3.5277,3.4883,3.4883,3.4949,3.5446,3.687,3.7201,3.803,4.0243,4.2502,4.522,4.8829,5.0485,5.191,5.3367,5.4754,5.5582,5.5582,5.5582,5.5284,5.4523,5.4527,5.4269,5.3723,5.5055,5.5499,5.4982,5.5158,5.5336,5.5512,5.5512,5.5175,5.4499,5.4499,5.416,5.3518,5.3518,5.3518,5.3518,5.3518,5.3518,5.3518,5.3518,5.3518,5.3518,5.3518,5.3518,5.3518,5.3518,5.3518,5.3585,5.3948,5.4926,5.607,5.6933,5.7188,5.7188,5.7188,5.7188,5.7188,5.7188,5.7188,5.7188,5.7188,5.7188,5.679,5.5233,5.4907,5.4436,5.2806,5.248,5.248,5.248,5.248,5.248,5.248,5.248,5.248,5.248,5.248,5.248,5.248,5.248,5.248,5.248,5.248,5.248,5.248,5.248,5.248,5.248,5.248,5.248,5.248,5.248,5.248,5.248,5.248,5.248,5.248,5.248,5.248,3.7375,0.0,4.1003,3.9679,3.9204,3.8866,0.0,3.6624,3.5657,3.6028,3.5462,3.4883,3.4883,3.5346,3.6042,3.697,3.803,3.952,4.1707,4.4887,4.7934,5.0452,5.1614,5.2672,5.4129,5.5052,5.5582,5.5582,5.5582,5.5284,5.4523,5.4638,5.4383,5.3723,5.4343,5.4352,5.3648,5.3717,5.382,5.4025,5.4025,5.3923,5.3754,5.3754,5.3653,5.3518,5.3518,5.3518,5.3518,5.3518,5.3518,5.3518,5.3518,5.3518,5.3518,5.3518,5.3518,5.3518,5.3518,5.3518,5.3685,5.4672,5.5396,5.607,5.6933,5.7188,5.7188,5.7188,5.7188,5.7188,5.7188,5.7188,5.7188,5.7188,5.7188,5.679,5.5233,5.4907,5.4436,5.2806,5.248,5.248,5.248,5.248,5.248,5.248,5.248,5.248,5.248,5.248,5.248,5.248,5.248,5.248,5.248,5.248,5.248,5.248,5.248,5.248,5.248,5.248,5.248,5.248,5.248,5.248,5.248,5.248,5.248,5.248,5.248,5.248,3.5467,3.7323,3.8816,3.797,3.7903,3.7839,3.7002,3.5975,3.5342,3.5693,3.5308,3.5015,3.5346,3.5744,3.6473,3.7864,3.8785,4.0569,4.4145,4.6872,4.9359,5.1617,5.2741,5.3665,5.446,5.5487,5.5819,5.5118,5.5085,5.4659,5.3675,5.3751,5.3695,5.3471,5.368,5.3582,5.3179,5.3314,5.3382,5.3518,5.3518,5.3518,5.3518,5.3518,5.3518,5.3518,5.3518,5.3518,5.3518,5.3518,5.3518,5.3518,5.3518,5.3518,5.3518,5.3518,5.3518,5.3518,5.3518,5.3584,5.3915,5.5009,5.5607,5.607,5.6933,5.7188,5.7188,5.7188,5.7188,5.7188,5.7188,5.7188,5.7116,5.6717,5.6645,5.621,5.4689,5.4363,5.4001,5.2733,5.248,5.248,5.248,5.248,5.248,5.248,5.248,5.248,5.248,5.248,5.248,5.248,5.248,5.248,5.248,5.248,5.248,5.248,5.248,5.248,5.248,5.248,5.248,5.248,5.248,5.248,5.248,5.248,5.248,5.248,5.248,5.248,3.4451,3.5924,3.7188,3.6932,3.7201,3.7341,3.6499,0.0,0.0,0.0,0.0,3.5446,3.6042,3.634,3.7102,3.9017,3.9746,4.1858,4.6828,4.8497,5.0089,5.232,5.3606,5.4361,5.4361,5.5686,5.5918,5.4423,5.4423,5.3937,5.2688,5.2624,5.2799,5.3179,5.3213,5.3247,5.3247,5.3416,5.3518,5.3518,5.3518,5.3518,5.3518,5.3518,5.3518,5.3518,5.3518,5.3518,5.3518,5.3518,5.3518,5.3518,5.3518,5.3518,5.3518,5.3518,5.3518,5.3518,5.3518,5.3718,5.4175,5.5104,5.5607,5.607,5.6933,5.7188,5.7188,5.7188,5.7188,5.7188,5.7188,5.7188,5.7043,5.6355,5.6174,5.574,5.4218,5.3892,5.3603,5.2661,5.248,5.248,5.248,5.248,5.248,5.248,5.248,5.248,5.248,5.248,5.248,5.248,5.248,5.248,5.248,5.248,5.248,5.248,5.248,5.248,5.248,5.248,5.248,5.248,5.248,5.248,5.248,5.248,5.248,5.248,5.248,5.248,3.433,3.5642,3.6814,3.7464,3.8149,3.8654,3.8663,3.787,0.0,0.0,0.0,3.6804,3.6903,3.793,3.8917,3.9249,4.1868,4.505,4.8332,4.9491,5.0618,5.221,5.3102,5.3599,5.3599,5.4887,5.5152,5.3699,5.4125,5.3937,5.2688,5.2764,5.2972,5.3179,5.3382,5.345,5.345,5.345,5.3518,5.3518,5.3518,5.3518,5.3518,5.3518,5.3518,5.3518,5.3518,5.3518,5.3518,5.3518,5.3518,5.3518,5.3518,5.3518,5.3518,5.3518,5.3518,5.3518,5.3518,5.3718,5.4175,5.5004,5.5572,5.607,5.6933,5.7188,5.7188,5.7188,5.7188,5.7188,5.7188,5.7188,5.7152,5.7043,5.7007,5.6573,5.5051,5.4725,5.4291,5.277,5.248,5.248,5.248,5.248,5.248,5.248,5.248,5.248,5.248,5.248,5.248,5.248,5.248,5.248,5.248,5.248,5.248,5.248,5.248,5.248,5.248,5.248,5.248,5.248,5.248,5.248,5.248,5.248,5.248,5.248,5.248,5.248,3.421,3.5397,3.6564,3.8145,3.915,3.965,3.9515,3.8618,3.79,3.8064,3.7581,3.7334,3.8129,3.9183,4.0542,4.2469,4.4854,4.7271,4.9493,5.0388,5.1216,5.2383,5.3039,5.34,5.34,5.4357,5.4556,5.35,5.3732,5.3576,5.2796,5.2834,5.3041,5.3348,5.345,5.3518,5.3518,5.3518,5.3518,5.3518,5.3518,5.3518,5.3518,5.3518,5.3518,5.3518,5.3518,5.3518,5.3518,5.3518,5.3518,5.3518,5.3518,5.3518,5.3518,5.3518,5.3518,5.3518,5.3518,5.3718,5.4175,5.5069,5.5607,5.607,5.6933,5.7188,5.7188,5.7188,5.7188,5.7188,5.7188,5.7188,5.708,5.6645,5.6536,5.6138,5.4581,5.4255,5.3892,5.2733,5.248,5.248,5.248,5.248,5.248,5.248,5.248,5.248,5.248,5.248,5.248,5.248,5.248,5.248,5.248,5.248,5.248,5.248,5.248,5.248,5.248,5.248,5.248,5.248,5.248,5.248,5.248,5.248,5.248,5.248,5.248,5.248,3.4063,3.5211,3.6495,3.8538,3.9641,4.018,4.0087,3.9347,3.8758,3.8897,3.8526,3.846,3.958,4.0542,4.2237,4.5516,4.7139,4.8597,5.0357,5.102,5.1615,5.2451,5.2909,5.3169,5.3169,5.3831,5.3964,5.3235,5.337,5.3318,5.2902,5.2938,5.311,5.3518,5.3518,5.3518,5.3518,5.3518,5.3518,5.3518,5.3518,5.3518,5.3518,5.3518,5.3518,5.3518,5.3518,5.3518,5.3518,5.3518,5.3518,5.3518,5.3518,5.3518,5.3518,5.3518,5.3518,5.3518,5.3518,5.3718,5.4175,5.5104,5.5607,5.607,5.6933,5.7188,5.7188,5.7188,5.7188,5.7188,5.7188,5.7188,5.7043,5.6428,5.6283,5.5921,5.4544,5.4255,5.4001,5.3204,5.3059,5.2987,5.2806,5.2951,5.2987,5.2806,5.2951,5.3059,5.3059,5.2915,5.277,5.277,5.2625,5.248,5.248,5.248,5.248,5.248,5.248,5.248,5.248,5.248,5.248,5.248,5.248,5.248,5.248,5.248,5.248,5.248,5.248,5.248,3.3768,3.5018,3.6594,3.8219,3.9158,3.9899,4.0869,4.064,4.0415,4.1044,4.1143,4.1143,4.1243,4.2406,4.4128,4.6444,4.7471,4.8763,5.0917,5.1282,5.158,5.2343,5.2475,5.244,5.244,5.3069,5.3202,5.2506,5.3216,5.3461,5.2937,5.3076,5.328,5.3518,5.3518,5.3518,5.3518,5.3518,5.3518,5.3518,5.3518,5.3518,5.3518,5.3518,5.3518,5.3518,5.3518,5.3518,5.3518,5.3518,5.3518,5.3518,5.3518,5.3518,5.3518,5.3518,5.3518,5.3518,5.3518,5.3718,5.4175,5.5104,5.5607,5.607,5.6933,5.7188,5.7188,5.7188,5.7188,5.7188,5.7188,5.7188,5.7188,5.7116,5.7116,5.6862,5.6029,5.5812,5.5595,5.487,5.4725,5.4508,5.3748,5.4218,5.4472,5.3748,5.4255,5.4725,5.4725,5.4074,5.3603,5.3603,5.2951,5.248,5.248,5.248,5.248,5.248,5.248,5.248,5.248,5.248,5.248,5.248,5.248,5.248,5.248,5.248,5.248,5.248,5.248,5.248,3.4093,3.4931,3.6092,3.7806,3.8799,3.9863,4.1597,4.1848,4.1905,4.2605,4.2771,4.2903,4.3363,4.4291,4.5682,4.7901,4.8895,5.0022,5.1851,5.2014,5.2146,5.2483,5.2445,5.2445,5.2516,5.2748,5.2853,5.2727,5.3031,5.317,5.3109,5.3144,5.3314,5.3518,5.3518,5.3518,5.3518,5.3518,5.3518,5.3518,5.3518,5.3518,5.3518,5.3518,5.3518,5.3518,5.3518,5.3518,5.3518,5.3518,5.3518,5.3518,5.3518,5.3518,5.3518,5.3518,5.3518,5.3518,5.3518,5.3718,5.4175,5.5069,5.5607,5.607,5.6933,5.7188,5.7188,5.7188,5.7188,5.7188,5.7188,5.7188,5.7188,5.7188,5.7188,5.6971,5.6174,5.5993,5.5776,5.5051,5.4907,5.4653,5.3856,5.4363,5.4653,5.382,5.4399,5.4907,5.4907,5.4653,5.4255,5.3748,5.2987,5.248,5.248,5.248,5.248,5.248,5.248,5.248,5.248,5.248,5.248,5.248,5.248,5.248,5.248,5.248,5.248,5.248,5.248,5.248,3.4768,3.5253,3.5989,3.7649,3.8481,3.9553,4.1972,4.2671,4.3035,4.3827,4.4128,4.439,4.4655,4.5483,4.6709,4.8465,4.9591,5.0752,5.2354,5.2551,5.2516,5.2589,5.2587,5.2587,5.2589,5.2659,5.2729,5.2868,5.2972,5.3041,5.3179,5.3247,5.3348,5.3518,5.3518,5.3518,5.3518,5.3518,5.3518,5.3518,5.3518,5.3518,5.3518,5.3518,5.3518,5.3518,5.3518,5.3518,5.3518,5.3518,5.3518,5.3518,5.3518,5.3518,5.3518,5.3518,5.3518,5.3518,5.3518,5.3718,5.4141,5.5004,5.5572,5.607,5.6933,5.7188,5.7188,5.7188,5.7188,5.7188,5.7188,5.7188,5.7188,5.7188,5.7188,5.7043,5.65,5.6355,5.621,5.574,5.5631,5.5377,5.4544,5.5088,5.5341,5.4544,5.5124,5.5631,5.5631,5.5414,5.4943,5.4146,5.3349,5.2878,5.2878,5.2661,5.248,5.248,5.248,5.248,5.248,5.248,5.248,5.248,5.248,5.248,5.248,5.248,5.248,5.248,5.248,5.248,3.5687,3.5896,3.6373,3.7864,3.8228,3.8964,4.1844,4.3069,4.3797,4.4589,4.5284,4.5582,4.4854,4.5914,4.7139,4.7868,4.926,5.0752,5.2389,5.2589,5.2589,5.2589,5.2764,5.2834,5.2624,5.2799,5.2903,5.2903,5.3076,5.3179,5.3179,5.3382,5.3518,5.3518,5.3518,5.3518,5.3518,5.3518,5.3518,5.3518,5.3518,5.3518,5.3518,5.3518,5.3518,5.3518,5.3518,5.3518,5.3518,5.3518,5.3518,5.3518,5.3518,5.3518,5.3518,5.3518,5.3518,5.3518,5.3518,5.3718,5.4141,5.5004,5.5572,5.607,5.6933,5.7188,5.7188,5.7188,5.7188,5.7188,5.7188,5.7188,5.7188,5.7188,5.7188,5.7188,5.7188,5.7188,5.7188,5.7188,5.7188,5.6935,5.6138,5.6681,5.6935,5.6102,5.6681,5.7188,5.7188,5.65,5.5703,5.4979,5.4182,5.3711,5.3711,5.2951,5.248,5.248,5.248,5.248,5.248,5.248,5.248,5.248,5.248,5.248,5.248,5.248,5.248,5.248,5.248,5.248,3.5246,3.6006,3.7135,3.8593,3.9719,4.095,4.2837,4.386,4.4887,4.6643,4.6775,4.651,4.6278,4.6609,4.7139,4.7868,4.926,5.0621,5.1862,5.236,5.2694,5.2972,5.2938,5.2938,5.3007,5.3076,5.3144,5.3314,5.3382,5.3416,5.3416,5.345,5.3518,5.3518,5.3518,5.3518,5.3518,5.3518,5.3518,5.3518,5.3518,5.3518,5.3518,5.3518,5.3518,5.3518,5.3518,5.3518,5.3518,5.3518,5.3518,5.3518,5.3518,5.3518,5.3518,5.3518,5.3518,5.3518,5.3518,5.3718,5.4175,5.5069,5.5607,5.607,5.6933,5.7188,5.7188,5.7188,5.7188,5.7188,5.7188,5.7188,5.7188,5.7188,5.7188,5.7188,5.7188,5.7188,5.7188,5.7188,5.7188,5.6935,5.6138,5.6681,5.6935,5.6102,5.6681,5.7188,5.7188,5.65,5.5921,5.5703,5.4472,5.3711,5.3711,5.2951,5.248,5.248,5.248,5.248,5.248,5.248,5.248,5.248,5.248,5.248,5.248,5.248,5.248,5.248,5.248,5.2806,3.5776,3.6908,3.8328,3.9752,4.0978,4.2402,4.4456,4.5251,4.6046,4.7669,4.7636,4.7239,4.6941,4.7139,4.7471,4.7934,4.9293,5.0624,5.1664,5.24,5.2938,5.3179,5.3144,5.3144,5.3179,5.3247,5.3382,5.3518,5.3518,5.3518,5.3518,5.3518,5.3518,5.3518,5.3518,5.3518,5.3518,5.3518,5.3518,5.3518,5.3518,5.3518,5.3518,5.3518,5.3518,5.3518,5.3518,5.3518,5.3518,5.3518,5.3518,5.3518,5.3518,5.3518,5.3518,5.3518,5.3518,5.3518,5.3518,5.3718,5.4175,5.5069,5.5607,5.607,5.6933,5.7188,5.7188,5.7188,5.7188,5.7188,5.7188,5.7188,5.7188,5.7188,5.7188,5.7188,5.7188,5.7188,5.7188,5.7188,5.7188,5.7043,5.6536,5.6862,5.7043,5.6536,5.6899,5.7188,5.7188,5.679,5.6464,5.6464,5.5341,5.4617,5.4617,5.3892,5.3458,5.3458,5.3458,5.3458,5.3458,5.2842,5.248,5.248,5.248,5.248,5.248,5.248,5.248,5.248,5.248,5.2915,3.686,3.8243,3.9746,4.1243,4.2241,4.3598,4.6378,4.7007,4.7173,4.7868,4.8001,4.7802,4.7106,4.7537,4.8001,4.8001,4.9294,5.0593,5.1497,5.2404,5.3011,5.3011,5.3247,5.3315,5.3146,5.3349,5.3518,5.3518,5.3518,5.3518,5.3518,5.3518,5.3518,5.3518,5.3518,5.3518,5.3518,5.3518,5.3518,5.3518,5.3518,5.3518,5.3518,5.3518,5.3518,5.3518,5.3518,5.3518,5.3518,5.3518,5.3518,5.3518,5.3518,5.3518,5.3518,5.3518,5.3518,5.3518,5.3518,5.3718,5.4141,5.5004,5.5572,5.6042,5.6907,5.7163,5.7163,5.7163,5.7163,5.7163,5.7188,5.7188,5.7188,5.7188,5.7188,5.7188,5.7188,5.7188,5.7188,5.7188,5.7188,5.7188,5.7188,5.7188,5.7188,5.7188,5.7188,5.7188,5.7188,5.7188,5.7188,5.7188,5.6464,5.5993,5.5993,5.5305,5.4907,5.4907,5.4907,5.4907,5.4907,5.3494,5.2733,5.2733,5.2733,5.2733,5.2733,5.2733,5.2733,5.2733,5.2733,5.3132,3.7025,3.8718,4.0641,4.2634,4.4556,4.6278,4.7504,4.7769,4.7802,4.7968,4.8001,4.7968,4.7802,4.7901,4.8033,4.813,4.8927,4.9692,5.0254,5.0991,5.1528,5.1626,5.2165,5.257,5.247,5.3078,5.3518,5.3518,5.3518,5.3518,5.3518,5.3518,5.3518,5.3518,5.3518,5.3518,5.3518,5.3518,5.3518,5.3518,5.3518,5.3518,5.3518,5.3518,5.3518,5.3518,5.3518,5.3518,5.3518,5.3518,5.3518,5.3518,5.3518,5.3518,5.3518,5.3518,5.3518,5.3518,5.3518,5.3718,5.4175,5.5104,5.5549,5.5872,5.6644,5.6881,5.6881,5.6881,5.6959,5.7061,5.7163,5.7188,5.7188,5.7188,5.7188,5.7188,5.7188,5.7188,5.7188,5.7188,5.7188,5.7188,5.7188,5.7188,5.7188,5.7188,5.7188,5.7188,5.7188,5.7188,5.7188,5.7188,5.6464,5.5993,5.5993,5.5305,5.4907,5.4907,5.4907,5.4907,5.4907,5.4581,5.4399,5.4399,5.4399,5.4399,5.4399,5.4399,5.4399,5.4399,5.4399,5.4798,3.7097,3.9188,4.1659,4.4489,4.6311,4.7537,4.7901,4.8001,4.8001,4.8001,4.8001,4.8001,4.8001,4.8001,4.8033,4.8163,4.8892,4.9556,4.9882,5.0584,5.112,5.1185,5.186,5.23,5.23,5.3044,5.3518,5.3518,5.3518,5.3518,5.3518,5.3518,5.3518,5.3518,5.3518,5.3518,5.3518,5.3518,5.3518,5.3518,5.3518,5.3518,5.3518,5.3518,5.3518,5.3484,5.3078,5.3145,5.3484,5.3078,5.3145,5.3518,5.3518,5.3518,5.3518,5.3518,5.3518,5.3518,5.3518,5.3718,5.4175,5.5069,5.5426,5.5665,5.6374,5.651,5.6483,5.6564,5.6671,5.6891,5.7112,5.7188,5.7188,5.7188,5.7188,5.7188,5.7188,5.7188,5.7188,5.7188,5.7188,5.7188,5.7188,5.7188,5.7188,5.7188,5.7188,5.7188,5.7188,5.7188,5.7188,5.7188,5.6826,5.6573,5.6573,5.621,5.5993,5.5993,5.5993,5.5993,5.5993,5.5993,5.5667,5.4907,5.4907,5.4907,5.4907,5.4907,5.4907,5.4907,5.4907,5.5305,3.7053,3.9803,4.2883,4.6111,4.7438,4.8001,4.8001,4.8001,4.8001,4.8001,4.8001,4.8001,4.8001,4.8001,4.8066,4.8227,4.8889,4.9486,4.9712,5.0377,5.0813,5.0813,5.1488,5.1928,5.1928,5.2739,5.3281,5.3281,5.3416,5.3518,5.3518,5.3518,5.3518,5.3518,5.3518,5.3518,5.3518,5.3518,5.345,5.3281,5.3179,5.3112,5.3112,5.3112,5.3247,5.345,5.2638,5.2773,5.345,5.2638,5.2773,5.3518,5.3518,5.3518,5.3518,5.3518,5.3484,5.3517,5.3517,5.3817,5.4237,5.5064,5.5426,5.5578,5.6118,5.6201,5.6182,5.6229,5.6456,5.6733,5.7087,5.7188,5.7188,5.7188,5.7188,5.7188,5.7188,5.7188,5.7188,5.7188,5.7188,5.7188,5.7188,5.7188,5.7188,5.7188,5.7188,5.7188,5.7188,5.7188,5.7188,5.7188,5.7188,5.7188,5.7188,5.7188,5.7188,5.7188,5.7188,5.7188,5.7188,5.7188,5.6609,5.5341,5.5305,5.5305,5.5305,5.5305,5.5305,5.5305,5.5305,5.5631,3.6918,4.0803,4.4718,4.6444,4.7438,4.8001,4.8001,4.8001,4.8001,4.8001,4.8001,4.8001,4.8001,4.8001,4.8099,4.842,4.8584,4.8778,4.906,4.9224,4.9289,4.9289,4.9932,5.0371,5.0371,5.1657,5.2469,5.2469,5.3112,5.3518,5.3518,5.3518,5.3518,5.3518,5.3518,5.3518,5.3518,5.3518,5.3145,5.2469,5.1826,5.1522,5.1522,5.1522,5.2266,5.345,5.2638,5.2773,5.345,5.2638,5.2773,5.3518,5.3518,5.3518,5.3518,5.3518,5.3584,5.3684,5.3684,5.4076,5.471,5.5367,5.5694,5.5872,5.607,5.6237,5.6328,5.6182,5.6456,5.6829,5.7112,5.7188,5.7188,5.7188,5.7188,5.7188,5.7188,5.7188,5.7188,5.7188,5.7188,5.7188,5.7188,5.7188,5.7188,5.7188,5.7188,5.7188,5.7188,5.7188,5.7188,5.7188,5.7188,5.7188,5.7188,5.7188,5.7188,5.7188,5.7188,5.7188,5.7188,5.7188,5.708,5.6899,5.6899,5.6899,5.6899,5.6899,5.6899,5.6899,5.6899,5.6935,3.8525,4.2041,4.509,4.7136,4.7834,4.8001,4.8001,4.8001,4.8001,4.8001,4.8001,4.8001,4.8001,4.8001,4.8066,4.8292,4.842,4.8578,4.8863,4.8956,4.9018,4.9018,5.0033,5.071,5.071,5.2097,5.2976,5.2976,5.3315,5.3518,5.3518,5.3518,5.3518,5.3518,5.3518,5.3518,5.3518,5.3518,5.3112,5.23,5.1555,5.1185,5.1185,5.1185,5.1589,5.2198,5.1386,5.1488,5.2164,5.1386,5.1758,5.2841,5.2841,5.3112,5.3518,5.3518,5.3584,5.375,5.3977,5.4394,5.4953,5.5716,5.6007,5.6042,5.6146,5.6237,5.6209,5.6237,5.6456,5.6786,5.7112,5.7188,5.7188,5.7188,5.7188,5.7188,5.7188,5.7188,5.7188,5.7188,5.7188,5.7188,5.7188,5.7188,5.7188,5.7188,5.7188,5.7188,5.7188,5.7188,5.7188,5.7188,5.7188,5.7188,5.7188,5.7188,5.7188,5.7188,5.7188,5.7188,5.7188,5.7188,5.7188,5.7188,5.7188,5.7188,5.7188,5.7188,5.7188,5.7188,5.7188,5.7188,3.9201,4.2016,4.4177,4.6673,4.7502,4.7736,4.7736,4.7868,4.8001,4.8001,4.8001,4.8001,4.8001,4.8001,4.8066,4.826,4.8356,4.8515,4.8769,4.8894,4.8956,4.9018,5.0135,5.0913,5.0913,5.23,5.3213,5.3213,5.3382,5.3518,5.3518,5.3518,5.3518,5.3518,5.3518,5.3416,5.3213,5.2807,5.2334,5.1725,5.1014,5.0642,5.0642,5.0642,5.0744,5.0913,5.0541,5.0913,5.1725,5.098,5.142,5.2604,5.2604,5.2976,5.3518,5.3518,5.3618,5.3815,5.4235,5.461,5.5104,5.5894,5.6154,5.6126,5.6201,5.6265,5.6265,5.6374,5.6537,5.6786,5.7112,5.7188,5.7188,5.7188,5.7188,5.7188,5.7188,5.7188,5.7188,5.7188,5.7188,5.7188,5.7188,5.7188,5.7188,5.7188,5.7188,5.7188,5.7188,5.7188,5.7188,5.7188,5.7188,5.7188,5.7188,5.7188,5.7188,5.7188,5.7188,5.7188,5.7188,5.7188,5.7188,5.7188,5.7188,5.7188,5.7188,5.7188,5.7188,5.7188,5.7188,5.7188,3.7468,3.9744,4.1756,4.408,4.582,4.6974,4.6974,4.7504,4.8001,4.8001,4.8001,4.8001,4.8001,4.8001,4.8099,4.842,4.8324,4.8356,4.8738,4.8801,4.8863,4.8987,4.9695,5.0135,5.0135,5.1488,5.2367,5.2367,5.3078,5.3518,5.3518,5.3518,5.3518,5.3518,5.3518,5.3145,5.2367,5.098,5.0236,5.0202,4.9458,4.912,4.912,4.912,4.9492,5.0168,5.0879,5.1995,5.3315,5.2536,5.2672,5.345,5.345,5.345,5.3518,5.3518,5.3718,5.4013,5.4173,5.4614,5.5259,5.5619,5.5936,5.6162,5.6126,5.632,5.6573,5.66,5.6786,5.701,5.7163,5.7188,5.7188,5.7188,5.7188,5.7188,5.7188,5.7188,5.7188,5.7188,5.7188,5.7188,5.7188,5.7188,5.7188,5.7188,5.7188,5.7188,5.7188,5.7188,5.7188,5.7188,5.7188,5.7188,5.7188,5.7188,5.7188,5.7188,5.7188,5.7188,5.7188,5.7188,5.7188,5.7188,5.7188,5.7188,5.7188,5.7188,5.7188,5.7188,5.7188,5.7188,3.5919,3.785,3.9841,4.2499,4.3908,4.496,4.6074,4.6839,4.7438,4.7901,4.8001,4.8033,4.8098,4.8066,4.8033,4.8164,4.8292,4.8452,4.8578,4.8801,4.8956,4.8984,4.9661,5.027,5.0777,5.1725,5.2503,5.3044,5.3348,5.3518,5.3518,5.3518,5.3518,5.3518,5.3518,5.3112,5.23,5.0845,5.0101,5.0067,4.9357,4.9018,4.9018,4.9018,4.9661,5.0845,5.1116,5.1489,5.1995,5.1725,5.2063,5.2739,5.2739,5.3044,5.3518,5.3518,5.3651,5.3882,5.4203,5.4582,5.4957,5.5378,5.5636,5.5865,5.6146,5.6402,5.6653,5.6907,5.7036,5.7138,5.7188,5.7188,5.7188,5.7188,5.7188,5.7188,5.7188,5.7188,5.7188,5.7188,5.7188,5.7188,5.7188,5.7188,5.7188,5.7188,5.7188,5.7188,5.7188,5.7188,5.7188,5.7188,5.7188,5.7188,5.7188,5.7188,5.7188,5.7188,5.7188,5.7188,5.7188,5.7188,5.7188,5.7188,5.7188,5.7188,5.7188,5.7188,5.7188,5.7188,5.7188,5.7188,3.4166,3.5824,3.756,4.0013,4.1625,4.299,4.4423,4.5481,4.6444,4.7438,4.7636,4.7735,4.8065,4.8066,4.8033,4.8164,4.8292,4.8452,4.8578,4.8801,4.8956,4.8984,4.9661,5.027,5.0777,5.1522,5.2164,5.2706,5.2976,5.3112,5.3112,5.3348,5.3382,5.3112,5.2604,5.2097,5.1555,5.0338,4.9729,4.9729,4.9221,4.9018,4.9018,4.9018,4.9796,5.1185,5.1185,5.1489,5.1995,5.1995,5.2266,5.2706,5.2706,5.3077,5.3584,5.3584,5.3684,5.3881,5.4235,5.4457,5.4679,5.5018,5.5224,5.5519,5.6007,5.6347,5.6591,5.7061,5.7188,5.7188,5.7188,5.7188,5.7188,5.7188,5.7188,5.7188,5.7188,5.7188,5.7188,5.7188,5.7188,5.7188,5.7188,5.7188,5.7188,5.7188,5.7188,5.7188,5.7188,5.7188,5.7188,5.7188,5.7188,5.7188,5.7188,5.7188,5.7188,5.7188,5.7188,5.7188,5.7188,5.7188,5.7188,5.7188,5.7188,5.7188,5.7188,5.7188,5.7188,5.7188,5.7188,5.7188,0.0,0.0,0.0,3.6607,3.8967,4.1103,4.2038,4.3472,4.5052,4.6543,4.6874,4.7139,4.7868,4.8001,4.8131,4.8452,4.8324,4.8324,4.8738,4.8801,4.8863,4.8987,4.9627,5.0067,5.0101,5.0744,5.1151,5.1185,5.1894,5.23,5.23,5.3044,5.3112,5.2334,5.0845,5.0101,5.0101,4.9357,4.9018,4.9018,4.9018,4.9018,4.9018,4.9018,4.9796,5.1185,5.1185,5.2097,5.3518,5.3518,5.3518,5.3518,5.3518,5.3584,5.3717,5.3717,5.3913,5.4207,5.4205,5.4333,5.4463,5.4463,5.4683,5.5079,5.5694,5.6063,5.642,5.7036,5.7188,5.7188,5.7188,5.7188,5.7188,5.7188,5.7188,5.7188,5.7188,5.7188,5.7188,5.7188,5.7188,5.7188,5.7188,5.7188,5.7188,5.7188,5.7188,5.7188,5.7188,5.7188,5.7188,5.7188,5.7188,5.7188,5.7188,5.7188,5.7188,5.7188,5.7188,5.7188,5.7188,5.7188,5.7188,5.7188,5.7188,5.7188,5.7188,5.7188,5.7188,5.7188,5.7188,5.7188,3.0794,0.0,0.0,0.0,0.0,0.0,4.0264,4.1927,4.3605,4.5775,4.6606,4.7139,4.7868,4.8001,4.8131,4.8452,4.8452,4.8515,4.8769,4.8894,4.8956,4.9018,4.9187,4.9492,5.0033,5.027,5.0642,5.1183,5.1894,5.23,5.23,5.2503,5.2536,5.23,5.0845,5.0101,5.0101,4.9357,4.9018,4.9018,4.9018,4.9018,4.9018,4.9018,4.9796,5.1185,5.1185,5.2097,5.3518,5.3518,5.3518,5.3518,5.3518,5.3584,5.3716,5.4074,5.4203,5.4237,5.433,5.4269,5.4078,5.385,5.398,5.4428,5.5284,5.5751,5.6182,5.6984,5.7188,5.7188,5.7188,5.7188,5.7188,5.7188,5.7188,5.7188,5.7188,5.7188,5.7188,5.7188,5.7188,5.7188,5.7188,5.7188,5.7188,5.7188,5.7188,5.7188,5.7188,5.7188,5.7188,5.7188,5.7188,5.7188,5.7188,5.7188,5.7188,5.7188,5.7188,5.7188,5.7188,5.7188,5.7188,5.7188,5.7188,5.7188,5.7188,5.7188,5.7188,5.7188,5.7188,5.7188,3.0658,3.1279,0.0,3.3379,0.0,0.0,3.8036,3.9668,4.1457,4.3872,4.4896,4.5691,4.6811,4.7041,4.7201,4.7548,4.7608,4.7967,4.8762,4.8956,4.9018,4.9018,4.9018,4.9187,4.9593,4.9627,4.983,5.027,5.098,5.1522,5.1826,5.1555,5.1386,5.1386,5.0236,4.9627,4.9627,4.9221,4.9018,4.9018,4.9018,4.9018,4.9018,4.9018,4.9796,5.1185,5.1185,5.2097,5.3518,5.3518,5.3518,5.3518,5.3518,5.3651,5.3882,5.4203,5.4299,5.4333,5.433,5.4173,5.3948,5.3584,5.3718,5.4175,5.5069,5.5607,5.607,5.6959,5.7188,5.7188,5.7188,5.7188,5.7188,5.7188,5.7188,5.7188,5.7188,5.7188,5.7188,5.7188,5.7188,5.7188,5.7188,5.7188,5.7188,5.7188,5.7188,5.7188,5.7188,5.7188,5.7188,5.7188,5.7188,5.7188,5.7188,5.7188,5.7188,5.7188,5.7188,5.7188,5.7188,5.7188,5.7188,5.7188,5.7188,5.7188,5.7188,5.7188,5.7188,5.7188,5.7188,5.7188,3.1213,3.1477,0.0,3.2644,3.3648,0.0,3.5685,3.7117,3.8958,4.1288,4.2395,4.3406,4.5037,4.5425,4.5673,4.6009,4.6257,4.6978,4.8649,4.8883,4.8917,4.8984,4.9018,4.9018,4.9018,4.9018,4.9018,4.9018,4.9661,5.0405,5.1183,5.0507,5.0101,5.0101,4.939,4.9018,4.9018,4.9018,4.9018,4.9018,4.9018,4.9052,4.912,4.912,4.9932,5.132,5.132,5.2164,5.3518,5.3518,5.3518,5.3518,5.3518,5.3685,5.398,5.4173,5.4333,5.4431,5.4301,5.4108,5.3948,5.3584,5.3718,5.4141,5.5034,5.5572,5.607,5.6959,5.7188,5.7188,5.7188,5.7188,5.7188,5.7188,5.7188,5.7188,5.7188,5.7188,5.7188,5.7188,5.7188,5.7188,5.7188,5.7188,5.7188,5.7188,5.7188,5.7188,5.7188,5.7188,5.7188,5.7188,5.7188,5.7188,5.7188,5.7188,5.7188,5.7188,5.7188,5.7188,5.7188,5.7188,5.7188,5.7188,5.7188,5.7188,5.7188,5.7188,5.7188,5.7188,5.7188,5.7188,3.1213,3.1424,3.1605,3.2311,3.2866,0.0,3.4428,3.55,3.6938,3.935,4.0502,4.1594,4.3274,4.3845,4.4145,4.4615,4.5206,4.6207,4.7872,4.8108,4.8311,4.8951,4.9018,4.9018,4.9018,4.9018,4.9018,4.9018,4.9661,5.0405,5.1183,5.0507,5.0101,5.0101,4.939,4.9018,4.9018,4.9018,4.9018,4.9018,4.9018,4.9323,4.9864,4.9864,5.0676,5.2097,5.2097,5.2638,5.3518,5.3518,5.3518,5.3518,5.3518,5.3618,5.3816,5.4203,5.433,5.4269,5.4362,5.4171,5.3948,5.3584,5.3718,5.4141,5.5034,5.5572,5.607,5.6959,5.7188,5.7188,5.7188,5.7188,5.7188,5.7188,5.7188,5.7188,5.7188,5.7188,5.7188,5.7188,5.7188,5.7188,5.7188,5.7188,5.7188,5.7188,5.7188,5.7188,5.7188,5.7188,5.7188,5.7188,5.7188,5.7188,5.7188,5.7188,5.7188,5.7188,5.7188,5.7188,5.7188,5.7188,5.7188,5.7188,5.7188,5.7188,5.7188,5.7188,5.7188,5.7188,5.7188,5.7188,3.2872,3.2964,3.2964,3.2906,3.3104,0.0,0.0,3.4265,3.5344,3.6997,3.8062,3.904,4.0401,4.098,4.1484,4.23,4.2897,4.3912,4.5945,4.7225,4.8142,4.8917,4.9018,4.9018,4.9018,4.9018,4.9018,4.9018,4.9357,4.9695,5.0101,4.9763,4.956,4.956,4.9187,4.9018,4.9018,4.9018,4.9018,4.9018,4.9018,4.939,5.0101,5.0101,5.0913,5.23,5.23,5.2773,5.3518,5.3518,5.3518,5.3518,5.3518,5.3584,5.375,5.4076,5.4173,5.4108,5.4173,5.4044,5.3816,5.3551,5.3718,5.4143,5.4887,5.5694,5.6456,5.6959,5.7138,5.7188,5.7188,5.7188,5.7188,5.7188,5.7188,5.7188,5.7188,5.7188,5.7188,5.7188,5.7188,5.7188,5.7188,5.7188,5.7188,5.7188,5.7188,5.7188,5.7188,5.7188,5.7188,5.7188,5.7188,5.7188,5.7188,5.7188,5.7188,5.7188,5.7188,5.7188,5.7188,5.7188,5.7188,5.7188,5.7188,5.7188,5.7188,5.7188,5.7188,5.7188,5.7188,5.7188,3.4905,3.4782,3.4536,3.3798,3.3635,3.3501,0.0,0.0,0.0,3.4844,3.5612,3.6469,3.7488,3.8033,3.8695,3.9754,4.0407,4.1519,4.3639,4.5737,4.7428,4.8443,4.8578,4.8646,4.8781,4.8781,4.8748,4.8578,4.8714,4.8781,4.8781,4.8917,4.9018,4.9018,4.9154,4.9221,4.9221,4.9357,4.9424,4.9424,4.9424,4.9796,5.0507,5.0507,5.1251,5.2536,5.2536,5.2909,5.3518,5.3518,5.3518,5.3518,5.3518,5.3584,5.3684,5.3849,5.3882,5.3882,5.3882,5.3783,5.3651,5.3517,5.3784,5.4173,5.4738,5.5716,5.6724,5.6855,5.7036,5.7188,5.7188,5.7188,5.7188,5.7188,5.7188,5.7188,5.7188,5.7188,5.7188,5.7188,5.7188,5.7188,5.7188,5.7188,5.7188,5.7188,5.7188,5.7188,5.7188,5.7188,5.7188,5.7188,5.7188,5.7188,5.7188,5.7188,5.7188,5.7188,5.7188,5.7188,5.7188,5.7188,5.7188,5.7188,5.7188,5.7188,5.7188,5.7188,5.7188,5.7188,5.7188,5.7188,3.6261,3.583,3.5244,3.4536,3.3889,3.3242,3.2622,0.0,3.2773,3.3481,0.0,3.4541,3.5542,0.0,0.0,3.7408,3.8813,4.0244,4.1414,4.2929,4.4688,4.6786,4.7056,4.7293,4.7939,4.8007,4.7767,4.709,4.7665,4.8007,4.8007,4.8646,4.9018,4.9018,4.9627,4.9965,4.9965,5.0642,5.098,5.098,5.098,5.1352,5.2063,5.2063,5.2536,5.3382,5.3382,5.3416,5.3518,5.3518,5.3518,5.3518,5.3518,5.3518,5.3551,5.3551,5.3585,5.3585,5.3585,5.3517,5.3517,5.3518,5.3881,5.4422,5.4799,5.5572,5.6393,5.6564,5.6907,5.7188,5.7188,5.7188,5.7188,5.7188,5.7188,5.7188,5.7188,5.7188,5.7188,5.7188,5.7188,5.7188,5.7188,5.7188,5.7188,5.7188,5.7188,5.7188,5.7188,5.7188,5.7188,5.7188,5.7188,5.7188,5.7188,5.7188,5.7188,5.7188,5.7188,5.7188,5.7188,5.7188,5.7188,5.7188,5.7188,5.7188,5.7188,5.7188,5.7188,5.7188,5.7188,5.7188,3.7769,3.7184,3.6384,3.5337,3.4566,3.3737,3.2628,3.269,3.3059,3.3336,0.0,0.0,0.0,0.0,0.0,0.0,3.6997,3.7974,3.9859,4.0702,4.2246,4.5196,4.5906,4.6447,4.7192,4.6887,4.6684,4.6786,4.709,4.7462,4.7872,4.8612,4.9018,4.9018,4.9729,5.0101,5.0101,5.0845,5.1185,5.1185,5.1185,5.1589,5.23,5.23,5.2739,5.3518,5.3518,5.3518,5.3518,5.3518,5.3518,5.3518,5.3518,5.3518,5.3518,5.3518,5.3518,5.3518,5.3518,5.3518,5.3484,5.3584,5.3882,5.4269,5.4645,5.5254,5.5865,5.6209,5.6617,5.6984,5.7061,5.7138,5.7188,5.7188,5.7188,5.7188,5.7188,5.7188,5.7188,5.7188,5.7188,5.7188,5.7188,5.7188,5.7188,5.7188,5.7188,5.7188,5.7188,5.7188,5.7188,5.7188,5.7188,5.7188,5.7188,5.7188,5.7188,5.7188,5.7188,5.7188,5.7188,5.7188,5.7188,5.7188,5.7188,5.7188,5.7188,5.7188,5.7188,5.7188,5.7188,5.7188,3.9493,3.8569,3.7461,3.6107,3.5152,3.4135,3.2721,3.2906,3.346,3.3644,3.4347,0.0,0.0,0.0,3.5058,3.5589,0.0,3.6254,3.7946,3.8493,3.9987,4.3468,4.4761,4.5534,4.5838,4.5568,4.5602,4.6143,4.6177,4.6616,4.7564,4.8308,4.8815,4.8984,4.9729,5.0202,5.0405,5.115,5.1623,5.186,5.186,5.2131,5.2638,5.2638,5.2942,5.3518,5.3518,5.3518,5.3518,5.3518,5.3518,5.3518,5.3518,5.3518,5.3518,5.3518,5.3518,5.3518,5.3518,5.3518,5.3551,5.3618,5.3717,5.3915,5.4301,5.4738,5.5219,5.5665,5.6201,5.6697,5.6829,5.7036,5.7188,5.7188,5.7188,5.7188,5.7188,5.7188,5.7188,5.7188,5.7188,5.7188,5.7188,5.7188,5.7188,5.7188,5.7188,5.7188,5.7188,5.7188,5.7188,5.7188,5.7188,5.7188,5.7188,5.7188,5.7188,5.7188,5.7188,5.7188,5.7188,5.7188,5.7188,5.7188,5.7188,5.7188,5.7188,5.7188,5.7188,5.7188,5.7188,5.7188,4.1524,4.0016,3.8169,3.6784,3.5491,3.4135,3.2721,3.2906,3.3614,3.432,3.4998,3.5491,3.5491,3.5669,3.5495,3.4423,3.5099,0.0,0.0,3.6189,3.8064,4.1559,4.3569,4.4316,4.3578,4.4181,4.4649,4.4682,4.4682,4.5326,4.6752,4.753,4.8244,4.8984,4.9729,5.0439,5.1183,5.1894,5.2672,5.345,5.345,5.345,5.345,5.345,5.3484,5.3518,5.3518,5.3518,5.3518,5.3518,5.3518,5.3518,5.3518,5.3518,5.3518,5.3518,5.3518,5.3518,5.3518,5.3518,5.3518,5.3518,5.3518,5.3517,5.3684,5.4042,5.4516,5.4826,5.5601,5.6339,5.6537,5.6881,5.7188,5.7188,5.7188,5.7188,5.7188,5.7188,5.7188,5.7188,5.7188,5.7188,5.7188,5.7188,5.7188,5.7188,5.7188,5.7188,5.7188,5.7188,5.7188,5.7188,5.7188,5.7188,5.7188,5.7188,5.7188,5.7188,5.7188,5.7188,5.7188,5.7188,5.7188,5.7188,5.7188,5.7188,5.7188,5.7188,5.7188,5.7188,5.7188,5.7188,4.2509,4.1093,3.9582,3.8723,3.7123,3.5553,3.466,3.4968,3.5522,3.5768,3.6692,3.7492,3.7492,3.6909,3.6193,0.0,3.497,3.4655,0.0,3.5673,3.7157,3.909,4.068,4.1907,4.2591,4.2489,4.276,4.3741,4.3809,4.4688,4.6684,4.7496,4.824,4.8984,4.9729,5.0439,5.1185,5.1928,5.2706,5.3518,5.3518,5.3518,5.3518,5.3518,5.3518,5.3518,5.3518,5.3518,5.3518,5.3518,5.3518,5.3518,5.3518,5.3518,5.3518,5.3518,5.3518,5.3518,5.3518,5.3518,5.3518,5.3518,5.3518,5.3551,5.3651,5.3881,5.4237,5.4679,5.5224,5.5886,5.6709,5.716,5.7577,5.8161,5.8412,5.8493,5.8625,5.8332,5.7985,5.7985,5.755,5.7188,5.7188,5.7188,5.7188,5.7188,5.7188,5.7188,5.7188,5.7188,5.7188,5.7188,5.7188,5.7188,5.7188,5.7188,5.7188,5.7188,5.7188,5.7188,5.7188,5.7188,5.7188,5.7188,5.7188,5.7188,5.7188,5.7188,5.7188,5.7188,5.7188,5.7188,4.3895,4.2663,4.1432,4.0786,3.9247,3.7677,3.6753,3.6907,3.7277,3.7523,3.8446,3.9308,3.9554,3.8758,3.7682,0.0,0.0,3.4407,0.0,3.4808,3.5899,3.6888,3.8746,4.0458,4.1726,4.1448,4.1711,4.2929,4.2794,4.3606,4.5872,4.6718,4.7597,4.8578,4.9323,5.0202,5.1217,5.1691,5.2435,5.3518,5.3518,5.3518,5.3518,5.3518,5.3518,5.3518,5.3518,5.3518,5.3518,5.3518,5.3518,5.3518,5.3518,5.3518,5.3518,5.3518,5.3518,5.3518,5.3518,5.3518,5.3518,5.3518,5.3518,5.3551,5.3618,5.3751,5.3882,5.4237,5.4676,5.5309,5.6385,5.6888,5.7391,5.8316,5.8723,5.8976,5.9177,5.8779,5.8383,5.8383,5.7732,5.7188,5.7188,5.7188,5.7188,5.7188,5.7188,5.7188,5.7188,5.7188,5.7188,5.7188,5.7188,5.7188,5.7188,5.7188,5.7188,5.7188,5.7188,5.7188,5.7188,5.7188,5.7188,5.7188,5.7188,5.7188,5.7188,5.7188,5.7188,5.7188,5.7188,5.7188]}]]